Wetterdaten: Sonntag, 22.07.2018
Datum Zeit Temp. A. Pool Temp. Temp. 5cm Feuchte A. Luftdruck Regen Wind Richtung Richtung Sonnenschein ET UV Solar Taupunkt Windchill Windben Empfang
22.07.2018 00:00 18,3 C 23,9 C 17,8 C 84 % 1009,7 hPa 0,0 l/m 9,5 km/h (2 Bft) W-SW 255 0 min 0,000 mm 0,0 UV-I 0 W/m 15,5 C 17,0 C 14,5 km/h (3 Bft) 96,30 %
22.07.2018 00:02 18,4 C 23,9 C 17,8 C 83 % 1009,7 hPa 0,0 l/m 10,1 km/h (2 Bft) SW 217 0 min 0,000 mm 0,0 UV-I 0 W/m 15,5 C 16,8 C 14,5 km/h (3 Bft) 97,14 %
22.07.2018 00:03 18,4 C 23,9 C 17,8 C 83 % 1009,7 hPa 0,0 l/m 12,6 km/h (3 Bft) SW 214 0 min 0,000 mm 0,0 UV-I 0 W/m 15,5 C 16,0 C 16,1 km/h (3 Bft) 96,30 %
22.07.2018 00:04 18,4 C 23,9 C 17,8 C 84 % 1009,7 hPa 0,0 l/m 9,9 km/h (2 Bft) W 265 0 min 0,000 mm 0,0 UV-I 0 W/m 15,6 C 16,9 C 14,5 km/h (3 Bft) 96,15 %
22.07.2018 00:05 18,4 C 23,9 C 17,8 C 84 % 1009,7 hPa 0,0 l/m 11,4 km/h (2 Bft) W-SW 249 0 min 0,000 mm 0,0 UV-I 0 W/m 15,6 C 16,4 C 16,1 km/h (3 Bft) 100,00 %
22.07.2018 00:06 18,4 C 23,9 C 17,8 C 84 % 1009,7 hPa 0,0 l/m 10,2 km/h (2 Bft) S-SW 209 0 min 0,000 mm 0,0 UV-I 0 W/m 15,6 C 16,8 C 14,5 km/h (3 Bft) 96,15 %
22.07.2018 00:07 18,4 C 23,9 C 17,8 C 84 % 1009,7 hPa 0,0 l/m 8,9 km/h (2 Bft) SW 234 0 min 0,000 mm 0,0 UV-I 0 W/m 15,6 C 17,3 C 14,5 km/h (3 Bft) 100,00 %
22.07.2018 00:08 18,4 C 23,9 C 17,8 C 84 % 1009,7 hPa 0,0 l/m 9,3 km/h (2 Bft) SW 215 0 min 0,000 mm 0,0 UV-I 0 W/m 15,6 C 17,1 C 14,5 km/h (3 Bft) 96,15 %
22.07.2018 00:09 18,4 C 23,9 C 17,8 C 83 % 1009,7 hPa 0,0 l/m 10,2 km/h (2 Bft) S-SW 211 0 min 0,000 mm 0,0 UV-I 0 W/m 15,5 C 16,8 C 14,5 km/h (3 Bft) 100,00 %
22.07.2018 00:10 18,4 C 23,9 C 17,8 C 83 % 1009,7 hPa 0,0 l/m 12,5 km/h (3 Bft) SW 232 0 min 0,000 mm 0,0 UV-I 0 W/m 15,5 C 16,0 C 16,1 km/h (3 Bft) 92,31 %
22.07.2018 00:11 18,4 C 23,9 C 17,8 C 83 % 1009,7 hPa 0,0 l/m 10,5 km/h (2 Bft) SW 236 0 min 0,000 mm 0,0 UV-I 0 W/m 15,5 C 16,7 C 14,5 km/h (3 Bft) 100,00 %
22.07.2018 00:12 18,4 C 23,9 C 17,8 C 83 % 1009,7 hPa 0,0 l/m 10,9 km/h (2 Bft) S-SW 206 0 min 0,000 mm 0,0 UV-I 0 W/m 15,5 C 16,6 C 14,5 km/h (3 Bft) 96,55 %
22.07.2018 00:13 18,5 C 23,9 C 17,8 C 83 % 1009,7 hPa 0,0 l/m 10,9 km/h (2 Bft) SW 225 0 min 0,000 mm 0,0 UV-I 0 W/m 15,6 C 16,7 C 17,7 km/h (3 Bft) 96,30 %
22.07.2018 00:14 18,5 C 23,9 C 17,8 C 83 % 1009,7 hPa 0,0 l/m 9,9 km/h (2 Bft) W-SW 244 0 min 0,000 mm 0,0 UV-I 0 W/m 15,6 C 17,0 C 12,9 km/h (3 Bft) 100,00 %
22.07.2018 00:15 18,4 C 23,9 C 17,8 C 83 % 1009,7 hPa 0,0 l/m 12,5 km/h (3 Bft) SW 225 0 min 0,000 mm 0,0 UV-I 0 W/m 15,5 C 16,0 C 17,7 km/h (3 Bft) 100,00 %
22.07.2018 00:16 18,4 C 23,9 C 17,8 C 83 % 1009,7 hPa 0,0 l/m 11,6 km/h (2 Bft) S-SW 194 0 min 0,000 mm 0,0 UV-I 0 W/m 15,5 C 16,3 C 16,1 km/h (3 Bft) 96,55 %
22.07.2018 00:17 18,4 C 23,9 C 17,8 C 83 % 1009,7 hPa 0,0 l/m 12,0 km/h (2 Bft) S-SW 213 0 min 0,000 mm 0,0 UV-I 0 W/m 15,5 C 16,2 C 20,9 km/h (4 Bft) 95,83 %
22.07.2018 00:18 18,4 C 23,9 C 17,8 C 83 % 1009,7 hPa 0,0 l/m 12,4 km/h (3 Bft) W-SW 254 0 min 0,000 mm 0,0 UV-I 0 W/m 15,5 C 16,1 C 16,1 km/h (3 Bft) 100,00 %
22.07.2018 00:19 18,4 C 23,9 C 17,8 C 83 % 1009,7 hPa 0,0 l/m 12,7 km/h (3 Bft) W-SW 239 0 min 0,000 mm 0,0 UV-I 0 W/m 15,5 C 16,0 C 16,1 km/h (3 Bft) 96,55 %
22.07.2018 00:20 18,4 C 23,9 C 17,8 C 83 % 1009,7 hPa 0,0 l/m 13,0 km/h (3 Bft) W-SW 248 0 min 0,000 mm 0,0 UV-I 0 W/m 15,5 C 15,9 C 17,7 km/h (3 Bft) 100,00 %
22.07.2018 00:21 18,4 C 23,9 C 17,8 C 83 % 1009,8 hPa 0,0 l/m 10,9 km/h (2 Bft) S-SW 201 0 min 0,000 mm 0,0 UV-I 0 W/m 15,5 C 16,6 C 14,5 km/h (3 Bft) 96,15 %
22.07.2018 00:22 18,4 C 23,9 C 17,2 C 83 % 1009,8 hPa 0,0 l/m 9,0 km/h (2 Bft) SW 223 0 min 0,000 mm 0,0 UV-I 0 W/m 15,5 C 17,3 C 16,1 km/h (3 Bft) 100,00 %
22.07.2018 00:23 18,4 C 23,9 C 17,2 C 83 % 1009,8 hPa 0,0 l/m 12,0 km/h (2 Bft) W-SW 242 0 min 0,000 mm 0,0 UV-I 0 W/m 15,5 C 16,2 C 16,1 km/h (3 Bft) 95,83 %
22.07.2018 00:24 18,4 C 23,9 C 17,2 C 83 % 1009,8 hPa 0,0 l/m 9,4 km/h (2 Bft) S 182 0 min 0,000 mm 0,0 UV-I 0 W/m 15,5 C 17,1 C 14,5 km/h (3 Bft) 100,00 %
22.07.2018 00:25 18,3 C 23,9 C 17,2 C 83 % 1009,8 hPa 0,0 l/m 10,0 km/h (2 Bft) SW 227 0 min 0,000 mm 0,0 UV-I 0 W/m 15,4 C 16,8 C 12,9 km/h (3 Bft) 96,88 %
22.07.2018 00:26 18,3 C 23,9 C 17,2 C 83 % 1009,8 hPa 0,0 l/m 9,7 km/h (2 Bft) SW 227 0 min 0,000 mm 0,0 UV-I 0 W/m 15,4 C 16,9 C 14,5 km/h (3 Bft) 96,30 %
22.07.2018 00:27 18,3 C 23,9 C 17,2 C 83 % 1009,8 hPa 0,0 l/m 9,4 km/h (2 Bft) SW 228 0 min 0,000 mm 0,0 UV-I 0 W/m 15,4 C 17,0 C 12,9 km/h (3 Bft) 100,00 %
22.07.2018 00:28 18,3 C 23,9 C 17,2 C 83 % 1009,8 hPa 0,0 l/m 8,0 km/h (2 Bft) SW 220 0 min 0,000 mm 0,0 UV-I 0 W/m 15,4 C 17,6 C 12,9 km/h (3 Bft) 96,30 %
22.07.2018 00:29 18,3 C 23,9 C 17,2 C 83 % 1009,8 hPa 0,0 l/m 9,2 km/h (2 Bft) W-SW 257 0 min 0,000 mm 0,0 UV-I 0 W/m 15,4 C 17,1 C 12,9 km/h (3 Bft) 100,00 %
22.07.2018 00:30 18,3 C 23,9 C 17,2 C 83 % 1009,8 hPa 0,0 l/m 9,7 km/h (2 Bft) SW 219 0 min 0,000 mm 0,0 UV-I 0 W/m 15,4 C 16,9 C 11,3 km/h (2 Bft) 92,59 %
22.07.2018 00:31 18,3 C 23,9 C 17,2 C 84 % 1009,8 hPa 0,0 l/m 9,9 km/h (2 Bft) SW 218 0 min 0,000 mm 0,0 UV-I 0 W/m 15,5 C 16,8 C 12,9 km/h (3 Bft) 100,00 %
22.07.2018 00:32 18,2 C 23,9 C 17,2 C 84 % 1009,8 hPa 0,0 l/m 7,6 km/h (2 Bft) W-SW 248 0 min 0,000 mm 0,0 UV-I 0 W/m 15,4 C 17,6 C 12,9 km/h (3 Bft) 95,83 %
22.07.2018 00:33 18,2 C 23,9 C 17,2 C 84 % 1009,8 hPa 0,0 l/m 7,6 km/h (2 Bft) SW 235 0 min 0,000 mm 0,0 UV-I 0 W/m 15,4 C 17,6 C 11,3 km/h (2 Bft) 100,00 %
22.07.2018 00:34 18,2 C 23,9 C 17,2 C 84 % 1009,8 hPa 0,0 l/m 9,2 km/h (2 Bft) SW 236 0 min 0,000 mm 0,0 UV-I 0 W/m 15,4 C 17,0 C 14,5 km/h (3 Bft) 95,83 %
22.07.2018 00:35 18,2 C 23,9 C 17,2 C 84 % 1009,8 hPa 0,0 l/m 12,3 km/h (3 Bft) W 269 0 min 0,000 mm 0,0 UV-I 0 W/m 15,4 C 15,9 C 16,1 km/h (3 Bft) 100,00 %
22.07.2018 00:36 18,2 C 23,9 C 17,2 C 84 % 1009,7 hPa 0,0 l/m 11,1 km/h (2 Bft) W-SW 239 0 min 0,000 mm 0,0 UV-I 0 W/m 15,4 C 16,3 C 14,5 km/h (3 Bft) 96,15 %
22.07.2018 00:37 18,2 C 23,9 C 17,2 C 84 % 1009,8 hPa 0,0 l/m 10,1 km/h (2 Bft) SW 227 0 min 0,000 mm 0,0 UV-I 0 W/m 15,4 C 16,6 C 14,5 km/h (3 Bft) 100,00 %
22.07.2018 00:38 18,1 C 23,9 C 17,2 C 84 % 1009,8 hPa 0,0 l/m 11,6 km/h (2 Bft) W-SW 251 0 min 0,000 mm 0,0 UV-I 0 W/m 15,4 C 16,0 C 14,5 km/h (3 Bft) 96,30 %
22.07.2018 00:39 18,1 C 23,9 C 17,2 C 84 % 1009,7 hPa 0,0 l/m 11,3 km/h (2 Bft) W-SW 238 0 min 0,000 mm 0,0 UV-I 0 W/m 15,4 C 16,1 C 14,5 km/h (3 Bft) 92,31 %
22.07.2018 00:40 18,1 C 23,9 C 17,2 C 84 % 1009,8 hPa 0,0 l/m 8,1 km/h (2 Bft) W-SW 257 0 min 0,000 mm 0,0 UV-I 0 W/m 15,4 C 17,3 C 14,5 km/h (3 Bft) 100,00 %
22.07.2018 00:41 18,1 C 23,9 C 17,2 C 84 % 1009,7 hPa 0,0 l/m 11,6 km/h (2 Bft) W-SW 241 0 min 0,000 mm 0,0 UV-I 0 W/m 15,4 C 16,0 C 14,5 km/h (3 Bft) 96,30 %
22.07.2018 00:42 18,1 C 23,9 C 17,2 C 84 % 1009,7 hPa 0,0 l/m 9,4 km/h (2 Bft) SW 232 0 min 0,000 mm 0,0 UV-I 0 W/m 15,4 C 16,8 C 12,9 km/h (3 Bft) 100,00 %
22.07.2018 00:43 18,1 C 23,9 C 17,2 C 84 % 1009,7 hPa 0,0 l/m 11,8 km/h (2 Bft) W-SW 246 0 min 0,000 mm 0,0 UV-I 0 W/m 15,4 C 15,9 C 16,1 km/h (3 Bft) 96,30 %
22.07.2018 00:44 18,0 C 23,9 C 17,2 C 84 % 1009,8 hPa 0,0 l/m 12,5 km/h (3 Bft) W-SW 258 0 min 0,000 mm 0,0 UV-I 0 W/m 15,3 C 15,6 C 17,7 km/h (3 Bft) 100,00 %
22.07.2018 00:45 18,1 C 23,9 C 17,2 C 85 % 1009,8 hPa 0,0 l/m 11,5 km/h (2 Bft) W-SW 256 0 min 0,000 mm 0,0 UV-I 0 W/m 15,5 C 16,0 C 17,7 km/h (3 Bft) 91,67 %
22.07.2018 00:46 18,0 C 23,9 C 17,2 C 85 % 1009,8 hPa 0,0 l/m 12,7 km/h (3 Bft) W-SW 243 0 min 0,000 mm 0,0 UV-I 0 W/m 15,4 C 15,5 C 16,1 km/h (3 Bft) 100,00 %
22.07.2018 00:47 18,0 C 23,9 C 17,2 C 85 % 1009,8 hPa 0,0 l/m 10,1 km/h (2 Bft) SW 228 0 min 0,000 mm 0,0 UV-I 0 W/m 15,4 C 16,4 C 14,5 km/h (3 Bft) 92,59 %
22.07.2018 00:48 18,0 C 23,9 C 17,2 C 85 % 1009,8 hPa 0,0 l/m 10,1 km/h (2 Bft) W-SW 239 0 min 0,000 mm 0,0 UV-I 0 W/m 15,4 C 16,4 C 14,5 km/h (3 Bft) 95,65 %
22.07.2018 00:49 18,0 C 23,9 C 17,2 C 85 % 1009,8 hPa 0,0 l/m 11,9 km/h (2 Bft) W-SW 256 0 min 0,000 mm 0,0 UV-I 0 W/m 15,4 C 15,8 C 16,1 km/h (3 Bft) 95,83 %
22.07.2018 00:50 18,0 C 23,9 C 17,2 C 85 % 1009,8 hPa 0,0 l/m 10,9 km/h (2 Bft) W 265 0 min 0,000 mm 0,0 UV-I 0 W/m 15,4 C 16,1 C 16,1 km/h (3 Bft) 91,30 %
22.07.2018 00:51 17,9 C 23,9 C 17,2 C 85 % 1009,8 hPa 0,0 l/m 14,9 km/h (3 Bft) SW 236 0 min 0,000 mm 0,0 UV-I 0 W/m 15,3 C 14,7 C 20,9 km/h (4 Bft) 93,33 %
22.07.2018 00:52 17,9 C 23,9 C 17,2 C 85 % 1009,8 hPa 0,0 l/m 12,6 km/h (3 Bft) SW 234 0 min 0,000 mm 0,0 UV-I 0 W/m 15,3 C 15,4 C 20,9 km/h (4 Bft) 96,15 %
22.07.2018 00:53 17,9 C 23,9 C 17,2 C 85 % 1009,8 hPa 0,0 l/m 11,2 km/h (2 Bft) SW 236 0 min 0,000 mm 0,0 UV-I 0 W/m 15,3 C 15,9 C 16,1 km/h (3 Bft) 93,33 %
22.07.2018 00:54 17,9 C 23,9 C 17,2 C 85 % 1009,8 hPa 0,0 l/m 13,4 km/h (3 Bft) W-SW 240 0 min 0,000 mm 0,0 UV-I 0 W/m 15,3 C 15,2 C 16,1 km/h (3 Bft) 96,43 %
22.07.2018 00:55 17,9 C 23,9 C 17,2 C 85 % 1009,8 hPa 0,0 l/m 11,6 km/h (2 Bft) SW 229 0 min 0,000 mm 0,0 UV-I 0 W/m 15,3 C 15,7 C 14,5 km/h (3 Bft) 93,10 %
22.07.2018 00:56 17,9 C 23,9 C 17,2 C 85 % 1009,8 hPa 0,0 l/m 14,0 km/h (3 Bft) W-SW 243 0 min 0,000 mm 0,0 UV-I 0 W/m 15,3 C 15,0 C 17,7 km/h (3 Bft) 92,31 %
22.07.2018 00:57 17,9 C 23,9 C 17,2 C 85 % 1009,8 hPa 0,0 l/m 12,1 km/h (2 Bft) W-SW 241 0 min 0,000 mm 0,0 UV-I 0 W/m 15,3 C 15,6 C 16,1 km/h (3 Bft) 91,67 %
22.07.2018 00:58 17,9 C 23,9 C 17,2 C 85 % 1009,9 hPa 0,0 l/m 11,7 km/h (2 Bft) SW 235 0 min 0,000 mm 0,0 UV-I 0 W/m 15,3 C 15,7 C 17,7 km/h (3 Bft) 91,30 %
22.07.2018 00:59 17,9 C 23,9 C 17,2 C 85 % 1009,9 hPa 0,0 l/m 11,9 km/h (2 Bft) SW 232 0 min 0,000 mm 0,0 UV-I 0 W/m 15,3 C 15,6 C 19,3 km/h (3 Bft) 100,00 %
22.07.2018 01:00 17,9 C 23,9 C 17,2 C 85 % 1009,9 hPa 0,0 l/m 9,5 km/h (2 Bft) SW 229 0 min 0,025 mm 0,0 UV-I 0 W/m 15,3 C 16,5 C 14,5 km/h (3 Bft) 91,67 %
22.07.2018 01:01 17,9 C 23,9 C 17,2 C 85 % 1009,8 hPa 0,0 l/m 12,4 km/h (3 Bft) W-SW 251 0 min 0,000 mm 0,0 UV-I 0 W/m 15,3 C 15,5 C 17,7 km/h (3 Bft) 95,65 %
22.07.2018 01:03 17,9 C 23,9 C 17,8 C 85 % 1009,9 hPa 0,0 l/m 11,0 km/h (2 Bft) W-SW 245 0 min 0,000 mm 0,0 UV-I 0 W/m 15,3 C 16,0 C 14,5 km/h (3 Bft) 92,86 %
22.07.2018 01:04 17,9 C 23,9 C 17,8 C 85 % 1009,9 hPa 0,0 l/m 12,0 km/h (2 Bft) S-SW 211 0 min 0,000 mm 0,0 UV-I 0 W/m 15,3 C 15,6 C 14,5 km/h (3 Bft) 91,67 %
22.07.2018 01:05 17,9 C 23,9 C 17,8 C 85 % 1009,9 hPa 0,0 l/m 11,9 km/h (2 Bft) SW 234 0 min 0,000 mm 0,0 UV-I 0 W/m 15,3 C 15,6 C 17,7 km/h (3 Bft) 93,10 %
22.07.2018 01:06 17,9 C 23,9 C 17,8 C 85 % 1009,9 hPa 0,0 l/m 14,9 km/h (3 Bft) W 273 0 min 0,000 mm 0,0 UV-I 0 W/m 15,3 C 14,7 C 19,3 km/h (3 Bft) 92,31 %
22.07.2018 01:07 17,9 C 23,9 C 17,8 C 85 % 1009,8 hPa 0,0 l/m 11,5 km/h (2 Bft) W-SW 257 0 min 0,000 mm 0,0 UV-I 0 W/m 15,3 C 15,8 C 16,1 km/h (3 Bft) 95,65 %
22.07.2018 01:08 17,9 C 23,9 C 17,8 C 85 % 1009,8 hPa 0,0 l/m 8,9 km/h (2 Bft) SW 221 0 min 0,000 mm 0,0 UV-I 0 W/m 15,3 C 16,8 C 11,3 km/h (2 Bft) 96,30 %
22.07.2018 01:09 17,9 C 23,9 C 17,8 C 85 % 1009,8 hPa 0,0 l/m 11,8 km/h (2 Bft) SW 220 0 min 0,000 mm 0,0 UV-I 0 W/m 15,3 C 15,7 C 16,1 km/h (3 Bft) 95,65 %
22.07.2018 01:10 17,9 C 23,9 C 17,8 C 85 % 1009,8 hPa 0,0 l/m 16,6 km/h (3 Bft) SW 219 0 min 0,000 mm 0,0 UV-I 0 W/m 15,3 C 14,3 C 22,5 km/h (4 Bft) 100,00 %
22.07.2018 01:11 17,9 C 23,9 C 17,8 C 85 % 1009,8 hPa 0,0 l/m 15,5 km/h (3 Bft) W 261 0 min 0,000 mm 0,0 UV-I 0 W/m 15,3 C 14,6 C 20,9 km/h (4 Bft) 92,86 %
22.07.2018 01:12 18,0 C 23,9 C 17,8 C 85 % 1009,8 hPa 0,0 l/m 15,6 km/h (3 Bft) W-SW 243 0 min 0,000 mm 0,0 UV-I 0 W/m 15,4 C 14,7 C 20,9 km/h (4 Bft) 100,00 %
22.07.2018 01:13 18,0 C 23,9 C 17,8 C 85 % 1009,8 hPa 0,0 l/m 16,0 km/h (3 Bft) W 270 0 min 0,000 mm 0,0 UV-I 0 W/m 15,4 C 14,6 C 20,9 km/h (4 Bft) 95,83 %
22.07.2018 01:14 18,1 C 23,9 C 17,8 C 85 % 1009,8 hPa 0,0 l/m 13,2 km/h (3 Bft) SW 227 0 min 0,000 mm 0,0 UV-I 0 W/m 15,5 C 15,5 C 24,1 km/h (4 Bft) 95,65 %
22.07.2018 01:15 18,1 C 23,9 C 17,8 C 85 % 1009,8 hPa 0,0 l/m 15,7 km/h (3 Bft) W 261 0 min 0,000 mm 0,0 UV-I 0 W/m 15,5 C 14,8 C 22,5 km/h (4 Bft) 91,67 %
22.07.2018 01:16 18,1 C 23,3 C 17,8 C 85 % 1009,8 hPa 0,0 l/m 15,3 km/h (3 Bft) W 273 0 min 0,000 mm 0,0 UV-I 0 W/m 15,5 C 14,9 C 19,3 km/h (3 Bft) 96,88 %
22.07.2018 01:17 18,1 C 23,3 C 17,8 C 85 % 1009,8 hPa 0,0 l/m 16,1 km/h (3 Bft) W-SW 244 0 min 0,000 mm 0,0 UV-I 0 W/m 15,5 C 14,7 C 25,7 km/h (4 Bft) 100,00 %
22.07.2018 01:18 18,2 C 23,3 C 17,8 C 85 % 1009,8 hPa 0,0 l/m 18,0 km/h (3 Bft) SW 225 0 min 0,000 mm 0,0 UV-I 0 W/m 15,6 C 14,3 C 22,5 km/h (4 Bft) 95,65 %
22.07.2018 01:19 18,2 C 23,3 C 17,8 C 85 % 1009,8 hPa 0,0 l/m 18,4 km/h (3 Bft) W 268 0 min 0,000 mm 0,0 UV-I 0 W/m 15,6 C 14,2 C 25,7 km/h (4 Bft) 100,00 %
22.07.2018 01:20 18,2 C 23,3 C 18,3 C 84 % 1009,8 hPa 0,0 l/m 15,4 km/h (3 Bft) SW 232 0 min 0,000 mm 0,0 UV-I 0 W/m 15,4 C 15,0 C 24,1 km/h (4 Bft) 95,65 %
22.07.2018 01:21 18,2 C 23,3 C 18,3 C 84 % 1009,7 hPa 0,0 l/m 13,7 km/h (3 Bft) W-SW 241 0 min 0,000 mm 0,0 UV-I 0 W/m 15,4 C 15,4 C 19,3 km/h (3 Bft) 100,00 %
22.07.2018 01:22 18,3 C 23,3 C 18,3 C 84 % 1009,7 hPa 0,0 l/m 15,7 km/h (3 Bft) W-SW 237 0 min 0,000 mm 0,0 UV-I 0 W/m 15,5 C 15,0 C 24,1 km/h (4 Bft) 96,15 %
22.07.2018 01:23 18,3 C 23,3 C 18,3 C 84 % 1009,7 hPa 0,0 l/m 14,4 km/h (3 Bft) W-SW 246 0 min 0,000 mm 0,0 UV-I 0 W/m 15,5 C 15,4 C 17,7 km/h (3 Bft) 100,00 %
22.07.2018 01:24 18,3 C 23,3 C 18,3 C 84 % 1009,7 hPa 0,0 l/m 13,8 km/h (3 Bft) SW 230 0 min 0,000 mm 0,0 UV-I 0 W/m 15,5 C 15,5 C 17,7 km/h (3 Bft) 88,24 %
22.07.2018 01:25 18,3 C 23,3 C 18,3 C 84 % 1009,6 hPa 0,0 l/m 14,5 km/h (3 Bft) W-SW 254 0 min 0,000 mm 0,0 UV-I 0 W/m 15,5 C 15,3 C 24,1 km/h (4 Bft) 96,30 %
22.07.2018 01:26 18,3 C 23,3 C 18,3 C 84 % 1009,6 hPa 0,0 l/m 15,8 km/h (3 Bft) W-SW 247 0 min 0,000 mm 0,0 UV-I 0 W/m 15,5 C 15,0 C 20,9 km/h (4 Bft) 100,00 %
22.07.2018 01:27 18,3 C 23,3 C 17,8 C 84 % 1009,6 hPa 0,0 l/m 20,5 km/h (4 Bft) SW 226 0 min 0,000 mm 0,0 UV-I 0 W/m 15,5 C 13,9 C 27,4 km/h (4 Bft) 100,00 %
22.07.2018 01:28 18,3 C 23,3 C 17,8 C 84 % 1009,6 hPa 0,0 l/m 15,2 km/h (3 Bft) W 260 0 min 0,000 mm 0,0 UV-I 0 W/m 15,5 C 15,1 C 22,5 km/h (4 Bft) 100,00 %
22.07.2018 01:29 18,3 C 23,3 C 17,8 C 84 % 1009,6 hPa 0,0 l/m 14,9 km/h (3 Bft) W-SW 254 0 min 0,000 mm 0,0 UV-I 0 W/m 15,5 C 15,2 C 20,9 km/h (4 Bft) 96,88 %
22.07.2018 01:30 18,3 C 23,3 C 17,8 C 84 % 1009,6 hPa 0,0 l/m 17,3 km/h (3 Bft) W-SW 242 0 min 0,000 mm 0,0 UV-I 0 W/m 15,5 C 14,6 C 29,0 km/h (5 Bft) 96,55 %
22.07.2018 01:31 18,3 C 23,3 C 17,8 C 84 % 1009,6 hPa 0,0 l/m 15,2 km/h (3 Bft) SW 232 0 min 0,000 mm 0,0 UV-I 0 W/m 15,5 C 15,1 C 22,5 km/h (4 Bft) 100,00 %
22.07.2018 01:32 18,3 C 23,3 C 17,8 C 84 % 1009,6 hPa 0,0 l/m 13,3 km/h (3 Bft) W 281 0 min 0,000 mm 0,0 UV-I 0 W/m 15,5 C 15,7 C 19,3 km/h (3 Bft) 95,65 %
22.07.2018 01:33 18,3 C 23,3 C 17,8 C 84 % 1009,6 hPa 0,0 l/m 14,4 km/h (3 Bft) W-SW 252 0 min 0,000 mm 0,0 UV-I 0 W/m 15,5 C 15,4 C 20,9 km/h (4 Bft) 100,00 %
22.07.2018 01:34 18,3 C 23,3 C 17,8 C 84 % 1009,6 hPa 0,0 l/m 18,0 km/h (3 Bft) W-SW 237 0 min 0,000 mm 0,0 UV-I 0 W/m 15,5 C 14,4 C 24,1 km/h (4 Bft) 100,00 %
22.07.2018 01:35 18,3 C 23,3 C 17,8 C 84 % 1009,6 hPa 0,0 l/m 19,0 km/h (3 Bft) W-SW 258 0 min 0,000 mm 0,0 UV-I 0 W/m 15,5 C 14,2 C 24,1 km/h (4 Bft) 100,00 %
22.07.2018 01:36 18,3 C 23,3 C 17,8 C 84 % 1009,6 hPa 0,0 l/m 18,4 km/h (3 Bft) W-SW 244 0 min 0,000 mm 0,0 UV-I 0 W/m 15,5 C 14,4 C 24,1 km/h (4 Bft) 95,65 %
22.07.2018 01:37 18,3 C 23,3 C 17,8 C 84 % 1009,6 hPa 0,0 l/m 17,2 km/h (3 Bft) W-SW 243 0 min 0,000 mm 0,0 UV-I 0 W/m 15,5 C 14,6 C 24,1 km/h (4 Bft) 100,00 %
22.07.2018 01:38 18,3 C 23,3 C 17,8 C 84 % 1009,6 hPa 0,0 l/m 13,9 km/h (3 Bft) W-SW 252 0 min 0,000 mm 0,0 UV-I 0 W/m 15,5 C 15,5 C 24,1 km/h (4 Bft) 100,00 %
22.07.2018 01:39 18,2 C 23,3 C 17,8 C 84 % 1009,6 hPa 0,0 l/m 17,0 km/h (3 Bft) W-SW 244 0 min 0,000 mm 0,0 UV-I 0 W/m 15,4 C 14,6 C 25,7 km/h (4 Bft) 100,00 %
22.07.2018 01:40 18,2 C 23,3 C 17,8 C 84 % 1009,6 hPa 0,0 l/m 17,1 km/h (3 Bft) SW 233 0 min 0,000 mm 0,0 UV-I 0 W/m 15,4 C 14,5 C 24,1 km/h (4 Bft) 100,00 %
22.07.2018 01:41 18,2 C 23,3 C 17,8 C 84 % 1009,7 hPa 0,0 l/m 13,7 km/h (3 Bft) W 271 0 min 0,000 mm 0,0 UV-I 0 W/m 15,4 C 15,4 C 17,7 km/h (3 Bft) 100,00 %
22.07.2018 01:42 18,2 C 23,3 C 17,8 C 84 % 1009,7 hPa 0,0 l/m 15,8 km/h (3 Bft) SW 227 0 min 0,000 mm 0,0 UV-I 0 W/m 15,4 C 14,9 C 24,1 km/h (4 Bft) 100,00 %
22.07.2018 01:43 18,2 C 23,3 C 17,8 C 84 % 1009,6 hPa 0,0 l/m 17,9 km/h (3 Bft) SW 234 0 min 0,000 mm 0,0 UV-I 0 W/m 15,4 C 14,3 C 25,7 km/h (4 Bft) 100,00 %
22.07.2018 01:44 18,2 C 23,3 C 17,8 C 85 % 1009,7 hPa 0,0 l/m 17,8 km/h (3 Bft) SW 223 0 min 0,000 mm 0,0 UV-I 0 W/m 15,6 C 14,4 C 24,1 km/h (4 Bft) 100,00 %
22.07.2018 01:45 18,2 C 23,3 C 17,8 C 85 % 1009,8 hPa 0,0 l/m 17,8 km/h (3 Bft) W-SW 256 0 min 0,000 mm 0,0 UV-I 0 W/m 15,6 C 14,4 C 29,0 km/h (5 Bft) 100,00 %
22.07.2018 01:46 18,2 C 23,3 C 17,8 C 85 % 1009,8 hPa 0,0 l/m 15,4 km/h (3 Bft) SW 217 0 min 0,000 mm 0,0 UV-I 0 W/m 15,6 C 15,0 C 24,1 km/h (4 Bft) 100,00 %
22.07.2018 01:47 18,2 C 23,3 C 17,8 C 85 % 1009,7 hPa 0,0 l/m 19,9 km/h (4 Bft) SW 232 0 min 0,000 mm 0,0 UV-I 0 W/m 15,6 C 13,9 C 25,7 km/h (4 Bft) 100,00 %
22.07.2018 01:48 18,2 C 23,3 C 17,8 C 85 % 1009,7 hPa 0,0 l/m 17,0 km/h (3 Bft) S 183 0 min 0,000 mm 0,0 UV-I 0 W/m 15,6 C 14,6 C 22,5 km/h (4 Bft) 100,00 %
22.07.2018 01:49 18,2 C 23,3 C 17,8 C 85 % 1009,7 hPa 0,0 l/m 18,0 km/h (3 Bft) W 263 0 min 0,000 mm 0,0 UV-I 0 W/m 15,6 C 14,3 C 29,0 km/h (5 Bft) 100,00 %
22.07.2018 01:50 18,2 C 23,3 C 17,8 C 85 % 1009,7 hPa 0,0 l/m 14,6 km/h (3 Bft) SW 227 0 min 0,000 mm 0,0 UV-I 0 W/m 15,6 C 15,2 C 22,5 km/h (4 Bft) 100,00 %
22.07.2018 01:51 18,2 C 23,3 C 17,8 C 85 % 1009,7 hPa 0,0 l/m 14,7 km/h (3 Bft) W 262 0 min 0,000 mm 0,0 UV-I 0 W/m 15,6 C 15,2 C 19,3 km/h (3 Bft) 100,00 %
22.07.2018 01:52 18,1 C 23,3 C 17,8 C 85 % 1009,7 hPa 0,0 l/m 12,0 km/h (2 Bft) SW 236 0 min 0,000 mm 0,0 UV-I 0 W/m 15,5 C 15,8 C 16,1 km/h (3 Bft) 100,00 %
22.07.2018 01:53 18,1 C 23,3 C 17,8 C 85 % 1009,7 hPa 0,0 l/m 19,7 km/h (3 Bft) W-SW 251 0 min 0,000 mm 0,0 UV-I 0 W/m 15,5 C 13,8 C 25,7 km/h (4 Bft) 100,00 %
22.07.2018 01:54 18,1 C 23,3 C 17,8 C 85 % 1009,8 hPa 0,0 l/m 12,9 km/h (3 Bft) SW 227 0 min 0,000 mm 0,0 UV-I 0 W/m 15,5 C 15,6 C 19,3 km/h (3 Bft) 100,00 %
22.07.2018 01:55 18,1 C 23,3 C 17,2 C 85 % 1009,7 hPa 0,0 l/m 14,2 km/h (3 Bft) SW 215 0 min 0,000 mm 0,0 UV-I 0 W/m 15,5 C 15,2 C 19,3 km/h (3 Bft) 96,30 %
22.07.2018 01:56 18,1 C 23,3 C 17,2 C 85 % 1009,8 hPa 0,0 l/m 17,8 km/h (3 Bft) W-SW 239 0 min 0,000 mm 0,0 UV-I 0 W/m 15,5 C 14,2 C 24,1 km/h (4 Bft) 100,00 %
22.07.2018 01:57 18,1 C 23,3 C 17,2 C 85 % 1009,7 hPa 0,0 l/m 16,3 km/h (3 Bft) W-SW 248 0 min 0,000 mm 0,0 UV-I 0 W/m 15,5 C 14,6 C 20,9 km/h (4 Bft) 100,00 %
22.07.2018 01:58 18,1 C 23,3 C 17,2 C 85 % 1009,8 hPa 0,0 l/m 14,5 km/h (3 Bft) W-SW 241 0 min 0,000 mm 0,0 UV-I 0 W/m 15,5 C 15,1 C 20,9 km/h (4 Bft) 100,00 %
22.07.2018 01:59 18,1 C 23,3 C 17,2 C 85 % 1009,7 hPa 0,0 l/m 17,4 km/h (3 Bft) W-SW 256 0 min 0,000 mm 0,0 UV-I 0 W/m 15,5 C 14,3 C 22,5 km/h (4 Bft) 100,00 %
22.07.2018 02:00 18,0 C 23,3 C 17,2 C 86 % 1009,8 hPa 0,0 l/m 14,2 km/h (3 Bft) SW 227 0 min 0,026 mm 0,0 UV-I 0 W/m 15,6 C 15,1 C 20,9 km/h (4 Bft) 100,00 %
22.07.2018 02:01 18,0 C 23,3 C 17,2 C 86 % 1009,7 hPa 0,0 l/m 17,2 km/h (3 Bft) W 261 0 min 0,000 mm 0,0 UV-I 0 W/m 15,6 C 14,3 C 24,1 km/h (4 Bft) 100,00 %
22.07.2018 02:03 17,9 C 23,3 C 17,2 C 86 % 1009,7 hPa 0,0 l/m 17,1 km/h (3 Bft) W-SW 251 0 min 0,000 mm 0,0 UV-I 0 W/m 15,5 C 14,2 C 27,4 km/h (4 Bft) 96,55 %
22.07.2018 02:04 17,9 C 23,3 C 17,2 C 86 % 1009,7 hPa 0,0 l/m 17,3 km/h (3 Bft) W-SW 244 0 min 0,000 mm 0,0 UV-I 0 W/m 15,5 C 14,1 C 25,7 km/h (4 Bft) 100,00 %
22.07.2018 02:05 17,9 C 23,3 C 17,2 C 86 % 1009,7 hPa 0,0 l/m 16,8 km/h (3 Bft) SW 223 0 min 0,000 mm 0,0 UV-I 0 W/m 15,5 C 14,2 C 19,3 km/h (3 Bft) 100,00 %
22.07.2018 02:06 17,9 C 23,3 C 17,2 C 86 % 1009,7 hPa 0,0 l/m 15,4 km/h (3 Bft) W-SW 254 0 min 0,000 mm 0,0 UV-I 0 W/m 15,5 C 14,6 C 24,1 km/h (4 Bft) 96,15 %
22.07.2018 02:07 17,9 C 23,3 C 17,2 C 86 % 1009,6 hPa 0,0 l/m 16,6 km/h (3 Bft) W-SW 251 0 min 0,000 mm 0,0 UV-I 0 W/m 15,5 C 14,3 C 29,0 km/h (5 Bft) 100,00 %
22.07.2018 02:08 17,9 C 23,3 C 17,2 C 86 % 1009,7 hPa 0,0 l/m 25,5 km/h (4 Bft) W-SW 253 0 min 0,000 mm 0,0 UV-I 0 W/m 15,5 C 12,5 C 37,0 km/h (5 Bft) 100,00 %
22.07.2018 02:09 17,9 C 23,3 C 17,2 C 86 % 1009,6 hPa 0,0 l/m 19,7 km/h (3 Bft) W-SW 240 0 min 0,000 mm 0,0 UV-I 0 W/m 15,5 C 13,6 C 27,4 km/h (4 Bft) 100,00 %
22.07.2018 02:10 17,9 C 23,3 C 17,2 C 86 % 1009,6 hPa 0,0 l/m 13,5 km/h (3 Bft) W-SW 239 0 min 0,000 mm 0,0 UV-I 0 W/m 15,5 C 15,1 C 19,3 km/h (3 Bft) 100,00 %
22.07.2018 02:11 17,9 C 23,3 C 17,2 C 86 % 1009,6 hPa 0,0 l/m 14,3 km/h (3 Bft) W-SW 242 0 min 0,000 mm 0,0 UV-I 0 W/m 15,5 C 14,9 C 19,3 km/h (3 Bft) 100,00 %
22.07.2018 02:12 17,9 C 23,3 C 17,2 C 86 % 1009,7 hPa 0,0 l/m 16,2 km/h (3 Bft) SW 219 0 min 0,000 mm 0,0 UV-I 0 W/m 15,5 C 14,4 C 22,5 km/h (4 Bft) 100,00 %
22.07.2018 02:13 17,9 C 23,3 C 17,2 C 86 % 1009,7 hPa 0,0 l/m 16,3 km/h (3 Bft) SW 228 0 min 0,000 mm 0,0 UV-I 0 W/m 15,5 C 14,4 C 19,3 km/h (3 Bft) 100,00 %
22.07.2018 02:14 17,9 C 23,3 C 17,2 C 86 % 1009,6 hPa 0,0 l/m 17,2 km/h (3 Bft) SW 230 0 min 0,000 mm 0,0 UV-I 0 W/m 15,5 C 14,1 C 22,5 km/h (4 Bft) 100,00 %
22.07.2018 02:15 17,9 C 23,3 C 17,2 C 86 % 1009,7 hPa 0,0 l/m 16,1 km/h (3 Bft) SW 227 0 min 0,000 mm 0,0 UV-I 0 W/m 15,5 C 14,4 C 20,9 km/h (4 Bft) 96,15 %
22.07.2018 02:16 17,9 C 23,3 C 17,2 C 86 % 1009,7 hPa 0,0 l/m 19,3 km/h (3 Bft) SW 228 0 min 0,000 mm 0,0 UV-I 0 W/m 15,5 C 13,6 C 24,1 km/h (4 Bft) 100,00 %
22.07.2018 02:17 17,9 C 23,3 C 17,2 C 86 % 1009,7 hPa 0,0 l/m 17,6 km/h (3 Bft) SW 215 0 min 0,000 mm 0,0 UV-I 0 W/m 15,5 C 14,0 C 24,1 km/h (4 Bft) 96,15 %
22.07.2018 02:18 17,9 C 23,3 C 17,2 C 86 % 1009,7 hPa 0,0 l/m 16,7 km/h (3 Bft) SW 226 0 min 0,000 mm 0,0 UV-I 0 W/m 15,5 C 14,3 C 24,1 km/h (4 Bft) 100,00 %
22.07.2018 02:19 17,9 C 23,3 C 17,2 C 86 % 1009,7 hPa 0,0 l/m 18,5 km/h (3 Bft) W-SW 242 0 min 0,000 mm 0,0 UV-I 0 W/m 15,5 C 13,8 C 24,1 km/h (4 Bft) 96,15 %
22.07.2018 02:20 17,9 C 23,3 C 17,2 C 86 % 1009,7 hPa 0,0 l/m 15,4 km/h (3 Bft) SW 236 0 min 0,000 mm 0,0 UV-I 0 W/m 15,5 C 14,6 C 25,7 km/h (4 Bft) 100,00 %
22.07.2018 02:21 17,9 C 23,3 C 17,2 C 86 % 1009,7 hPa 0,0 l/m 16,6 km/h (3 Bft) SW 220 0 min 0,000 mm 0,0 UV-I 0 W/m 15,5 C 14,3 C 22,5 km/h (4 Bft) 96,15 %
22.07.2018 02:22 17,9 C 23,3 C 17,2 C 86 % 1009,7 hPa 0,0 l/m 17,4 km/h (3 Bft) W 269 0 min 0,000 mm 0,0 UV-I 0 W/m 15,5 C 14,1 C 22,5 km/h (4 Bft) 96,67 %
22.07.2018 02:23 17,9 C 23,3 C 17,2 C 86 % 1009,7 hPa 0,0 l/m 13,7 km/h (3 Bft) W-SW 251 0 min 0,000 mm 0,0 UV-I 0 W/m 15,5 C 15,1 C 19,3 km/h (3 Bft) 97,41 %
22.07.2018 02:24 17,9 C 23,3 C 17,2 C 86 % 1009,7 hPa 0,0 l/m 17,5 km/h (3 Bft) SW 234 0 min 0,000 mm 0,0 UV-I 0 W/m 15,5 C 14,1 C 24,1 km/h (4 Bft) 97,56 %
22.07.2018 02:25 17,9 C 23,3 C 17,2 C 86 % 1009,7 hPa 0,0 l/m 19,4 km/h (3 Bft) W-SW 242 0 min 0,000 mm 0,0 UV-I 0 W/m 15,5 C 13,6 C 24,1 km/h (4 Bft) 100,00 %
22.07.2018 02:26 17,9 C 23,3 C 17,2 C 86 % 1009,7 hPa 0,0 l/m 21,0 km/h (4 Bft) W-SW 256 0 min 0,000 mm 0,0 UV-I 0 W/m 15,5 C 13,3 C 27,4 km/h (4 Bft) 95,83 %
22.07.2018 02:27 17,9 C 23,3 C 17,8 C 86 % 1009,7 hPa 0,0 l/m 16,2 km/h (3 Bft) SW 214 0 min 0,000 mm 0,0 UV-I 0 W/m 15,5 C 14,4 C 25,7 km/h (4 Bft) 100,00 %
22.07.2018 02:28 17,9 C 23,3 C 17,8 C 86 % 1009,7 hPa 0,0 l/m 17,4 km/h (3 Bft) W-SW 254 0 min 0,000 mm 0,0 UV-I 0 W/m 15,5 C 14,1 C 25,7 km/h (4 Bft) 96,67 %
22.07.2018 02:29 17,9 C 23,3 C 17,8 C 86 % 1009,7 hPa 0,0 l/m 16,5 km/h (3 Bft) W-SW 239 0 min 0,000 mm 0,0 UV-I 0 W/m 15,5 C 14,3 C 24,1 km/h (4 Bft) 100,00 %
22.07.2018 02:30 17,9 C 23,3 C 17,8 C 86 % 1009,7 hPa 0,0 l/m 19,8 km/h (3 Bft) W-SW 244 0 min 0,000 mm 0,0 UV-I 0 W/m 15,5 C 13,5 C 25,7 km/h (4 Bft) 96,15 %
22.07.2018 02:31 18,0 C 23,3 C 17,8 C 86 % 1009,6 hPa 0,0 l/m 17,6 km/h (3 Bft) SW 215 0 min 0,000 mm 0,0 UV-I 0 W/m 15,6 C 14,2 C 25,7 km/h (4 Bft) 96,15 %
22.07.2018 02:32 18,0 C 23,3 C 17,8 C 86 % 1009,7 hPa 0,0 l/m 13,7 km/h (3 Bft) W-SW 248 0 min 0,000 mm 0,0 UV-I 0 W/m 15,6 C 15,2 C 19,3 km/h (3 Bft) 92,59 %
22.07.2018 02:33 18,0 C 23,3 C 17,8 C 86 % 1009,7 hPa 0,0 l/m 10,8 km/h (2 Bft) W-SW 254 0 min 0,000 mm 0,0 UV-I 0 W/m 15,6 C 16,1 C 16,1 km/h (3 Bft) 96,15 %
22.07.2018 02:34 18,0 C 23,3 C 17,8 C 86 % 1009,6 hPa 0,0 l/m 14,8 km/h (3 Bft) SW 235 0 min 0,000 mm 0,0 UV-I 0 W/m 15,6 C 14,9 C 20,9 km/h (4 Bft) 91,67 %
22.07.2018 02:35 17,9 C 23,3 C 17,8 C 86 % 1009,7 hPa 0,0 l/m 15,8 km/h (3 Bft) W-SW 250 0 min 0,000 mm 0,0 UV-I 0 W/m 15,5 C 14,5 C 17,7 km/h (3 Bft) 100,00 %
22.07.2018 02:36 18,0 C 23,3 C 17,8 C 86 % 1009,7 hPa 0,0 l/m 13,9 km/h (3 Bft) W-SW 252 0 min 0,000 mm 0,0 UV-I 0 W/m 15,6 C 15,1 C 20,9 km/h (4 Bft) 96,15 %
22.07.2018 02:37 18,0 C 23,3 C 17,8 C 86 % 1009,7 hPa 0,0 l/m 16,8 km/h (3 Bft) W-SW 252 0 min 0,000 mm 0,0 UV-I 0 W/m 15,6 C 14,4 C 22,5 km/h (4 Bft) 97,37 %
22.07.2018 02:38 18,0 C 23,3 C 17,8 C 86 % 1009,7 hPa 0,0 l/m 20,8 km/h (4 Bft) W-SW 244 0 min 0,000 mm 0,0 UV-I 0 W/m 15,6 C 13,5 C 30,6 km/h (5 Bft) 97,73 %
22.07.2018 02:39 18,0 C 23,3 C 17,8 C 86 % 1009,7 hPa 0,0 l/m 17,2 km/h (3 Bft) W 274 0 min 0,000 mm 0,0 UV-I 0 W/m 15,6 C 14,3 C 25,7 km/h (4 Bft) 100,00 %
22.07.2018 02:40 18,0 C 23,3 C 17,8 C 86 % 1009,7 hPa 0,0 l/m 19,3 km/h (3 Bft) W-SW 240 0 min 0,000 mm 0,0 UV-I 0 W/m 15,6 C 13,8 C 27,4 km/h (4 Bft) 100,00 %
22.07.2018 02:41 18,0 C 23,3 C 17,8 C 86 % 1009,7 hPa 0,0 l/m 13,3 km/h (3 Bft) SW 234 0 min 0,000 mm 0,0 UV-I 0 W/m 15,6 C 15,3 C 19,3 km/h (3 Bft) 93,33 %
22.07.2018 02:42 18,0 C 23,3 C 17,8 C 86 % 1009,6 hPa 0,0 l/m 15,6 km/h (3 Bft) W-SW 244 0 min 0,000 mm 0,0 UV-I 0 W/m 15,6 C 14,7 C 22,5 km/h (4 Bft) 100,00 %
22.07.2018 02:43 18,0 C 23,3 C 17,8 C 86 % 1009,7 hPa 0,0 l/m 19,3 km/h (3 Bft) W-SW 251 0 min 0,000 mm 0,0 UV-I 0 W/m 15,6 C 13,8 C 29,0 km/h (5 Bft) 100,00 %
22.07.2018 02:44 18,0 C 23,3 C 17,8 C 86 % 1009,7 hPa 0,0 l/m 19,0 km/h (3 Bft) W-SW 245 0 min 0,000 mm 0,0 UV-I 0 W/m 15,6 C 13,8 C 29,0 km/h (5 Bft) 100,00 %
22.07.2018 02:45 18,0 C 23,3 C 17,8 C 86 % 1009,7 hPa 0,0 l/m 19,6 km/h (3 Bft) W-SW 242 0 min 0,000 mm 0,0 UV-I 0 W/m 15,6 C 13,7 C 29,0 km/h (5 Bft) 95,83 %
22.07.2018 02:46 18,0 C 23,3 C 17,8 C 86 % 1009,7 hPa 0,0 l/m 18,3 km/h (3 Bft) SW 220 0 min 0,000 mm 0,0 UV-I 0 W/m 15,6 C 14,0 C 24,1 km/h (4 Bft) 100,00 %
22.07.2018 02:47 18,0 C 23,3 C 17,8 C 85 % 1009,7 hPa 0,0 l/m 13,3 km/h (3 Bft) SW 229 0 min 0,000 mm 0,0 UV-I 0 W/m 15,4 C 15,3 C 17,7 km/h (3 Bft) 100,00 %
22.07.2018 02:48 18,0 C 23,3 C 17,8 C 85 % 1009,6 hPa 0,0 l/m 16,2 km/h (3 Bft) W 265 0 min 0,000 mm 0,0 UV-I 0 W/m 15,4 C 14,5 C 25,7 km/h (4 Bft) 100,00 %
22.07.2018 02:49 18,0 C 23,3 C 17,8 C 85 % 1009,6 hPa 0,0 l/m 17,1 km/h (3 Bft) SW 230 0 min 0,000 mm 0,0 UV-I 0 W/m 15,4 C 14,3 C 25,7 km/h (4 Bft) 100,00 %
22.07.2018 02:50 18,0 C 23,3 C 17,8 C 86 % 1009,6 hPa 0,0 l/m 21,1 km/h (4 Bft) W-SW 254 0 min 0,000 mm 0,0 UV-I 0 W/m 15,6 C 13,4 C 25,7 km/h (4 Bft) 96,15 %
22.07.2018 02:51 18,0 C 23,3 C 17,8 C 86 % 1009,6 hPa 0,0 l/m 17,4 km/h (3 Bft) SW 218 0 min 0,000 mm 0,0 UV-I 0 W/m 15,6 C 14,2 C 25,7 km/h (4 Bft) 93,33 %
22.07.2018 02:52 18,0 C 23,3 C 17,8 C 85 % 1009,6 hPa 0,0 l/m 16,9 km/h (3 Bft) SW 232 0 min 0,000 mm 0,0 UV-I 0 W/m 15,4 C 14,3 C 24,1 km/h (4 Bft) 100,00 %
22.07.2018 02:53 18,0 C 23,3 C 17,8 C 85 % 1009,6 hPa 0,0 l/m 17,6 km/h (3 Bft) SW 229 0 min 0,000 mm 0,0 UV-I 0 W/m 15,4 C 14,2 C 24,1 km/h (4 Bft) 95,65 %
22.07.2018 02:54 18,0 C 23,3 C 17,8 C 85 % 1009,6 hPa 0,0 l/m 21,4 km/h (4 Bft) SW 236 0 min 0,000 mm 0,0 UV-I 0 W/m 15,4 C 13,3 C 27,4 km/h (4 Bft) 100,00 %
22.07.2018 02:55 17,9 C 23,3 C 17,8 C 85 % 1009,6 hPa 0,0 l/m 24,1 km/h (4 Bft) SW 219 0 min 0,000 mm 0,0 UV-I 0 W/m 15,3 C 12,7 C 32,2 km/h (5 Bft) 95,83 %
22.07.2018 02:56 18,0 C 23,3 C 17,8 C 85 % 1009,5 hPa 0,0 l/m 16,0 km/h (3 Bft) W-SW 244 0 min 0,000 mm 0,0 UV-I 0 W/m 15,4 C 14,6 C 22,5 km/h (4 Bft) 95,83 %
22.07.2018 02:57 17,9 C 23,3 C 17,8 C 85 % 1009,5 hPa 0,0 l/m 13,6 km/h (3 Bft) SW 222 0 min 0,000 mm 0,0 UV-I 0 W/m 15,3 C 15,1 C 22,5 km/h (4 Bft) 100,00 %
22.07.2018 02:58 17,9 C 23,3 C 17,8 C 85 % 1009,5 hPa 0,0 l/m 14,9 km/h (3 Bft) SW 234 0 min 0,000 mm 0,0 UV-I 0 W/m 15,3 C 14,7 C 19,3 km/h (3 Bft) 100,00 %
22.07.2018 02:59 17,9 C 23,3 C 17,8 C 85 % 1009,5 hPa 0,0 l/m 21,6 km/h (4 Bft) W-SW 252 0 min 0,000 mm 0,0 UV-I 0 W/m 15,3 C 13,2 C 27,4 km/h (4 Bft) 91,30 %
22.07.2018 03:00 17,9 C 23,3 C 17,8 C 86 % 1009,5 hPa 0,0 l/m 13,2 km/h (3 Bft) W-SW 244 0 min 0,025 mm 0,0 UV-I 0 W/m 15,5 C 15,2 C 19,3 km/h (3 Bft) 95,83 %
22.07.2018 03:01 17,9 C 23,3 C 17,2 C 86 % 1009,5 hPa 0,0 l/m 17,4 km/h (3 Bft) W-SW 238 0 min 0,000 mm 0,0 UV-I 0 W/m 15,5 C 14,1 C 24,1 km/h (4 Bft) 100,00 %
22.07.2018 03:02 17,9 C 23,3 C 17,2 C 86 % 1009,5 hPa 0,0 l/m 17,0 km/h (3 Bft) W-SW 243 0 min 0,000 mm 0,0 UV-I 0 W/m 15,5 C 14,2 C 20,9 km/h (4 Bft) 95,83 %
22.07.2018 03:03 17,9 C 23,3 C 17,2 C 86 % 1009,5 hPa 0,0 l/m 19,2 km/h (3 Bft) SW 227 0 min 0,000 mm 0,0 UV-I 0 W/m 15,5 C 13,7 C 25,7 km/h (4 Bft) 100,00 %
22.07.2018 03:04 17,8 C 23,3 C 17,2 C 86 % 1009,5 hPa 0,0 l/m 13,1 km/h (3 Bft) SW 229 0 min 0,000 mm 0,0 UV-I 0 W/m 15,4 C 15,1 C 19,3 km/h (3 Bft) 95,83 %
22.07.2018 03:05 17,8 C 23,3 C 17,2 C 86 % 1009,5 hPa 0,0 l/m 22,2 km/h (4 Bft) SW 233 0 min 0,000 mm 0,0 UV-I 0 W/m 15,4 C 12,9 C 32,2 km/h (5 Bft) 100,00 %
22.07.2018 03:06 17,8 C 23,3 C 17,2 C 86 % 1009,5 hPa 0,0 l/m 17,4 km/h (3 Bft) W-SW 248 0 min 0,000 mm 0,0 UV-I 0 W/m 15,4 C 14,0 C 25,7 km/h (4 Bft) 96,30 %
22.07.2018 03:07 17,8 C 23,3 C 17,2 C 86 % 1009,5 hPa 0,0 l/m 16,6 km/h (3 Bft) SW 236 0 min 0,000 mm 0,0 UV-I 0 W/m 15,4 C 14,2 C 29,0 km/h (5 Bft) 100,00 %
22.07.2018 03:08 17,8 C 23,3 C 17,2 C 86 % 1009,6 hPa 0,0 l/m 14,0 km/h (3 Bft) W-SW 250 0 min 0,000 mm 0,0 UV-I 0 W/m 15,4 C 14,9 C 22,5 km/h (4 Bft) 96,55 %
22.07.2018 03:09 17,8 C 23,3 C 17,2 C 86 % 1009,5 hPa 0,0 l/m 14,2 km/h (3 Bft) SW 221 0 min 0,000 mm 0,0 UV-I 0 W/m 15,4 C 14,8 C 17,7 km/h (3 Bft) 96,15 %
22.07.2018 03:10 17,8 C 23,3 C 17,2 C 86 % 1009,5 hPa 0,0 l/m 15,0 km/h (3 Bft) W-SW 240 0 min 0,000 mm 0,0 UV-I 0 W/m 15,4 C 14,6 C 22,5 km/h (4 Bft) 100,00 %
22.07.2018 03:11 17,8 C 23,3 C 17,2 C 86 % 1009,5 hPa 0,0 l/m 19,1 km/h (3 Bft) SW 230 0 min 0,000 mm 0,0 UV-I 0 W/m 15,4 C 13,6 C 27,4 km/h (4 Bft) 91,67 %
22.07.2018 03:12 17,8 C 23,3 C 17,2 C 86 % 1009,5 hPa 0,0 l/m 15,2 km/h (3 Bft) W-SW 244 0 min 0,000 mm 0,0 UV-I 0 W/m 15,4 C 14,5 C 19,3 km/h (3 Bft) 100,00 %
22.07.2018 03:13 17,8 C 23,3 C 17,2 C 86 % 1009,5 hPa 0,0 l/m 14,6 km/h (3 Bft) W-SW 242 0 min 0,000 mm 0,0 UV-I 0 W/m 15,4 C 14,7 C 20,9 km/h (4 Bft) 95,83 %
22.07.2018 03:14 17,8 C 23,3 C 17,2 C 86 % 1009,5 hPa 0,0 l/m 17,4 km/h (3 Bft) W-SW 246 0 min 0,000 mm 0,0 UV-I 0 W/m 15,4 C 14,0 C 20,9 km/h (4 Bft) 100,00 %
22.07.2018 03:15 17,8 C 23,3 C 17,2 C 86 % 1009,5 hPa 0,0 l/m 17,2 km/h (3 Bft) SW 221 0 min 0,000 mm 0,0 UV-I 0 W/m 15,4 C 14,0 C 25,7 km/h (4 Bft) 95,83 %
22.07.2018 03:16 17,8 C 23,3 C 17,2 C 86 % 1009,5 hPa 0,0 l/m 18,1 km/h (3 Bft) W-SW 253 0 min 0,000 mm 0,0 UV-I 0 W/m 15,4 C 13,8 C 22,5 km/h (4 Bft) 100,00 %
22.07.2018 03:17 17,8 C 23,3 C 17,2 C 86 % 1009,5 hPa 0,0 l/m 13,2 km/h (3 Bft) SW 226 0 min 0,000 mm 0,0 UV-I 0 W/m 15,4 C 15,1 C 17,7 km/h (3 Bft) 96,30 %
22.07.2018 03:18 17,8 C 23,3 C 17,2 C 86 % 1009,5 hPa 0,0 l/m 16,5 km/h (3 Bft) SW 226 0 min 0,000 mm 0,0 UV-I 0 W/m 15,4 C 14,2 C 24,1 km/h (4 Bft) 96,15 %
22.07.2018 03:19 17,8 C 23,3 C 17,2 C 86 % 1009,5 hPa 0,0 l/m 13,7 km/h (3 Bft) W-SW 245 0 min 0,000 mm 0,0 UV-I 0 W/m 15,4 C 15,0 C 17,7 km/h (3 Bft) 100,00 %
22.07.2018 03:20 17,8 C 23,3 C 17,8 C 86 % 1009,5 hPa 0,0 l/m 19,5 km/h (3 Bft) SW 224 0 min 0,000 mm 0,0 UV-I 0 W/m 15,4 C 13,5 C 27,4 km/h (4 Bft) 95,65 %
22.07.2018 03:21 17,8 C 23,3 C 17,8 C 86 % 1009,5 hPa 0,0 l/m 17,0 km/h (3 Bft) W-SW 241 0 min 0,000 mm 0,0 UV-I 0 W/m 15,4 C 14,1 C 22,5 km/h (4 Bft) 100,00 %
22.07.2018 03:22 17,8 C 23,3 C 17,8 C 86 % 1009,5 hPa 0,0 l/m 14,6 km/h (3 Bft) SW 234 0 min 0,000 mm 0,0 UV-I 0 W/m 15,4 C 14,7 C 17,7 km/h (3 Bft) 95,83 %
22.07.2018 03:23 17,8 C 23,3 C 17,8 C 86 % 1009,5 hPa 0,0 l/m 20,0 km/h (4 Bft) W-SW 237 0 min 0,000 mm 0,0 UV-I 0 W/m 15,4 C 13,4 C 25,7 km/h (4 Bft) 96,55 %
22.07.2018 03:24 17,8 C 23,3 C 17,8 C 86 % 1009,5 hPa 0,0 l/m 19,5 km/h (3 Bft) SW 224 0 min 0,000 mm 0,0 UV-I 0 W/m 15,4 C 13,5 C 24,1 km/h (4 Bft) 100,00 %
22.07.2018 03:25 17,8 C 23,3 C 17,8 C 85 % 1009,5 hPa 0,0 l/m 16,3 km/h (3 Bft) W-SW 252 0 min 0,000 mm 0,0 UV-I 0 W/m 15,2 C 14,2 C 24,1 km/h (4 Bft) 100,00 %
22.07.2018 03:26 17,9 C 23,3 C 17,8 C 85 % 1009,5 hPa 0,0 l/m 16,8 km/h (3 Bft) SW 223 0 min 0,000 mm 0,0 UV-I 0 W/m 15,3 C 14,2 C 22,5 km/h (4 Bft) 100,00 %
22.07.2018 03:27 17,9 C 23,3 C 17,8 C 85 % 1009,4 hPa 0,0 l/m 14,2 km/h (3 Bft) SW 232 0 min 0,000 mm 0,0 UV-I 0 W/m 15,3 C 14,9 C 22,5 km/h (4 Bft) 95,65 %
22.07.2018 03:28 17,9 C 23,3 C 17,8 C 85 % 1009,4 hPa 0,0 l/m 22,0 km/h (4 Bft) SW 234 0 min 0,000 mm 0,0 UV-I 0 W/m 15,3 C 13,1 C 32,2 km/h (5 Bft) 100,00 %
22.07.2018 03:29 17,9 C 23,3 C 17,8 C 85 % 1009,4 hPa 0,0 l/m 13,6 km/h (3 Bft) SW 230 0 min 0,000 mm 0,0 UV-I 0 W/m 15,3 C 15,1 C 17,7 km/h (3 Bft) 94,12 %
22.07.2018 03:30 17,9 C 23,3 C 17,8 C 85 % 1009,4 hPa 0,0 l/m 17,8 km/h (3 Bft) W 277 0 min 0,000 mm 0,0 UV-I 0 W/m 15,3 C 14,0 C 25,7 km/h (4 Bft) 96,30 %
22.07.2018 03:31 17,9 C 23,3 C 17,8 C 85 % 1009,4 hPa 0,0 l/m 13,6 km/h (3 Bft) SW 223 0 min 0,000 mm 0,0 UV-I 0 W/m 15,3 C 15,1 C 22,5 km/h (4 Bft) 100,00 %
22.07.2018 03:32 17,9 C 23,3 C 17,8 C 85 % 1009,4 hPa 0,0 l/m 17,7 km/h (3 Bft) SW 227 0 min 0,000 mm 0,0 UV-I 0 W/m 15,3 C 14,0 C 22,5 km/h (4 Bft) 100,00 %
22.07.2018 03:33 17,9 C 23,3 C 17,8 C 85 % 1009,4 hPa 0,0 l/m 16,6 km/h (3 Bft) W-SW 246 0 min 0,000 mm 0,0 UV-I 0 W/m 15,3 C 14,3 C 25,7 km/h (4 Bft) 90,91 %
22.07.2018 03:34 17,8 C 23,3 C 17,8 C 85 % 1009,4 hPa 0,0 l/m 18,6 km/h (3 Bft) SW 235 0 min 0,000 mm 0,0 UV-I 0 W/m 15,2 C 13,7 C 24,1 km/h (4 Bft) 97,44 %
22.07.2018 03:35 17,8 C 23,3 C 17,8 C 85 % 1009,4 hPa 0,0 l/m 17,3 km/h (3 Bft) SW 235 0 min 0,000 mm 0,0 UV-I 0 W/m 15,2 C 14,0 C 22,5 km/h (4 Bft) 100,00 %
22.07.2018 03:36 17,8 C 23,3 C 17,8 C 85 % 1009,4 hPa 0,0 l/m 19,2 km/h (3 Bft) S-SW 200 0 min 0,000 mm 0,0 UV-I 0 W/m 15,2 C 13,5 C 27,4 km/h (4 Bft) 100,00 %
22.07.2018 03:37 17,8 C 23,3 C 17,8 C 85 % 1009,4 hPa 0,0 l/m 21,1 km/h (4 Bft) W-SW 238 0 min 0,000 mm 0,0 UV-I 0 W/m 15,2 C 13,1 C 32,2 km/h (5 Bft) 100,00 %
22.07.2018 03:38 17,8 C 23,3 C 17,8 C 85 % 1009,4 hPa 0,0 l/m 18,1 km/h (3 Bft) W 259 0 min 0,000 mm 0,0 UV-I 0 W/m 15,2 C 13,8 C 24,1 km/h (4 Bft) 100,00 %
22.07.2018 03:39 17,8 C 23,3 C 17,8 C 85 % 1009,4 hPa 0,0 l/m 18,8 km/h (3 Bft) W 269 0 min 0,000 mm 0,0 UV-I 0 W/m 15,2 C 13,6 C 27,4 km/h (4 Bft) 100,00 %
22.07.2018 03:40 17,8 C 23,3 C 17,8 C 85 % 1009,4 hPa 0,0 l/m 13,6 km/h (3 Bft) W-SW 242 0 min 0,000 mm 0,0 UV-I 0 W/m 15,2 C 15,0 C 24,1 km/h (4 Bft) 100,00 %
22.07.2018 03:41 17,8 C 23,3 C 17,8 C 85 % 1009,4 hPa 0,0 l/m 11,5 km/h (2 Bft) SW 222 0 min 0,000 mm 0,0 UV-I 0 W/m 15,2 C 15,7 C 16,1 km/h (3 Bft) 100,00 %
22.07.2018 03:42 17,8 C 23,3 C 17,8 C 86 % 1009,4 hPa 0,0 l/m 15,5 km/h (3 Bft) W-SW 252 0 min 0,000 mm 0,0 UV-I 0 W/m 15,4 C 14,4 C 20,9 km/h (4 Bft) 92,59 %
22.07.2018 03:43 17,8 C 23,3 C 17,8 C 86 % 1009,4 hPa 0,0 l/m 17,1 km/h (3 Bft) W-SW 240 0 min 0,000 mm 0,0 UV-I 0 W/m 15,4 C 14,0 C 22,5 km/h (4 Bft) 100,00 %
22.07.2018 03:44 17,8 C 23,3 C 17,8 C 86 % 1009,4 hPa 0,0 l/m 16,0 km/h (3 Bft) W-SW 246 0 min 0,000 mm 0,0 UV-I 0 W/m 15,4 C 14,3 C 22,5 km/h (4 Bft) 100,00 %
22.07.2018 03:45 17,8 C 23,3 C 17,8 C 86 % 1009,4 hPa 0,0 l/m 13,0 km/h (3 Bft) W-SW 257 0 min 0,000 mm 0,0 UV-I 0 W/m 15,4 C 15,2 C 20,9 km/h (4 Bft) 96,30 %
22.07.2018 03:46 17,8 C 23,3 C 17,8 C 86 % 1009,4 hPa 0,0 l/m 14,7 km/h (3 Bft) W-SW 238 0 min 0,000 mm 0,0 UV-I 0 W/m 15,4 C 14,7 C 22,5 km/h (4 Bft) 96,15 %
22.07.2018 03:47 17,8 C 23,3 C 17,8 C 86 % 1009,5 hPa 0,0 l/m 13,4 km/h (3 Bft) W-SW 240 0 min 0,000 mm 0,0 UV-I 0 W/m 15,4 C 15,1 C 20,9 km/h (4 Bft) 100,00 %
22.07.2018 03:48 17,8 C 23,3 C 17,8 C 86 % 1009,5 hPa 0,0 l/m 11,3 km/h (2 Bft) W-SW 253 0 min 0,000 mm 0,0 UV-I 0 W/m 15,4 C 15,7 C 17,7 km/h (3 Bft) 100,00 %
22.07.2018 03:49 17,8 C 23,3 C 17,8 C 86 % 1009,5 hPa 0,0 l/m 11,3 km/h (2 Bft) S-SW 209 0 min 0,000 mm 0,0 UV-I 0 W/m 15,4 C 15,7 C 16,1 km/h (3 Bft) 95,83 %
22.07.2018 03:50 17,8 C 23,3 C 17,8 C 86 % 1009,4 hPa 0,0 l/m 19,3 km/h (3 Bft) SW 218 0 min 0,000 mm 0,0 UV-I 0 W/m 15,4 C 13,5 C 24,1 km/h (4 Bft) 96,15 %
22.07.2018 03:51 17,8 C 23,3 C 17,8 C 86 % 1009,5 hPa 0,0 l/m 15,1 km/h (3 Bft) SW 221 0 min 0,000 mm 0,0 UV-I 0 W/m 15,4 C 14,6 C 19,3 km/h (3 Bft) 100,00 %
22.07.2018 03:52 17,8 C 23,3 C 17,8 C 86 % 1009,5 hPa 0,0 l/m 17,9 km/h (3 Bft) W-SW 250 0 min 0,000 mm 0,0 UV-I 0 W/m 15,4 C 13,8 C 24,1 km/h (4 Bft) 92,68 %
22.07.2018 03:53 17,8 C 23,3 C 17,8 C 86 % 1009,5 hPa 0,0 l/m 18,0 km/h (3 Bft) SW 223 0 min 0,000 mm 0,0 UV-I 0 W/m 15,4 C 13,8 C 24,1 km/h (4 Bft) 100,00 %
22.07.2018 03:54 17,8 C 23,3 C 17,8 C 86 % 1009,4 hPa 0,0 l/m 16,4 km/h (3 Bft) SW 234 0 min 0,000 mm 0,0 UV-I 0 W/m 15,4 C 14,2 C 25,7 km/h (4 Bft) 95,65 %
22.07.2018 03:55 17,8 C 23,3 C 17,8 C 86 % 1009,5 hPa 0,0 l/m 13,0 km/h (3 Bft) SW 217 0 min 0,000 mm 0,0 UV-I 0 W/m 15,4 C 15,2 C 19,3 km/h (3 Bft) 91,67 %
22.07.2018 03:56 17,8 C 23,3 C 17,8 C 86 % 1009,5 hPa 0,0 l/m 13,6 km/h (3 Bft) W-SW 242 0 min 0,000 mm 0,0 UV-I 0 W/m 15,4 C 15,0 C 19,3 km/h (3 Bft) 94,12 %
22.07.2018 03:57 17,8 C 23,3 C 17,8 C 86 % 1009,4 hPa 0,0 l/m 16,9 km/h (3 Bft) SW 228 0 min 0,000 mm 0,0 UV-I 0 W/m 15,4 C 14,1 C 24,1 km/h (4 Bft) 96,30 %
22.07.2018 03:58 17,8 C 23,3 C 17,8 C 86 % 1009,5 hPa 0,0 l/m 15,0 km/h (3 Bft) S-SW 212 0 min 0,000 mm 0,0 UV-I 0 W/m 15,4 C 14,6 C 19,3 km/h (3 Bft) 92,31 %
22.07.2018 03:59 17,8 C 23,3 C 17,8 C 86 % 1009,5 hPa 0,0 l/m 16,6 km/h (3 Bft) W-SW 242 0 min 0,000 mm 0,0 UV-I 0 W/m 15,4 C 14,2 C 22,5 km/h (4 Bft) 100,00 %
22.07.2018 04:00 17,8 C 23,3 C 17,8 C 86 % 1009,5 hPa 0,0 l/m 12,2 km/h (2 Bft) W 273 0 min 0,026 mm 0,0 UV-I 0 W/m 15,4 C 15,4 C 24,1 km/h (4 Bft) 93,10 %
22.07.2018 04:02 17,8 C 23,3 C 17,8 C 86 % 1009,5 hPa 0,0 l/m 18,9 km/h (3 Bft) W-SW 250 0 min 0,000 mm 0,0 UV-I 0 W/m 15,4 C 13,6 C 27,4 km/h (4 Bft) 86,36 %
22.07.2018 04:03 17,8 C 23,3 C 17,8 C 86 % 1009,5 hPa 0,0 l/m 17,7 km/h (3 Bft) SW 232 0 min 0,000 mm 0,0 UV-I 0 W/m 15,4 C 13,9 C 25,7 km/h (4 Bft) 96,15 %
22.07.2018 04:04 17,8 C 23,3 C 17,8 C 86 % 1009,5 hPa 0,0 l/m 21,2 km/h (4 Bft) W-SW 242 0 min 0,000 mm 0,0 UV-I 0 W/m 15,4 C 13,1 C 24,1 km/h (4 Bft) 95,83 %
22.07.2018 04:05 17,8 C 23,3 C 17,8 C 86 % 1009,4 hPa 0,0 l/m 19,0 km/h (3 Bft) W 263 0 min 0,000 mm 0,0 UV-I 0 W/m 15,4 C 13,6 C 25,7 km/h (4 Bft) 95,65 %
22.07.2018 04:06 17,8 C 23,3 C 17,8 C 86 % 1009,5 hPa 0,0 l/m 13,9 km/h (3 Bft) SW 221 0 min 0,000 mm 0,0 UV-I 0 W/m 15,4 C 14,9 C 20,9 km/h (4 Bft) 96,30 %
22.07.2018 04:07 17,8 C 23,3 C 17,8 C 86 % 1009,5 hPa 0,0 l/m 14,9 km/h (3 Bft) SW 235 0 min 0,000 mm 0,0 UV-I 0 W/m 15,4 C 14,6 C 20,9 km/h (4 Bft) 100,00 %
22.07.2018 04:08 17,8 C 23,3 C 17,8 C 86 % 1009,4 hPa 0,0 l/m 20,0 km/h (4 Bft) W 259 0 min 0,000 mm 0,0 UV-I 0 W/m 15,4 C 13,4 C 25,7 km/h (4 Bft) 95,83 %
22.07.2018 04:09 17,8 C 23,3 C 17,8 C 86 % 1009,4 hPa 0,0 l/m 15,0 km/h (3 Bft) W-SW 238 0 min 0,000 mm 0,0 UV-I 0 W/m 15,4 C 14,6 C 19,3 km/h (3 Bft) 92,86 %
22.07.2018 04:10 17,8 C 23,3 C 17,8 C 86 % 1009,5 hPa 0,0 l/m 17,7 km/h (3 Bft) W-SW 244 0 min 0,000 mm 0,0 UV-I 0 W/m 15,4 C 13,9 C 24,1 km/h (4 Bft) 96,30 %
22.07.2018 04:11 17,8 C 23,3 C 17,8 C 86 % 1009,4 hPa 0,0 l/m 18,0 km/h (3 Bft) W-SW 244 0 min 0,000 mm 0,0 UV-I 0 W/m 15,4 C 13,8 C 25,7 km/h (4 Bft) 96,55 %
22.07.2018 04:12 17,8 C 23,3 C 17,8 C 86 % 1009,4 hPa 0,0 l/m 17,3 km/h (3 Bft) SW 233 0 min 0,000 mm 0,0 UV-I 0 W/m 15,4 C 14,0 C 22,5 km/h (4 Bft) 100,00 %
22.07.2018 04:13 17,8 C 23,3 C 17,8 C 86 % 1009,4 hPa 0,0 l/m 12,8 km/h (3 Bft) W-SW 238 0 min 0,000 mm 0,0 UV-I 0 W/m 15,4 C 15,2 C 19,3 km/h (3 Bft) 96,88 %
22.07.2018 04:14 17,8 C 23,3 C 17,8 C 86 % 1009,4 hPa 0,0 l/m 10,9 km/h (2 Bft) W-SW 240 0 min 0,000 mm 0,0 UV-I 0 W/m 15,4 C 15,9 C 17,7 km/h (3 Bft) 100,00 %
22.07.2018 04:15 17,8 C 23,3 C 17,8 C 86 % 1009,4 hPa 0,0 l/m 15,9 km/h (3 Bft) W-SW 253 0 min 0,000 mm 0,0 UV-I 0 W/m 15,4 C 14,3 C 20,9 km/h (4 Bft) 90,91 %
22.07.2018 04:16 17,8 C 23,3 C 17,8 C 86 % 1009,4 hPa 0,0 l/m 16,7 km/h (3 Bft) W-SW 244 0 min 0,000 mm 0,0 UV-I 0 W/m 15,4 C 14,1 C 24,1 km/h (4 Bft) 100,00 %
22.07.2018 04:17 17,8 C 23,3 C 17,8 C 86 % 1009,4 hPa 0,0 l/m 14,6 km/h (3 Bft) S-SW 206 0 min 0,000 mm 0,0 UV-I 0 W/m 15,4 C 14,7 C 20,9 km/h (4 Bft) 96,55 %
22.07.2018 04:18 17,8 C 23,3 C 17,8 C 86 % 1009,4 hPa 0,0 l/m 15,2 km/h (3 Bft) SW 219 0 min 0,000 mm 0,0 UV-I 0 W/m 15,4 C 14,5 C 24,1 km/h (4 Bft) 100,00 %
22.07.2018 04:19 17,8 C 23,3 C 17,8 C 86 % 1009,4 hPa 0,0 l/m 18,8 km/h (3 Bft) SW 231 0 min 0,000 mm 0,0 UV-I 0 W/m 15,4 C 13,6 C 24,1 km/h (4 Bft) 95,65 %
22.07.2018 04:20 17,8 C 23,3 C 17,8 C 86 % 1009,4 hPa 0,0 l/m 15,8 km/h (3 Bft) W-SW 250 0 min 0,000 mm 0,0 UV-I 0 W/m 15,4 C 14,4 C 20,9 km/h (4 Bft) 100,00 %
22.07.2018 04:21 17,8 C 23,3 C 17,8 C 86 % 1009,4 hPa 0,0 l/m 18,1 km/h (3 Bft) W-SW 244 0 min 0,000 mm 0,0 UV-I 0 W/m 15,4 C 13,8 C 24,1 km/h (4 Bft) 91,67 %
22.07.2018 04:22 17,8 C 23,3 C 17,8 C 86 % 1009,4 hPa 0,0 l/m 19,8 km/h (3 Bft) W-SW 240 0 min 0,000 mm 0,0 UV-I 0 W/m 15,4 C 13,4 C 22,5 km/h (4 Bft) 100,00 %
22.07.2018 04:23 17,8 C 23,3 C 17,8 C 86 % 1009,4 hPa 0,0 l/m 15,2 km/h (3 Bft) SW 229 0 min 0,000 mm 0,0 UV-I 0 W/m 15,4 C 14,5 C 19,3 km/h (3 Bft) 96,30 %
22.07.2018 04:24 17,8 C 23,3 C 17,8 C 86 % 1009,4 hPa 0,0 l/m 14,8 km/h (3 Bft) W-SW 242 0 min 0,000 mm 0,0 UV-I 0 W/m 15,4 C 14,6 C 19,3 km/h (3 Bft) 96,15 %
22.07.2018 04:25 17,8 C 23,3 C 17,8 C 86 % 1009,4 hPa 0,0 l/m 15,6 km/h (3 Bft) W-SW 253 0 min 0,000 mm 0,0 UV-I 0 W/m 15,4 C 14,4 C 19,3 km/h (3 Bft) 100,00 %
22.07.2018 04:26 17,8 C 23,3 C 17,8 C 86 % 1009,5 hPa 0,0 l/m 16,0 km/h (3 Bft) SW 221 0 min 0,000 mm 0,0 UV-I 0 W/m 15,4 C 14,3 C 22,5 km/h (4 Bft) 92,86 %
22.07.2018 04:27 17,8 C 23,3 C 17,8 C 86 % 1009,5 hPa 0,0 l/m 17,4 km/h (3 Bft) SW 235 0 min 0,000 mm 0,0 UV-I 0 W/m 15,4 C 14,0 C 20,9 km/h (4 Bft) 100,00 %
22.07.2018 04:28 17,8 C 23,3 C 17,8 C 86 % 1009,5 hPa 0,0 l/m 15,9 km/h (3 Bft) SW 227 0 min 0,000 mm 0,0 UV-I 0 W/m 15,4 C 14,3 C 24,1 km/h (4 Bft) 96,00 %
22.07.2018 04:29 17,8 C 23,3 C 17,8 C 86 % 1009,4 hPa 0,0 l/m 14,9 km/h (3 Bft) W 273 0 min 0,000 mm 0,0 UV-I 0 W/m 15,4 C 14,6 C 24,1 km/h (4 Bft) 96,30 %
22.07.2018 04:30 17,8 C 23,3 C 17,8 C 86 % 1009,4 hPa 0,0 l/m 16,3 km/h (3 Bft) W 271 0 min 0,000 mm 0,0 UV-I 0 W/m 15,4 C 14,2 C 24,1 km/h (4 Bft) 95,65 %
22.07.2018 04:31 17,8 C 23,3 C 17,8 C 86 % 1009,4 hPa 0,0 l/m 16,8 km/h (3 Bft) SW 229 0 min 0,000 mm 0,0 UV-I 0 W/m 15,4 C 14,1 C 22,5 km/h (4 Bft) 100,00 %
22.07.2018 04:32 17,8 C 23,3 C 17,8 C 86 % 1009,4 hPa 0,0 l/m 14,3 km/h (3 Bft) SW 236 0 min 0,000 mm 0,0 UV-I 0 W/m 15,4 C 14,8 C 24,1 km/h (4 Bft) 95,65 %
22.07.2018 04:33 17,8 C 23,3 C 17,8 C 86 % 1009,4 hPa 0,0 l/m 17,4 km/h (3 Bft) W-SW 242 0 min 0,000 mm 0,0 UV-I 0 W/m 15,4 C 14,0 C 20,9 km/h (4 Bft) 100,00 %
22.07.2018 04:34 17,8 C 23,3 C 17,8 C 86 % 1009,4 hPa 0,0 l/m 20,1 km/h (4 Bft) W-SW 240 0 min 0,000 mm 0,0 UV-I 0 W/m 15,4 C 13,3 C 25,7 km/h (4 Bft) 95,65 %
22.07.2018 04:35 17,8 C 23,3 C 17,8 C 86 % 1009,4 hPa 0,0 l/m 16,6 km/h (3 Bft) W-SW 240 0 min 0,000 mm 0,0 UV-I 0 W/m 15,4 C 14,2 C 22,5 km/h (4 Bft) 96,67 %
22.07.2018 04:36 17,8 C 23,3 C 17,8 C 86 % 1009,4 hPa 0,0 l/m 13,5 km/h (3 Bft) SW 236 0 min 0,000 mm 0,0 UV-I 0 W/m 15,4 C 15,0 C 22,5 km/h (4 Bft) 95,65 %
22.07.2018 04:37 17,8 C 23,3 C 17,8 C 86 % 1009,4 hPa 0,0 l/m 13,1 km/h (3 Bft) SW 234 0 min 0,000 mm 0,0 UV-I 0 W/m 15,4 C 15,1 C 17,7 km/h (3 Bft) 94,44 %
22.07.2018 04:38 17,8 C 23,3 C 17,8 C 86 % 1009,3 hPa 0,0 l/m 16,5 km/h (3 Bft) S-SW 202 0 min 0,000 mm 0,0 UV-I 0 W/m 15,4 C 14,2 C 27,4 km/h (4 Bft) 100,00 %
22.07.2018 04:39 17,8 C 23,3 C 17,8 C 86 % 1009,4 hPa 0,0 l/m 16,9 km/h (3 Bft) SW 222 0 min 0,000 mm 0,0 UV-I 0 W/m 15,4 C 14,1 C 25,7 km/h (4 Bft) 92,31 %
22.07.2018 04:40 17,8 C 23,3 C 17,8 C 86 % 1009,4 hPa 0,0 l/m 14,6 km/h (3 Bft) SW 229 0 min 0,000 mm 0,0 UV-I 0 W/m 15,4 C 14,7 C 22,5 km/h (4 Bft) 96,30 %
22.07.2018 04:41 17,8 C 23,3 C 17,8 C 86 % 1009,3 hPa 0,0 l/m 16,9 km/h (3 Bft) W-SW 245 0 min 0,000 mm 0,0 UV-I 0 W/m 15,4 C 14,1 C 22,5 km/h (4 Bft) 92,86 %
22.07.2018 04:42 17,8 C 23,3 C 17,8 C 86 % 1009,3 hPa 0,0 l/m 15,4 km/h (3 Bft) W-SW 244 0 min 0,000 mm 0,0 UV-I 0 W/m 15,4 C 14,5 C 20,9 km/h (4 Bft) 100,00 %
22.07.2018 04:43 17,8 C 23,3 C 17,8 C 86 % 1009,4 hPa 0,0 l/m 16,4 km/h (3 Bft) W-SW 246 0 min 0,000 mm 0,0 UV-I 0 W/m 15,4 C 14,2 C 20,9 km/h (4 Bft) 96,88 %
22.07.2018 04:44 17,8 C 23,3 C 17,8 C 86 % 1009,3 hPa 0,0 l/m 15,4 km/h (3 Bft) SW 223 0 min 0,000 mm 0,0 UV-I 0 W/m 15,4 C 14,5 C 24,1 km/h (4 Bft) 100,00 %
22.07.2018 04:45 17,8 C 23,3 C 17,8 C 86 % 1009,3 hPa 0,0 l/m 19,7 km/h (3 Bft) W-SW 257 0 min 0,000 mm 0,0 UV-I 0 W/m 15,4 C 13,4 C 24,1 km/h (4 Bft) 96,15 %
22.07.2018 04:46 17,7 C 23,3 C 17,8 C 86 % 1009,4 hPa 0,0 l/m 19,6 km/h (3 Bft) W 263 0 min 0,000 mm 0,0 UV-I 0 W/m 15,3 C 13,3 C 24,1 km/h (4 Bft) 92,59 %
22.07.2018 04:47 17,7 C 23,3 C 17,8 C 86 % 1009,4 hPa 0,0 l/m 16,2 km/h (3 Bft) W-SW 238 0 min 0,000 mm 0,0 UV-I 0 W/m 15,3 C 14,1 C 19,3 km/h (3 Bft) 95,65 %
22.07.2018 04:48 17,7 C 23,3 C 17,8 C 86 % 1009,3 hPa 0,0 l/m 13,7 km/h (3 Bft) SW 234 0 min 0,000 mm 0,0 UV-I 0 W/m 15,3 C 14,8 C 24,1 km/h (4 Bft) 95,83 %
22.07.2018 04:49 17,7 C 23,3 C 17,2 C 86 % 1009,4 hPa 0,0 l/m 17,5 km/h (3 Bft) W-SW 244 0 min 0,000 mm 0,0 UV-I 0 W/m 15,3 C 13,8 C 24,1 km/h (4 Bft) 100,00 %
22.07.2018 04:50 17,7 C 23,3 C 17,2 C 86 % 1009,4 hPa 0,0 l/m 9,9 km/h (2 Bft) W-SW 244 0 min 0,000 mm 0,0 UV-I 0 W/m 15,3 C 16,1 C 12,9 km/h (3 Bft) 96,30 %
22.07.2018 04:51 17,7 C 23,3 C 17,2 C 86 % 1009,4 hPa 0,0 l/m 13,6 km/h (3 Bft) SW 219 0 min 0,000 mm 0,0 UV-I 0 W/m 15,3 C 14,9 C 20,9 km/h (4 Bft) 100,00 %
22.07.2018 04:52 17,7 C 23,3 C 17,2 C 86 % 1009,4 hPa 0,0 l/m 14,6 km/h (3 Bft) SW 215 0 min 0,000 mm 0,0 UV-I 0 W/m 15,3 C 14,6 C 16,1 km/h (3 Bft) 91,30 %
22.07.2018 04:53 17,7 C 23,3 C 17,2 C 87 % 1009,4 hPa 0,0 l/m 13,4 km/h (3 Bft) W-SW 254 0 min 0,000 mm 0,0 UV-I 0 W/m 15,5 C 14,9 C 19,3 km/h (3 Bft) 95,65 %
22.07.2018 04:54 17,7 C 23,3 C 17,2 C 87 % 1009,4 hPa 0,0 l/m 14,2 km/h (3 Bft) SW 223 0 min 0,000 mm 0,0 UV-I 0 W/m 15,5 C 14,7 C 20,9 km/h (4 Bft) 95,83 %
22.07.2018 04:55 17,7 C 23,3 C 17,2 C 87 % 1009,4 hPa 0,0 l/m 10,9 km/h (2 Bft) SW 216 0 min 0,000 mm 0,0 UV-I 0 W/m 15,5 C 15,8 C 16,1 km/h (3 Bft) 96,15 %
22.07.2018 04:56 17,7 C 23,3 C 17,2 C 87 % 1009,4 hPa 0,0 l/m 13,1 km/h (3 Bft) SW 228 0 min 0,000 mm 0,0 UV-I 0 W/m 15,5 C 15,0 C 20,9 km/h (4 Bft) 92,59 %
22.07.2018 04:57 17,6 C 23,3 C 17,2 C 87 % 1009,4 hPa 0,0 l/m 12,0 km/h (2 Bft) W 275 0 min 0,000 mm 0,0 UV-I 0 W/m 15,4 C 15,3 C 20,9 km/h (4 Bft) 92,31 %
22.07.2018 04:58 17,6 C 23,3 C 17,2 C 87 % 1009,4 hPa 0,0 l/m 13,0 km/h (3 Bft) W-SW 245 0 min 0,000 mm 0,0 UV-I 0 W/m 15,4 C 14,9 C 17,7 km/h (3 Bft) 93,33 %
22.07.2018 04:59 17,7 C 23,3 C 17,2 C 87 % 1009,4 hPa 0,0 l/m 12,0 km/h (2 Bft) SW 228 0 min 0,000 mm 0,0 UV-I 0 W/m 15,5 C 15,4 C 16,1 km/h (3 Bft) 92,59 %
22.07.2018 05:00 17,6 C 23,3 C 17,2 C 87 % 1009,4 hPa 0,0 l/m 12,6 km/h (3 Bft) W 267 0 min 0,025 mm 0,0 UV-I 0 W/m 15,4 C 15,1 C 17,7 km/h (3 Bft) 96,15 %
22.07.2018 05:01 17,6 C 23,3 C 17,2 C 87 % 1009,4 hPa 0,0 l/m 16,4 km/h (3 Bft) W-SW 250 0 min 0,000 mm 0,0 UV-I 0 W/m 15,4 C 14,0 C 25,7 km/h (4 Bft) 95,83 %
22.07.2018 05:02 17,6 C 23,3 C 17,2 C 87 % 1009,4 hPa 0,0 l/m 15,5 km/h (3 Bft) SW 232 0 min 0,000 mm 0,0 UV-I 0 W/m 15,4 C 14,2 C 22,5 km/h (4 Bft) 94,12 %
22.07.2018 05:03 17,6 C 23,3 C 17,2 C 87 % 1009,4 hPa 0,0 l/m 15,8 km/h (3 Bft) W 266 0 min 0,000 mm 0,0 UV-I 0 W/m 15,4 C 14,1 C 24,1 km/h (4 Bft) 100,00 %
22.07.2018 05:04 17,6 C 23,3 C 17,2 C 87 % 1009,4 hPa 0,0 l/m 18,0 km/h (3 Bft) W-SW 252 0 min 0,000 mm 0,0 UV-I 0 W/m 15,4 C 13,6 C 25,7 km/h (4 Bft) 95,65 %
22.07.2018 05:05 17,6 C 23,3 C 17,2 C 87 % 1009,4 hPa 0,0 l/m 15,5 km/h (3 Bft) SW 233 0 min 0,000 mm 0,0 UV-I 0 W/m 15,4 C 14,2 C 20,9 km/h (4 Bft) 100,00 %
22.07.2018 05:06 17,6 C 23,3 C 17,2 C 87 % 1009,4 hPa 0,0 l/m 15,6 km/h (3 Bft) W-SW 238 0 min 0,000 mm 0,0 UV-I 0 W/m 15,4 C 14,2 C 25,7 km/h (4 Bft) 96,15 %
22.07.2018 05:07 17,7 C 23,3 C 17,2 C 87 % 1009,4 hPa 0,0 l/m 18,5 km/h (3 Bft) SW 226 0 min 0,000 mm 0,0 UV-I 0 W/m 15,5 C 13,6 C 22,5 km/h (4 Bft) 100,00 %
22.07.2018 05:08 17,7 C 23,3 C 17,2 C 87 % 1009,4 hPa 0,0 l/m 12,6 km/h (3 Bft) W-SW 241 0 min 0,000 mm 0,0 UV-I 0 W/m 15,5 C 15,2 C 17,7 km/h (3 Bft) 96,15 %
22.07.2018 05:09 17,7 C 23,3 C 17,2 C 87 % 1009,4 hPa 0,0 l/m 12,8 km/h (3 Bft) SW 235 0 min 0,000 mm 0,0 UV-I 0 W/m 15,5 C 15,1 C 20,9 km/h (4 Bft) 95,83 %
22.07.2018 05:10 17,6 C 23,3 C 17,2 C 87 % 1009,5 hPa 0,0 l/m 16,7 km/h (3 Bft) W-SW 238 0 min 0,000 mm 0,0 UV-I 0 W/m 15,4 C 13,9 C 24,1 km/h (4 Bft) 100,00 %
22.07.2018 05:11 17,6 C 23,3 C 17,2 C 87 % 1009,4 hPa 0,0 l/m 18,2 km/h (3 Bft) S-SW 211 0 min 0,000 mm 0,0 UV-I 0 W/m 15,4 C 13,5 C 20,9 km/h (4 Bft) 93,33 %
22.07.2018 05:12 17,6 C 23,3 C 17,2 C 87 % 1009,5 hPa 0,0 l/m 12,7 km/h (3 Bft) SW 232 0 min 0,000 mm 0,0 UV-I 0 W/m 15,4 C 15,0 C 20,9 km/h (4 Bft) 96,55 %
22.07.2018 05:13 17,7 C 23,3 C 17,2 C 87 % 1009,5 hPa 0,0 l/m 16,4 km/h (3 Bft) W-SW 238 0 min 0,000 mm 0,0 UV-I 0 W/m 15,5 C 14,1 C 22,5 km/h (4 Bft) 91,67 %
22.07.2018 05:14 17,7 C 23,3 C 17,2 C 87 % 1009,5 hPa 0,0 l/m 14,2 km/h (3 Bft) SW 218 0 min 0,000 mm 0,0 UV-I 0 W/m 15,5 C 14,7 C 19,3 km/h (3 Bft) 93,10 %
22.07.2018 05:15 17,7 C 23,3 C 17,2 C 87 % 1009,5 hPa 0,0 l/m 10,8 km/h (2 Bft) SW 223 0 min 0,000 mm 0,0 UV-I 0 W/m 15,5 C 15,8 C 16,1 km/h (3 Bft) 96,30 %
22.07.2018 05:16 17,7 C 23,3 C 17,8 C 87 % 1009,5 hPa 0,0 l/m 14,9 km/h (3 Bft) SW 227 0 min 0,000 mm 0,0 UV-I 0 W/m 15,5 C 14,5 C 25,7 km/h (4 Bft) 91,30 %
22.07.2018 05:17 17,7 C 23,3 C 17,8 C 87 % 1009,5 hPa 0,0 l/m 18,5 km/h (3 Bft) W 259 0 min 0,000 mm 0,0 UV-I 0 W/m 15,5 C 13,6 C 25,7 km/h (4 Bft) 100,00 %
22.07.2018 05:18 17,7 C 23,3 C 17,8 C 87 % 1009,5 hPa 0,0 l/m 13,7 km/h (3 Bft) SW 231 0 min 0,000 mm 0,0 UV-I 0 W/m 15,5 C 14,8 C 19,3 km/h (3 Bft) 91,30 %
22.07.2018 05:19 17,7 C 22,8 C 17,8 C 87 % 1009,5 hPa 0,0 l/m 12,5 km/h (3 Bft) W 281 0 min 0,000 mm 0,0 UV-I 0 W/m 15,5 C 15,2 C 19,3 km/h (3 Bft) 100,00 %
22.07.2018 05:20 17,7 C 23,3 C 17,8 C 87 % 1009,4 hPa 0,0 l/m 17,3 km/h (3 Bft) W-SW 238 0 min 0,000 mm 0,0 UV-I 0 W/m 15,5 C 13,9 C 25,7 km/h (4 Bft) 86,67 %
22.07.2018 05:21 17,7 C 23,3 C 17,8 C 87 % 1009,4 hPa 0,0 l/m 16,8 km/h (3 Bft) W-SW 254 0 min 0,000 mm 0,0 UV-I 0 W/m 15,5 C 14,0 C 20,9 km/h (4 Bft) 100,00 %
22.07.2018 05:22 17,7 C 23,3 C 17,8 C 87 % 1009,4 hPa 0,0 l/m 15,0 km/h (3 Bft) W-SW 250 0 min 0,000 mm 0,0 UV-I 0 W/m 15,5 C 14,5 C 22,5 km/h (4 Bft) 91,67 %
22.07.2018 05:23 17,7 C 23,3 C 17,8 C 87 % 1009,4 hPa 0,0 l/m 18,6 km/h (3 Bft) W 263 0 min 0,000 mm 0,0 UV-I 0 W/m 15,5 C 13,5 C 22,5 km/h (4 Bft) 96,15 %
22.07.2018 05:24 17,7 C 23,3 C 17,8 C 87 % 1009,4 hPa 0,0 l/m 15,3 km/h (3 Bft) SW 236 0 min 0,000 mm 0,0 UV-I 0 W/m 15,5 C 14,4 C 19,3 km/h (3 Bft) 95,83 %
22.07.2018 05:25 17,7 C 23,3 C 17,8 C 87 % 1009,4 hPa 0,0 l/m 11,3 km/h (2 Bft) SW 219 0 min 0,000 mm 0,0 UV-I 0 W/m 15,5 C 15,6 C 17,7 km/h (3 Bft) 100,00 %
22.07.2018 05:26 17,7 C 23,3 C 17,8 C 86 % 1009,5 hPa 0,0 l/m 15,0 km/h (3 Bft) W-SW 248 0 min 0,000 mm 0,0 UV-I 0 W/m 15,3 C 14,5 C 25,7 km/h (4 Bft) 95,83 %
22.07.2018 05:27 17,7 C 23,3 C 17,8 C 86 % 1009,5 hPa 0,0 l/m 16,3 km/h (3 Bft) W-SW 248 0 min 0,000 mm 0,0 UV-I 0 W/m 15,3 C 14,1 C 19,3 km/h (3 Bft) 86,96 %
22.07.2018 05:28 17,7 C 23,3 C 17,8 C 87 % 1009,5 hPa 0,0 l/m 13,2 km/h (3 Bft) W 278 0 min 0,000 mm 0,0 UV-I 0 W/m 15,5 C 15,0 C 19,3 km/h (3 Bft) 100,00 %
22.07.2018 05:29 17,7 C 22,8 C 17,8 C 86 % 1009,4 hPa 0,0 l/m 13,4 km/h (3 Bft) W-SW 244 0 min 0,000 mm 0,0 UV-I 0 W/m 15,3 C 14,9 C 17,7 km/h (3 Bft) 96,55 %
22.07.2018 05:30 17,7 C 22,8 C 17,8 C 86 % 1009,5 hPa 0,0 l/m 12,4 km/h (3 Bft) SW 229 0 min 0,000 mm 0,0 UV-I 0 W/m 15,3 C 15,2 C 17,7 km/h (3 Bft) 100,00 %
22.07.2018 05:31 17,7 C 22,8 C 17,8 C 86 % 1009,4 hPa 0,0 l/m 12,6 km/h (3 Bft) W-SW 237 0 min 0,000 mm 0,0 UV-I 0 W/m 15,3 C 15,2 C 19,3 km/h (3 Bft) 91,67 %
22.07.2018 05:32 17,7 C 22,8 C 17,8 C 86 % 1009,5 hPa 0,0 l/m 15,7 km/h (3 Bft) S-SW 209 0 min 0,000 mm 0,0 UV-I 1 W/m 15,3 C 14,3 C 20,9 km/h (4 Bft) 100,00 %
22.07.2018 05:33 17,7 C 22,8 C 17,8 C 86 % 1009,5 hPa 0,0 l/m 13,6 km/h (3 Bft) W-SW 244 0 min 0,000 mm 0,0 UV-I 5 W/m 15,3 C 14,9 C 16,1 km/h (3 Bft) 97,73 %
22.07.2018 05:34 17,7 C 22,8 C 17,8 C 86 % 1009,4 hPa 0,0 l/m 10,9 km/h (2 Bft) SW 223 0 min 0,000 mm 0,0 UV-I 5 W/m 15,3 C 15,8 C 17,7 km/h (3 Bft) 100,00 %
22.07.2018 05:35 17,7 C 22,8 C 17,8 C 86 % 1009,4 hPa 0,0 l/m 11,6 km/h (2 Bft) W 267 0 min 0,000 mm 0,0 UV-I 5 W/m 15,3 C 15,5 C 20,9 km/h (4 Bft) 96,30 %
22.07.2018 05:36 17,7 C 22,8 C 17,8 C 86 % 1009,4 hPa 0,0 l/m 12,0 km/h (2 Bft) W-SW 248 0 min 0,000 mm 0,0 UV-I 5 W/m 15,3 C 15,4 C 17,7 km/h (3 Bft) 100,00 %
22.07.2018 05:37 17,7 C 23,3 C 17,8 C 87 % 1009,5 hPa 0,0 l/m 15,0 km/h (3 Bft) SW 234 0 min 0,000 mm 0,0 UV-I 5 W/m 15,5 C 14,5 C 20,9 km/h (4 Bft) 96,30 %
22.07.2018 05:38 17,7 C 23,3 C 17,8 C 87 % 1009,5 hPa 0,0 l/m 17,3 km/h (3 Bft) SW 227 0 min 0,000 mm 0,0 UV-I 5 W/m 15,5 C 13,9 C 22,5 km/h (4 Bft) 95,65 %
22.07.2018 05:39 17,7 C 23,3 C 17,8 C 87 % 1009,4 hPa 0,0 l/m 14,6 km/h (3 Bft) SW 228 0 min 0,000 mm 0,0 UV-I 5 W/m 15,5 C 14,6 C 19,3 km/h (3 Bft) 100,00 %
22.07.2018 05:40 17,7 C 22,8 C 17,8 C 86 % 1009,4 hPa 0,0 l/m 13,2 km/h (3 Bft) SW 226 0 min 0,000 mm 0,0 UV-I 5 W/m 15,3 C 15,0 C 19,3 km/h (3 Bft) 90,91 %
22.07.2018 05:41 17,7 C 22,8 C 17,8 C 87 % 1009,4 hPa 0,0 l/m 14,5 km/h (3 Bft) SW 236 0 min 0,000 mm 0,0 UV-I 5 W/m 15,5 C 14,6 C 17,7 km/h (3 Bft) 100,00 %
22.07.2018 05:42 17,7 C 22,8 C 17,8 C 87 % 1009,4 hPa 0,0 l/m 15,1 km/h (3 Bft) S-SW 194 0 min 0,000 mm 0,0 UV-I 5 W/m 15,5 C 14,4 C 19,3 km/h (3 Bft) 100,00 %
22.07.2018 05:43 17,7 C 22,8 C 17,8 C 87 % 1009,4 hPa 0,0 l/m 13,7 km/h (3 Bft) S-SW 200 0 min 0,000 mm 0,0 UV-I 5 W/m 15,5 C 14,8 C 19,3 km/h (3 Bft) 100,00 %
22.07.2018 05:44 17,7 C 22,8 C 17,2 C 87 % 1009,4 hPa 0,0 l/m 13,6 km/h (3 Bft) W 274 0 min 0,000 mm 0,0 UV-I 6 W/m 15,5 C 14,9 C 24,1 km/h (4 Bft) 100,00 %
22.07.2018 05:45 17,7 C 22,8 C 17,2 C 87 % 1009,4 hPa 0,0 l/m 13,7 km/h (3 Bft) SW 236 0 min 0,000 mm 0,0 UV-I 7 W/m 15,5 C 14,8 C 17,7 km/h (3 Bft) 93,33 %
22.07.2018 05:46 17,7 C 22,8 C 17,2 C 87 % 1009,4 hPa 0,0 l/m 10,5 km/h (2 Bft) W-SW 245 0 min 0,000 mm 0,0 UV-I 7 W/m 15,5 C 15,9 C 16,1 km/h (3 Bft) 100,00 %
22.07.2018 05:47 17,7 C 22,8 C 17,2 C 87 % 1009,4 hPa 0,0 l/m 17,8 km/h (3 Bft) SW 228 0 min 0,000 mm 0,0 UV-I 7 W/m 15,5 C 13,7 C 22,5 km/h (4 Bft) 100,00 %
22.07.2018 05:48 17,7 C 22,8 C 17,2 C 87 % 1009,3 hPa 0,0 l/m 16,9 km/h (3 Bft) SW 234 0 min 0,000 mm 0,0 UV-I 7 W/m 15,5 C 14,0 C 22,5 km/h (4 Bft) 100,00 %
22.07.2018 05:49 17,6 C 22,8 C 17,2 C 87 % 1009,4 hPa 0,0 l/m 15,4 km/h (3 Bft) SW 227 0 min 0,000 mm 0,0 UV-I 7 W/m 15,4 C 14,2 C 20,9 km/h (4 Bft) 100,00 %
22.07.2018 05:50 17,6 C 22,8 C 17,2 C 87 % 1009,4 hPa 0,0 l/m 15,6 km/h (3 Bft) W-SW 246 0 min 0,000 mm 0,0 UV-I 7 W/m 15,4 C 14,2 C 22,5 km/h (4 Bft) 100,00 %
22.07.2018 05:51 17,6 C 22,8 C 17,2 C 87 % 1009,4 hPa 0,0 l/m 17,0 km/h (3 Bft) W 265 0 min 0,000 mm 0,0 UV-I 7 W/m 15,4 C 13,8 C 20,9 km/h (4 Bft) 100,00 %
22.07.2018 05:52 17,6 C 22,8 C 17,2 C 87 % 1009,4 hPa 0,0 l/m 13,7 km/h (3 Bft) SW 227 0 min 0,000 mm 0,0 UV-I 8 W/m 15,4 C 14,7 C 17,7 km/h (3 Bft) 100,00 %
22.07.2018 05:53 17,6 C 22,8 C 17,2 C 87 % 1009,5 hPa 0,0 l/m 19,5 km/h (3 Bft) S-SW 212 0 min 0,000 mm 0,0 UV-I 9 W/m 15,4 C 13,2 C 24,1 km/h (4 Bft) 100,00 %
22.07.2018 05:54 17,6 C 22,8 C 17,2 C 87 % 1009,4 hPa 0,0 l/m 15,2 km/h (3 Bft) W 264 0 min 0,000 mm 0,0 UV-I 9 W/m 15,4 C 14,3 C 22,5 km/h (4 Bft) 100,00 %
22.07.2018 05:55 17,6 C 22,8 C 17,8 C 87 % 1009,4 hPa 0,0 l/m 14,3 km/h (3 Bft) W 263 0 min 0,000 mm 0,0 UV-I 9 W/m 15,4 C 14,5 C 20,9 km/h (4 Bft) 100,00 %
22.07.2018 05:56 17,6 C 22,8 C 17,8 C 87 % 1009,4 hPa 0,0 l/m 15,4 km/h (3 Bft) W 259 0 min 0,000 mm 0,0 UV-I 9 W/m 15,4 C 14,2 C 19,3 km/h (3 Bft) 100,00 %
22.07.2018 05:57 17,7 C 22,8 C 17,8 C 87 % 1009,4 hPa 0,0 l/m 10,5 km/h (2 Bft) W-SW 249 0 min 0,000 mm 0,0 UV-I 9 W/m 15,5 C 15,9 C 20,9 km/h (4 Bft) 100,00 %
22.07.2018 05:58 17,7 C 22,8 C 17,8 C 87 % 1009,4 hPa 0,0 l/m 19,7 km/h (3 Bft) W-SW 251 0 min 0,000 mm 0,0 UV-I 9 W/m 15,5 C 13,3 C 25,7 km/h (4 Bft) 100,00 %
22.07.2018 05:59 17,7 C 22,8 C 17,8 C 87 % 1009,4 hPa 0,0 l/m 13,5 km/h (3 Bft) SW 234 0 min 0,000 mm 0,0 UV-I 9 W/m 15,5 C 14,9 C 19,3 km/h (3 Bft) 100,00 %
22.07.2018 06:00 17,7 C 22,8 C 17,8 C 87 % 1009,4 hPa 0,0 l/m 9,7 km/h (2 Bft) SW 234 0 min 0,025 mm 0,0 UV-I 11 W/m 15,5 C 16,2 C 16,1 km/h (3 Bft) 100,00 %
22.07.2018 06:01 17,7 C 22,8 C 17,8 C 87 % 1009,4 hPa 0,0 l/m 12,1 km/h (2 Bft) W-SW 254 0 min 0,000 mm 0,0 UV-I 11 W/m 15,5 C 15,3 C 19,3 km/h (3 Bft) 100,00 %
22.07.2018 06:02 17,7 C 22,8 C 17,8 C 87 % 1009,4 hPa 0,0 l/m 13,7 km/h (3 Bft) SW 232 0 min 0,000 mm 0,0 UV-I 11 W/m 15,5 C 14,8 C 20,9 km/h (4 Bft) 100,00 %
22.07.2018 06:03 17,7 C 22,8 C 17,8 C 87 % 1009,3 hPa 0,0 l/m 13,7 km/h (3 Bft) S-SW 209 0 min 0,000 mm 0,0 UV-I 11 W/m 15,5 C 14,8 C 19,3 km/h (3 Bft) 100,00 %
22.07.2018 06:04 17,6 C 22,8 C 17,8 C 87 % 1009,4 hPa 0,0 l/m 14,2 km/h (3 Bft) W-NW 286 0 min 0,000 mm 0,0 UV-I 9 W/m 15,4 C 14,6 C 16,1 km/h (3 Bft) 100,00 %
22.07.2018 06:05 17,6 C 22,8 C 17,8 C 87 % 1009,4 hPa 0,0 l/m 13,6 km/h (3 Bft) W-SW 243 0 min 0,000 mm 0,0 UV-I 9 W/m 15,4 C 14,8 C 20,9 km/h (4 Bft) 96,15 %
22.07.2018 06:06 17,6 C 22,8 C 17,8 C 87 % 1009,4 hPa 0,0 l/m 11,8 km/h (2 Bft) W-SW 244 0 min 0,000 mm 0,0 UV-I 11 W/m 15,4 C 15,3 C 14,5 km/h (3 Bft) 95,83 %
22.07.2018 06:07 17,6 C 22,8 C 17,8 C 87 % 1009,4 hPa 0,0 l/m 13,7 km/h (3 Bft) SW 236 0 min 0,000 mm 0,0 UV-I 11 W/m 15,4 C 14,7 C 20,9 km/h (4 Bft) 100,00 %
22.07.2018 06:08 17,6 C 22,8 C 17,8 C 87 % 1009,4 hPa 0,0 l/m 15,9 km/h (3 Bft) W-SW 241 0 min 0,000 mm 0,0 UV-I 11 W/m 15,4 C 14,1 C 24,1 km/h (4 Bft) 100,00 %
22.07.2018 06:09 17,6 C 22,8 C 17,8 C 87 % 1009,4 hPa 0,0 l/m 21,8 km/h (4 Bft) SW 234 0 min 0,000 mm 0,0 UV-I 11 W/m 15,4 C 12,7 C 29,0 km/h (5 Bft) 100,00 %
22.07.2018 06:10 17,6 C 22,8 C 17,8 C 87 % 1009,4 hPa 0,0 l/m 12,7 km/h (3 Bft) SW 230 0 min 0,000 mm 0,0 UV-I 11 W/m 15,4 C 15,0 C 19,3 km/h (3 Bft) 96,30 %
22.07.2018 06:11 17,7 C 22,8 C 17,8 C 87 % 1009,4 hPa 0,0 l/m 11,0 km/h (2 Bft) W-SW 248 0 min 0,000 mm 0,0 UV-I 11 W/m 15,5 C 15,7 C 19,3 km/h (3 Bft) 100,00 %
22.07.2018 06:12 17,7 C 22,8 C 17,8 C 87 % 1009,4 hPa 0,0 l/m 16,4 km/h (3 Bft) W-SW 250 0 min 0,000 mm 0,0 UV-I 11 W/m 15,5 C 14,1 C 25,7 km/h (4 Bft) 100,00 %
22.07.2018 06:13 17,7 C 22,8 C 17,8 C 87 % 1009,4 hPa 0,0 l/m 15,4 km/h (3 Bft) W-SW 254 0 min 0,000 mm 0,0 UV-I 11 W/m 15,5 C 14,4 C 17,7 km/h (3 Bft) 100,00 %
22.07.2018 06:14 17,7 C 22,8 C 17,8 C 87 % 1009,4 hPa 0,0 l/m 13,4 km/h (3 Bft) W-SW 240 0 min 0,000 mm 0,0 UV-I 11 W/m 15,5 C 14,9 C 20,9 km/h (4 Bft) 100,00 %
22.07.2018 06:15 17,7 C 22,8 C 17,8 C 87 % 1009,4 hPa 0,0 l/m 12,9 km/h (3 Bft) W-SW 246 0 min 0,000 mm 0,0 UV-I 11 W/m 15,5 C 15,1 C 17,7 km/h (3 Bft) 100,00 %
22.07.2018 06:16 17,7 C 22,8 C 17,8 C 87 % 1009,5 hPa 0,0 l/m 12,9 km/h (3 Bft) W-SW 254 0 min 0,000 mm 0,0 UV-I 11 W/m 15,5 C 15,1 C 20,9 km/h (4 Bft) 100,00 %
22.07.2018 06:17 17,7 C 22,8 C 17,8 C 87 % 1009,5 hPa 0,0 l/m 13,6 km/h (3 Bft) W-SW 254 0 min 0,000 mm 0,0 UV-I 11 W/m 15,5 C 14,9 C 17,7 km/h (3 Bft) 100,00 %
22.07.2018 06:18 17,7 C 22,8 C 17,8 C 87 % 1009,5 hPa 0,0 l/m 18,5 km/h (3 Bft) SW 232 0 min 0,000 mm 0,0 UV-I 12 W/m 15,5 C 13,6 C 24,1 km/h (4 Bft) 92,86 %
22.07.2018 06:19 17,7 C 22,8 C 17,8 C 87 % 1009,4 hPa 0,0 l/m 11,0 km/h (2 Bft) W-SW 249 0 min 0,000 mm 0,0 UV-I 12 W/m 15,5 C 15,7 C 19,3 km/h (3 Bft) 100,00 %
22.07.2018 06:20 17,7 C 22,8 C 17,8 C 87 % 1009,5 hPa 0,0 l/m 10,5 km/h (2 Bft) W-SW 254 0 min 0,000 mm 0,0 UV-I 12 W/m 15,5 C 15,9 C 16,1 km/h (3 Bft) 100,00 %
22.07.2018 06:21 17,7 C 22,8 C 17,8 C 87 % 1009,4 hPa 0,0 l/m 14,8 km/h (3 Bft) W 273 0 min 0,000 mm 0,0 UV-I 11 W/m 15,5 C 14,5 C 20,9 km/h (4 Bft) 100,00 %
22.07.2018 06:22 17,7 C 22,8 C 17,8 C 87 % 1009,4 hPa 0,0 l/m 15,5 km/h (3 Bft) W-SW 253 0 min 0,000 mm 0,0 UV-I 11 W/m 15,5 C 14,3 C 20,9 km/h (4 Bft) 100,00 %
22.07.2018 06:23 17,7 C 22,8 C 17,8 C 87 % 1009,4 hPa 0,0 l/m 11,3 km/h (2 Bft) W-SW 244 0 min 0,000 mm 0,0 UV-I 12 W/m 15,5 C 15,6 C 16,1 km/h (3 Bft) 97,56 %
22.07.2018 06:24 17,6 C 22,8 C 17,8 C 87 % 1009,4 hPa 0,0 l/m 11,4 km/h (2 Bft) W-SW 248 0 min 0,000 mm 0,0 UV-I 12 W/m 15,4 C 15,5 C 16,1 km/h (3 Bft) 100,00 %
22.07.2018 06:25 17,6 C 22,8 C 17,8 C 87 % 1009,4 hPa 0,0 l/m 11,7 km/h (2 Bft) SW 231 0 min 0,000 mm 0,0 UV-I 12 W/m 15,4 C 15,4 C 16,1 km/h (3 Bft) 100,00 %
22.07.2018 06:26 17,6 C 22,8 C 17,8 C 87 % 1009,4 hPa 0,0 l/m 16,4 km/h (3 Bft) W 263 0 min 0,000 mm 0,0 UV-I 13 W/m 15,4 C 14,0 C 20,9 km/h (4 Bft) 100,00 %
22.07.2018 06:27 17,6 C 22,8 C 17,8 C 87 % 1009,4 hPa 0,0 l/m 15,9 km/h (3 Bft) SW 232 0 min 0,000 mm 0,0 UV-I 15 W/m 15,4 C 14,1 C 22,5 km/h (4 Bft) 100,00 %
22.07.2018 06:28 17,6 C 22,8 C 17,8 C 87 % 1009,4 hPa 0,0 l/m 12,9 km/h (3 Bft) SW 227 0 min 0,000 mm 0,0 UV-I 16 W/m 15,4 C 15,0 C 17,7 km/h (3 Bft) 100,00 %
22.07.2018 06:29 17,6 C 22,8 C 17,8 C 87 % 1009,4 hPa 0,0 l/m 9,9 km/h (2 Bft) SW 234 0 min 0,000 mm 0,0 UV-I 16 W/m 15,4 C 16,0 C 14,5 km/h (3 Bft) 95,83 %
22.07.2018 06:30 17,6 C 22,8 C 17,8 C 87 % 1009,3 hPa 0,0 l/m 13,8 km/h (3 Bft) W-SW 240 0 min 0,000 mm 0,0 UV-I 16 W/m 15,4 C 14,7 C 17,7 km/h (3 Bft) 100,00 %
22.07.2018 06:31 17,6 C 22,8 C 17,8 C 87 % 1009,3 hPa 0,0 l/m 13,1 km/h (3 Bft) SW 225 0 min 0,000 mm 0,0 UV-I 18 W/m 15,4 C 14,9 C 19,3 km/h (3 Bft) 96,15 %
22.07.2018 06:32 17,6 C 22,8 C 17,8 C 87 % 1009,3 hPa 0,0 l/m 12,6 km/h (3 Bft) W-SW 246 0 min 0,000 mm 0,0 UV-I 18 W/m 15,4 C 15,1 C 17,7 km/h (3 Bft) 100,00 %
22.07.2018 06:33 17,6 C 22,8 C 17,8 C 87 % 1009,3 hPa 0,0 l/m 15,9 km/h (3 Bft) W-SW 245 0 min 0,000 mm 0,0 UV-I 20 W/m 15,4 C 14,1 C 24,1 km/h (4 Bft) 100,00 %
22.07.2018 06:34 17,6 C 22,8 C 17,8 C 87 % 1009,3 hPa 0,0 l/m 18,3 km/h (3 Bft) W-SW 245 0 min 0,000 mm 0,0 UV-I 22 W/m 15,4 C 13,5 C 25,7 km/h (4 Bft) 100,00 %
22.07.2018 06:35 17,6 C 22,8 C 17,8 C 87 % 1009,3 hPa 0,0 l/m 12,5 km/h (3 Bft) W-SW 241 0 min 0,000 mm 0,0 UV-I 23 W/m 15,4 C 15,1 C 17,7 km/h (3 Bft) 100,00 %
22.07.2018 06:36 17,6 C 22,8 C 17,8 C 87 % 1009,3 hPa 0,0 l/m 12,3 km/h (3 Bft) W-SW 249 0 min 0,000 mm 0,0 UV-I 25 W/m 15,4 C 15,2 C 19,3 km/h (3 Bft) 100,00 %
22.07.2018 06:37 17,6 C 22,8 C 17,8 C 87 % 1009,3 hPa 0,0 l/m 13,0 km/h (3 Bft) W-SW 248 0 min 0,000 mm 0,0 UV-I 25 W/m 15,4 C 14,9 C 19,3 km/h (3 Bft) 100,00 %
22.07.2018 06:38 17,6 C 22,8 C 17,8 C 87 % 1009,3 hPa 0,0 l/m 11,5 km/h (2 Bft) W 264 0 min 0,000 mm 0,0 UV-I 26 W/m 15,4 C 15,4 C 19,3 km/h (3 Bft) 95,83 %
22.07.2018 06:39 17,6 C 22,8 C 17,8 C 88 % 1009,2 hPa 0,0 l/m 12,6 km/h (3 Bft) W-SW 244 0 min 0,000 mm 0,0 UV-I 26 W/m 15,6 C 15,1 C 17,7 km/h (3 Bft) 100,00 %
22.07.2018 06:40 17,6 C 22,8 C 17,8 C 88 % 1009,3 hPa 0,0 l/m 12,9 km/h (3 Bft) S-SW 213 0 min 0,000 mm 0,0 UV-I 26 W/m 15,6 C 15,0 C 24,1 km/h (4 Bft) 96,67 %
22.07.2018 06:41 17,6 C 22,8 C 17,8 C 88 % 1009,3 hPa 0,0 l/m 13,3 km/h (3 Bft) W 270 0 min 0,000 mm 0,0 UV-I 28 W/m 15,6 C 14,8 C 19,3 km/h (3 Bft) 100,00 %
22.07.2018 06:42 17,6 C 22,8 C 17,8 C 88 % 1009,3 hPa 0,0 l/m 11,3 km/h (2 Bft) W-SW 244 0 min 0,000 mm 0,0 UV-I 28 W/m 15,6 C 15,5 C 16,1 km/h (3 Bft) 95,83 %
22.07.2018 06:43 17,6 C 22,8 C 17,8 C 88 % 1009,3 hPa 0,0 l/m 14,9 km/h (3 Bft) W-SW 245 0 min 0,000 mm 0,0 UV-I 28 W/m 15,6 C 14,4 C 17,7 km/h (3 Bft) 100,00 %
22.07.2018 06:44 17,6 C 22,8 C 17,8 C 88 % 1009,3 hPa 0,0 l/m 12,8 km/h (3 Bft) W 263 0 min 0,000 mm 0,0 UV-I 28 W/m 15,6 C 15,0 C 17,7 km/h (3 Bft) 95,83 %
22.07.2018 06:45 17,6 C 22,8 C 17,8 C 88 % 1009,3 hPa 0,0 l/m 11,3 km/h (2 Bft) SW 233 0 min 0,000 mm 0,0 UV-I 29 W/m 15,6 C 15,5 C 14,5 km/h (3 Bft) 96,15 %
22.07.2018 06:46 17,6 C 22,8 C 17,2 C 88 % 1009,3 hPa 0,0 l/m 15,4 km/h (3 Bft) W-SW 258 0 min 0,000 mm 0,0 UV-I 30 W/m 15,6 C 14,2 C 25,7 km/h (4 Bft) 93,33 %
22.07.2018 06:47 17,6 C 22,8 C 17,2 C 88 % 1009,3 hPa 0,0 l/m 10,4 km/h (2 Bft) SW 232 0 min 0,000 mm 0,0 UV-I 30 W/m 15,6 C 15,8 C 14,5 km/h (3 Bft) 96,67 %
22.07.2018 06:48 17,6 C 22,8 C 17,8 C 88 % 1009,3 hPa 0,0 l/m 11,3 km/h (2 Bft) S-SW 205 0 min 0,000 mm 0,0 UV-I 30 W/m 15,6 C 15,5 C 16,1 km/h (3 Bft) 100,00 %
22.07.2018 06:49 17,5 C 22,8 C 17,8 C 88 % 1009,3 hPa 0,0 l/m 11,6 km/h (2 Bft) SW 233 0 min 0,000 mm 0,0 UV-I 32 W/m 15,5 C 15,3 C 16,1 km/h (3 Bft) 96,15 %
22.07.2018 06:50 17,5 C 22,8 C 17,8 C 88 % 1009,3 hPa 0,0 l/m 12,6 km/h (3 Bft) W-SW 247 0 min 0,000 mm 0,0 UV-I 32 W/m 15,5 C 15,0 C 19,3 km/h (3 Bft) 100,00 %
22.07.2018 06:51 17,6 C 22,8 C 17,8 C 88 % 1009,3 hPa 0,0 l/m 15,8 km/h (3 Bft) SW 235 0 min 0,000 mm 0,0 UV-I 32 W/m 15,6 C 14,1 C 19,3 km/h (3 Bft) 96,30 %
22.07.2018 06:52 17,6 C 22,8 C 17,8 C 88 % 1009,3 hPa 0,0 l/m 14,9 km/h (3 Bft) W-SW 252 0 min 0,000 mm 0,0 UV-I 32 W/m 15,6 C 14,4 C 20,9 km/h (4 Bft) 94,12 %
22.07.2018 06:53 17,6 C 22,8 C 17,8 C 88 % 1009,3 hPa 0,0 l/m 13,4 km/h (3 Bft) W-SW 253 0 min 0,000 mm 0,0 UV-I 32 W/m 15,6 C 14,8 C 19,3 km/h (3 Bft) 96,30 %
22.07.2018 06:54 17,5 C 22,8 C 17,8 C 88 % 1009,3 hPa 0,0 l/m 12,8 km/h (3 Bft) W-SW 247 0 min 0,000 mm 0,0 UV-I 32 W/m 15,5 C 14,9 C 17,7 km/h (3 Bft) 92,31 %
22.07.2018 06:55 17,5 C 22,8 C 17,8 C 88 % 1009,4 hPa 0,0 l/m 12,5 km/h (3 Bft) W-SW 238 0 min 0,000 mm 0,0 UV-I 32 W/m 15,5 C 15,0 C 17,7 km/h (3 Bft) 92,59 %
22.07.2018 06:56 17,5 C 22,8 C 17,8 C 88 % 1009,4 hPa 0,0 l/m 14,8 km/h (3 Bft) W-SW 238 0 min 0,000 mm 0,0 UV-I 33 W/m 15,5 C 14,3 C 22,5 km/h (4 Bft) 100,00 %
22.07.2018 06:57 17,6 C 22,8 C 17,8 C 88 % 1009,4 hPa 0,0 l/m 13,4 km/h (3 Bft) W 263 0 min 0,000 mm 0,0 UV-I 33 W/m 15,6 C 14,8 C 17,7 km/h (3 Bft) 92,59 %
22.07.2018 06:58 17,5 C 22,8 C 17,8 C 88 % 1009,4 hPa 0,0 l/m 12,3 km/h (3 Bft) W-SW 249 0 min 0,000 mm 0,0 UV-I 33 W/m 15,5 C 15,0 C 16,1 km/h (3 Bft) 95,65 %
22.07.2018 06:59 17,6 C 22,8 C 17,8 C 88 % 1009,4 hPa 0,0 l/m 11,1 km/h (2 Bft) SW 236 0 min 0,000 mm 0,0 UV-I 35 W/m 15,6 C 15,6 C 17,7 km/h (3 Bft) 91,67 %
22.07.2018 07:00 17,6 C 22,8 C 17,8 C 88 % 1009,4 hPa 0,0 l/m 11,2 km/h (2 Bft) SW 231 0 min 0,026 mm 0,0 UV-I 35 W/m 15,6 C 15,5 C 14,5 km/h (3 Bft) 93,33 %
22.07.2018 07:01 17,6 C 22,8 C 17,8 C 88 % 1009,4 hPa 0,0 l/m 13,3 km/h (3 Bft) W 267 0 min 0,000 mm 0,0 UV-I 35 W/m 15,6 C 14,8 C 16,1 km/h (3 Bft) 91,30 %
22.07.2018 07:02 17,5 C 22,8 C 17,8 C 88 % 1009,5 hPa 0,0 l/m 10,8 km/h (2 Bft) W-SW 238 0 min 0,000 mm 0,0 UV-I 36 W/m 15,5 C 15,6 C 16,1 km/h (3 Bft) 100,00 %
22.07.2018 07:03 17,6 C 22,8 C 17,8 C 88 % 1009,5 hPa 0,0 l/m 10,0 km/h (2 Bft) W 267 0 min 0,000 mm 0,0 UV-I 37 W/m 15,6 C 16,0 C 14,5 km/h (3 Bft) 93,10 %
22.07.2018 07:04 17,6 C 22,8 C 17,8 C 88 % 1009,5 hPa 0,0 l/m 12,8 km/h (3 Bft) W 278 0 min 0,000 mm 0,0 UV-I 38 W/m 15,6 C 15,0 C 16,1 km/h (3 Bft) 100,00 %
22.07.2018 07:05 17,6 C 22,8 C 17,8 C 88 % 1009,5 hPa 0,0 l/m 10,5 km/h (2 Bft) W 259 0 min 0,000 mm 0,0 UV-I 39 W/m 15,6 C 15,8 C 12,9 km/h (3 Bft) 93,75 %
22.07.2018 07:06 17,6 C 22,8 C 17,8 C 88 % 1009,6 hPa 0,0 l/m 8,8 km/h (2 Bft) W-SW 251 0 min 0,000 mm 0,0 UV-I 39 W/m 15,6 C 16,5 C 19,3 km/h (3 Bft) 95,83 %
22.07.2018 07:07 17,6 C 22,8 C 17,8 C 88 % 1009,6 hPa 0,0 l/m 10,5 km/h (2 Bft) W 267 0 min 0,000 mm 0,0 UV-I 39 W/m 15,6 C 15,8 C 14,5 km/h (3 Bft) 100,00 %
22.07.2018 07:08 17,6 C 22,8 C 17,8 C 88 % 1009,5 hPa 0,0 l/m 10,7 km/h (2 Bft) W-SW 244 0 min 0,000 mm 0,0 UV-I 40 W/m 15,6 C 15,7 C 14,5 km/h (3 Bft) 96,30 %
22.07.2018 07:09 17,6 C 22,8 C 17,8 C 88 % 1009,5 hPa 0,0 l/m 10,1 km/h (2 Bft) W-SW 250 0 min 0,000 mm 0,0 UV-I 40 W/m 15,6 C 16,0 C 14,5 km/h (3 Bft) 100,00 %
22.07.2018 07:10 17,6 C 22,8 C 17,8 C 88 % 1009,5 hPa 0,0 l/m 15,2 km/h (3 Bft) W 271 0 min 0,000 mm 0,0 UV-I 42 W/m 15,6 C 14,3 C 20,9 km/h (4 Bft) 96,30 %
22.07.2018 07:11 17,6 C 22,8 C 17,8 C 88 % 1009,5 hPa 0,0 l/m 11,9 km/h (2 Bft) W-SW 249 0 min 0,000 mm 0,0 UV-I 44 W/m 15,6 C 15,3 C 17,7 km/h (3 Bft) 96,55 %
22.07.2018 07:12 17,6 C 22,8 C 17,8 C 88 % 1009,5 hPa 0,0 l/m 15,5 km/h (3 Bft) W-SW 239 0 min 0,000 mm 0,0 UV-I 47 W/m 15,6 C 14,2 C 20,9 km/h (4 Bft) 100,00 %
22.07.2018 07:13 17,6 C 22,8 C 18,3 C 88 % 1009,5 hPa 0,0 l/m 15,2 km/h (3 Bft) W-SW 257 0 min 0,000 mm 0,0 UV-I 50 W/m 15,6 C 14,3 C 20,9 km/h (4 Bft) 95,65 %
22.07.2018 07:14 17,6 C 22,8 C 18,3 C 88 % 1009,5 hPa 0,0 l/m 13,8 km/h (3 Bft) W-SW 245 0 min 0,000 mm 0,0 UV-I 51 W/m 15,6 C 14,7 C 24,1 km/h (4 Bft) 93,33 %
22.07.2018 07:15 17,7 C 22,8 C 18,3 C 88 % 1009,5 hPa 0,0 l/m 13,0 km/h (3 Bft) W-SW 239 0 min 0,000 mm 0,0 UV-I 51 W/m 15,7 C 15,1 C 16,1 km/h (3 Bft) 96,15 %
22.07.2018 07:16 17,7 C 22,8 C 18,3 C 88 % 1009,5 hPa 0,0 l/m 13,9 km/h (3 Bft) W 265 0 min 0,000 mm 0,0 UV-I 49 W/m 15,7 C 14,8 C 22,5 km/h (4 Bft) 100,00 %
22.07.2018 07:17 17,7 C 22,8 C 18,3 C 88 % 1009,5 hPa 0,0 l/m 9,3 km/h (2 Bft) W-SW 244 0 min 0,000 mm 0,0 UV-I 48 W/m 15,7 C 16,4 C 14,5 km/h (3 Bft) 96,55 %
22.07.2018 07:18 17,7 C 22,8 C 18,3 C 88 % 1009,5 hPa 0,0 l/m 11,4 km/h (2 Bft) SW 224 0 min 0,000 mm 0,0 UV-I 47 W/m 15,7 C 15,6 C 16,1 km/h (3 Bft) 88,89 %
22.07.2018 07:19 17,7 C 22,8 C 18,3 C 88 % 1009,5 hPa 0,0 l/m 11,4 km/h (2 Bft) W-SW 244 0 min 0,000 mm 0,0 UV-I 47 W/m 15,7 C 15,6 C 14,5 km/h (3 Bft) 100,00 %
22.07.2018 07:20 17,7 C 22,8 C 18,3 C 87 % 1009,5 hPa 0,0 l/m 13,5 km/h (3 Bft) W-SW 245 0 min 0,000 mm 0,0 UV-I 46 W/m 15,5 C 14,9 C 20,9 km/h (4 Bft) 96,30 %
22.07.2018 07:21 17,7 C 22,8 C 18,3 C 87 % 1009,5 hPa 0,0 l/m 11,6 km/h (2 Bft) SW 226 0 min 0,000 mm 0,0 UV-I 46 W/m 15,5 C 15,5 C 17,7 km/h (3 Bft) 100,00 %
22.07.2018 07:22 17,7 C 22,8 C 18,3 C 87 % 1009,6 hPa 0,0 l/m 15,0 km/h (3 Bft) W-SW 255 0 min 0,000 mm 0,0 UV-I 44 W/m 15,5 C 14,5 C 19,3 km/h (3 Bft) 100,00 %
22.07.2018 07:23 17,7 C 22,8 C 18,3 C 87 % 1009,6 hPa 0,0 l/m 13,0 km/h (3 Bft) W 267 0 min 0,000 mm 0,0 UV-I 44 W/m 15,5 C 15,1 C 19,3 km/h (3 Bft) 100,00 %
22.07.2018 07:24 17,7 C 22,8 C 18,3 C 87 % 1009,6 hPa 0,0 l/m 13,7 km/h (3 Bft) SW 225 0 min 0,000 mm 0,0 UV-I 44 W/m 15,5 C 14,8 C 17,7 km/h (3 Bft) 100,00 %
22.07.2018 07:25 17,7 C 22,8 C 18,3 C 87 % 1009,6 hPa 0,0 l/m 11,5 km/h (2 Bft) W-SW 254 0 min 0,000 mm 0,0 UV-I 43 W/m 15,5 C 15,6 C 16,1 km/h (3 Bft) 100,00 %
22.07.2018 07:26 17,7 C 22,8 C 18,3 C 87 % 1009,6 hPa 0,0 l/m 12,3 km/h (3 Bft) W 264 0 min 0,000 mm 0,0 UV-I 40 W/m 15,5 C 15,3 C 22,5 km/h (4 Bft) 100,00 %
22.07.2018 07:27 17,7 C 22,8 C 18,3 C 87 % 1009,7 hPa 0,0 l/m 14,0 km/h (3 Bft) W 262 0 min 0,000 mm 0,0 UV-I 37 W/m 15,5 C 14,8 C 17,7 km/h (3 Bft) 100,00 %
22.07.2018 07:28 17,7 C 22,8 C 18,3 C 87 % 1009,7 hPa 0,0 l/m 11,1 km/h (2 Bft) W 261 0 min 0,000 mm 0,0 UV-I 35 W/m 15,5 C 15,7 C 16,1 km/h (3 Bft) 100,00 %
22.07.2018 07:29 17,7 C 22,8 C 18,3 C 87 % 1009,7 hPa 0,0 l/m 10,3 km/h (2 Bft) W-SW 254 0 min 0,000 mm 0,0 UV-I 35 W/m 15,5 C 16,0 C 19,3 km/h (3 Bft) 100,00 %
22.07.2018 07:30 17,8 C 22,8 C 18,3 C 87 % 1009,8 hPa 0,0 l/m 12,1 km/h (2 Bft) SW 222 0 min 0,000 mm 0,0 UV-I 37 W/m 15,6 C 15,5 C 14,5 km/h (3 Bft) 100,00 %
22.07.2018 07:31 17,7 C 22,8 C 18,3 C 87 % 1009,7 hPa 0,0 l/m 12,5 km/h (3 Bft) W-SW 246 0 min 0,000 mm 0,0 UV-I 36 W/m 15,5 C 15,2 C 19,3 km/h (3 Bft) 95,83 %
22.07.2018 07:32 17,8 C 22,8 C 17,8 C 87 % 1009,8 hPa 0,0 l/m 12,8 km/h (3 Bft) W 265 0 min 0,000 mm 0,0 UV-I 34 W/m 15,6 C 15,2 C 17,7 km/h (3 Bft) 100,00 %
22.07.2018 07:33 17,8 C 22,8 C 17,8 C 87 % 1009,8 hPa 0,0 l/m 12,1 km/h (2 Bft) W 259 0 min 0,000 mm 0,0 UV-I 33 W/m 15,6 C 15,5 C 14,5 km/h (3 Bft) 100,00 %
22.07.2018 07:34 17,7 C 22,8 C 17,8 C 87 % 1009,8 hPa 0,0 l/m 15,2 km/h (3 Bft) W 261 0 min 0,000 mm 0,0 UV-I 32 W/m 15,5 C 14,4 C 20,9 km/h (4 Bft) 100,00 %
22.07.2018 07:35 17,8 C 22,8 C 17,8 C 87 % 1009,8 hPa 0,0 l/m 14,7 km/h (3 Bft) W-SW 248 0 min 0,000 mm 0,0 UV-I 30 W/m 15,6 C 14,7 C 19,3 km/h (3 Bft) 100,00 %
22.07.2018 07:36 17,8 C 22,8 C 17,8 C 87 % 1009,8 hPa 0,0 l/m 15,3 km/h (3 Bft) W-SW 244 0 min 0,000 mm 0,0 UV-I 29 W/m 15,6 C 14,5 C 20,9 km/h (4 Bft) 95,65 %
22.07.2018 07:37 17,7 C 22,8 C 17,8 C 87 % 1009,8 hPa 0,0 l/m 10,9 km/h (2 Bft) W-SW 246 0 min 0,000 mm 0,0 UV-I 28 W/m 15,5 C 15,8 C 17,7 km/h (3 Bft) 100,00 %
22.07.2018 07:38 17,7 C 22,8 C 17,8 C 87 % 1009,8 hPa 0,0 l/m 9,2 km/h (2 Bft) W 261 0 min 0,000 mm 0,0 UV-I 27 W/m 15,5 C 16,4 C 11,3 km/h (2 Bft) 95,65 %
22.07.2018 07:39 17,8 C 22,8 C 17,8 C 87 % 1009,8 hPa 0,0 l/m 11,9 km/h (2 Bft) W-SW 257 0 min 0,000 mm 0,0 UV-I 26 W/m 15,6 C 15,5 C 16,1 km/h (3 Bft) 100,00 %
22.07.2018 07:40 17,8 C 22,8 C 17,8 C 87 % 1009,8 hPa 0,0 l/m 10,9 km/h (2 Bft) W-SW 253 0 min 0,000 mm 0,0 UV-I 28 W/m 15,6 C 15,9 C 19,3 km/h (3 Bft) 100,00 %
22.07.2018 07:41 17,8 C 22,8 C 17,8 C 87 % 1009,7 hPa 0,0 l/m 11,0 km/h (2 Bft) W 259 0 min 0,000 mm 0,0 UV-I 27 W/m 15,6 C 15,8 C 16,1 km/h (3 Bft) 100,00 %
22.07.2018 07:42 17,8 C 22,8 C 17,8 C 87 % 1009,8 hPa 0,0 l/m 14,8 km/h (3 Bft) W 269 0 min 0,000 mm 0,0 UV-I 23 W/m 15,6 C 14,6 C 19,3 km/h (3 Bft) 100,00 %
22.07.2018 07:43 17,8 C 22,8 C 17,8 C 87 % 1009,8 hPa 0,0 l/m 11,5 km/h (2 Bft) W 275 0 min 0,000 mm 0,0 UV-I 21 W/m 15,6 C 15,7 C 14,5 km/h (3 Bft) 100,00 %
22.07.2018 07:44 17,8 C 22,8 C 17,8 C 87 % 1009,7 hPa 0,0 l/m 15,1 km/h (3 Bft) W-SW 252 0 min 0,000 mm 0,0 UV-I 21 W/m 15,6 C 14,6 C 20,9 km/h (4 Bft) 95,83 %
22.07.2018 07:45 17,8 C 22,8 C 17,8 C 87 % 1009,7 hPa 0,0 l/m 11,3 km/h (2 Bft) W-SW 254 0 min 0,000 mm 0,0 UV-I 24 W/m 15,6 C 15,7 C 16,1 km/h (3 Bft) 96,15 %
22.07.2018 07:46 17,8 C 22,8 C 17,8 C 87 % 1009,7 hPa 0,0 l/m 11,4 km/h (2 Bft) W-SW 257 0 min 0,000 mm 0,0 UV-I 28 W/m 15,6 C 15,7 C 14,5 km/h (3 Bft) 100,00 %
22.07.2018 07:47 17,8 C 22,8 C 17,2 C 88 % 1009,7 hPa 0,0 l/m 14,3 km/h (3 Bft) SW 225 0 min 0,000 mm 0,0 UV-I 29 W/m 15,8 C 14,8 C 16,1 km/h (3 Bft) 100,00 %
22.07.2018 07:48 17,7 C 22,8 C 17,2 C 88 % 1009,8 hPa 0,0 l/m 13,0 km/h (3 Bft) W-SW 252 0 min 0,000 mm 0,0 UV-I 32 W/m 15,7 C 15,1 C 17,7 km/h (3 Bft) 100,00 %
22.07.2018 07:49 17,7 C 22,8 C 17,2 C 88 % 1009,8 hPa 0,0 l/m 15,1 km/h (3 Bft) S-SW 213 0 min 0,000 mm 0,0 UV-I 33 W/m 15,7 C 14,4 C 19,3 km/h (3 Bft) 95,65 %
22.07.2018 07:50 17,7 C 22,8 C 17,2 C 88 % 1009,7 hPa 0,0 l/m 12,8 km/h (3 Bft) W 272 0 min 0,000 mm 0,0 UV-I 33 W/m 15,7 C 15,1 C 16,1 km/h (3 Bft) 100,00 %
22.07.2018 07:51 17,7 C 22,8 C 17,2 C 88 % 1009,8 hPa 0,0 l/m 12,1 km/h (2 Bft) W-SW 240 0 min 0,000 mm 0,0 UV-I 35 W/m 15,7 C 15,3 C 19,3 km/h (3 Bft) 100,00 %
22.07.2018 07:52 17,6 C 22,8 C 16,7 C 89 % 1009,8 hPa 0,0 l/m 11,6 km/h (2 Bft) SW 231 0 min 0,000 mm 0,0 UV-I 37 W/m 15,8 C 15,4 C 22,5 km/h (4 Bft) 100,00 %
22.07.2018 07:53 17,6 C 22,8 C 16,7 C 88 % 1009,8 hPa 0,0 l/m 16,7 km/h (3 Bft) W-SW 246 0 min 0,000 mm 0,0 UV-I 39 W/m 15,6 C 13,9 C 24,1 km/h (4 Bft) 100,00 %
22.07.2018 07:54 17,6 C 22,8 C 16,7 C 89 % 1009,8 hPa 0,0 l/m 11,6 km/h (2 Bft) W-SW 258 0 min 0,000 mm 0,0 UV-I 41 W/m 15,8 C 15,4 C 14,5 km/h (3 Bft) 97,46 %
22.07.2018 07:55 17,5 C 22,8 C 16,7 C 89 % 1009,8 hPa 0,2 l/m 11,2 km/h (2 Bft) W-SW 242 0 min 0,000 mm 0,0 UV-I 44 W/m 15,7 C 15,4 C 16,1 km/h (3 Bft) 100,00 %
22.07.2018 07:56 17,5 C 22,8 C 16,7 C 89 % 1009,8 hPa 0,0 l/m 12,0 km/h (2 Bft) W-SW 253 0 min 0,000 mm 0,0 UV-I 47 W/m 15,7 C 15,2 C 16,1 km/h (3 Bft) 95,83 %
22.07.2018 07:57 17,5 C 22,8 C 16,7 C 90 % 1009,8 hPa 0,0 l/m 12,2 km/h (2 Bft) W 261 0 min 0,000 mm 0,0 UV-I 49 W/m 15,8 C 15,1 C 16,1 km/h (3 Bft) 100,00 %
22.07.2018 07:58 17,4 C 22,8 C 17,2 C 90 % 1009,9 hPa 0,0 l/m 10,9 km/h (2 Bft) W-SW 254 0 min 0,000 mm 0,0 UV-I 49 W/m 15,7 C 15,4 C 16,1 km/h (3 Bft) 95,83 %
22.07.2018 07:59 17,4 C 22,8 C 17,2 C 90 % 1009,9 hPa 0,0 l/m 10,6 km/h (2 Bft) W-SW 257 0 min 0,000 mm 0,0 UV-I 49 W/m 15,7 C 15,5 C 14,5 km/h (3 Bft) 100,00 %
22.07.2018 08:00 17,4 C 22,8 C 16,7 C 90 % 1009,8 hPa 0,2 l/m 11,9 km/h (2 Bft) W-SW 249 0 min 0,051 mm 0,0 UV-I 50 W/m 15,7 C 15,1 C 14,5 km/h (3 Bft) 96,15 %
22.07.2018 08:02 17,4 C 22,8 C 16,7 C 90 % 1009,9 hPa 0,0 l/m 12,3 km/h (3 Bft) W 267 0 min 0,000 mm 0,0 UV-I 50 W/m 15,7 C 14,9 C 17,7 km/h (3 Bft) 96,00 %
22.07.2018 08:03 17,3 C 22,8 C 16,7 C 90 % 1009,9 hPa 0,0 l/m 11,8 km/h (2 Bft) W 259 0 min 0,000 mm 0,0 UV-I 47 W/m 15,6 C 15,0 C 16,1 km/h (3 Bft) 100,00 %
22.07.2018 08:04 17,3 C 22,8 C 16,7 C 90 % 1009,9 hPa 0,2 l/m 13,4 km/h (3 Bft) W-SW 248 0 min 0,000 mm 0,0 UV-I 46 W/m 15,6 C 14,5 C 16,1 km/h (3 Bft) 97,56 %
22.07.2018 08:05 17,3 C 22,8 C 16,7 C 91 % 1009,9 hPa 0,0 l/m 17,2 km/h (3 Bft) W 263 0 min 0,000 mm 0,0 UV-I 45 W/m 15,8 C 13,4 C 24,1 km/h (4 Bft) 100,00 %
22.07.2018 08:06 17,3 C 22,8 C 16,7 C 91 % 1009,9 hPa 0,2 l/m 14,1 km/h (3 Bft) W-SW 251 0 min 0,000 mm 0,0 UV-I 45 W/m 15,8 C 14,2 C 16,1 km/h (3 Bft) 96,88 %
22.07.2018 08:07 17,3 C 22,8 C 16,7 C 91 % 1010,0 hPa 0,0 l/m 10,9 km/h (2 Bft) W-SW 250 0 min 0,000 mm 0,0 UV-I 44 W/m 15,8 C 15,3 C 12,9 km/h (3 Bft) 96,30 %
22.07.2018 08:08 17,2 C 22,8 C 16,7 C 91 % 1009,9 hPa 0,0 l/m 13,1 km/h (3 Bft) SW 234 0 min 0,000 mm 0,0 UV-I 42 W/m 15,7 C 14,4 C 17,7 km/h (3 Bft) 100,00 %
22.07.2018 08:09 17,2 C 22,8 C 16,7 C 92 % 1009,9 hPa 0,0 l/m 10,1 km/h (2 Bft) W-SW 258 0 min 0,000 mm 0,0 UV-I 40 W/m 15,9 C 15,5 C 14,5 km/h (3 Bft) 91,67 %
22.07.2018 08:10 17,2 C 22,8 C 16,7 C 92 % 1009,9 hPa 0,2 l/m 13,8 km/h (3 Bft) W-SW 246 0 min 0,000 mm 0,0 UV-I 39 W/m 15,9 C 14,2 C 19,3 km/h (3 Bft) 100,00 %
22.07.2018 08:11 17,2 C 22,8 C 16,7 C 92 % 1010,0 hPa 0,0 l/m 14,2 km/h (3 Bft) W-SW 242 0 min 0,000 mm 0,0 UV-I 36 W/m 15,9 C 14,1 C 17,7 km/h (3 Bft) 92,59 %
22.07.2018 08:12 17,2 C 22,8 C 16,7 C 92 % 1010,0 hPa 0,0 l/m 13,7 km/h (3 Bft) W 271 0 min 0,000 mm 0,0 UV-I 35 W/m 15,9 C 14,2 C 17,7 km/h (3 Bft) 100,00 %
22.07.2018 08:13 17,2 C 22,8 C 16,7 C 92 % 1010,0 hPa 0,2 l/m 11,7 km/h (2 Bft) W 262 0 min 0,000 mm 0,0 UV-I 36 W/m 15,9 C 14,9 C 16,1 km/h (3 Bft) 87,50 %
22.07.2018 08:14 17,1 C 22,8 C 16,7 C 92 % 1010,0 hPa 0,0 l/m 12,9 km/h (3 Bft) W-SW 246 0 min 0,000 mm 0,0 UV-I 37 W/m 15,8 C 14,4 C 19,3 km/h (3 Bft) 95,65 %
22.07.2018 08:15 17,1 C 22,8 C 16,7 C 92 % 1010,0 hPa 0,0 l/m 12,0 km/h (2 Bft) W 261 0 min 0,000 mm 0,0 UV-I 40 W/m 15,8 C 14,7 C 14,5 km/h (3 Bft) 92,59 %
22.07.2018 08:16 17,1 C 22,8 C 16,7 C 92 % 1010,0 hPa 0,0 l/m 11,5 km/h (2 Bft) W 265 0 min 0,000 mm 0,0 UV-I 42 W/m 15,8 C 14,9 C 14,5 km/h (3 Bft) 100,00 %
22.07.2018 08:17 17,1 C 22,8 C 16,7 C 92 % 1010,0 hPa 0,0 l/m 12,9 km/h (3 Bft) W-SW 254 0 min 0,000 mm 0,0 UV-I 43 W/m 15,8 C 14,4 C 19,3 km/h (3 Bft) 93,10 %
22.07.2018 08:18 17,1 C 22,8 C 16,7 C 92 % 1010,0 hPa 0,2 l/m 10,7 km/h (2 Bft) SW 229 0 min 0,000 mm 0,0 UV-I 46 W/m 15,8 C 15,2 C 16,1 km/h (3 Bft) 96,15 %
22.07.2018 08:19 17,1 C 22,8 C 16,7 C 92 % 1010,0 hPa 0,0 l/m 12,2 km/h (2 Bft) W-SW 244 0 min 0,000 mm 0,0 UV-I 49 W/m 15,8 C 14,6 C 16,1 km/h (3 Bft) 92,59 %
22.07.2018 08:20 17,1 C 22,8 C 16,7 C 92 % 1010,0 hPa 0,0 l/m 13,2 km/h (3 Bft) W-SW 250 0 min 0,000 mm 0,0 UV-I 51 W/m 15,8 C 14,3 C 16,1 km/h (3 Bft) 91,30 %
22.07.2018 08:21 17,1 C 22,8 C 16,7 C 92 % 1010,0 hPa 0,2 l/m 15,0 km/h (3 Bft) W 271 0 min 0,000 mm 0,0 UV-I 53 W/m 15,8 C 13,7 C 19,3 km/h (3 Bft) 100,00 %
22.07.2018 08:23 17,1 C 22,8 C 16,7 C 92 % 1010,0 hPa 0,0 l/m 15,3 km/h (3 Bft) W 273 0 min 0,000 mm 0,0 UV-I 53 W/m 15,8 C 13,6 C 20,9 km/h (4 Bft) 93,75 %
22.07.2018 08:24 17,1 C 22,8 C 16,7 C 92 % 1010,1 hPa 0,0 l/m 12,6 km/h (3 Bft) W 263 0 min 0,000 mm 0,0 UV-I 54 W/m 15,8 C 14,5 C 19,3 km/h (3 Bft) 96,67 %
22.07.2018 08:25 17,1 C 22,8 C 16,7 C 92 % 1010,0 hPa 0,0 l/m 15,3 km/h (3 Bft) W-SW 246 0 min 0,000 mm 0,0 UV-I 53 W/m 15,8 C 13,6 C 20,9 km/h (4 Bft) 95,65 %
22.07.2018 08:26 17,1 C 22,8 C 16,7 C 93 % 1010,1 hPa 0,0 l/m 16,4 km/h (3 Bft) W-NW 282 0 min 0,000 mm 0,0 UV-I 54 W/m 16,0 C 13,3 C 20,9 km/h (4 Bft) 87,50 %
22.07.2018 08:28 17,1 C 22,8 C 16,7 C 93 % 1010,1 hPa 0,2 l/m 12,9 km/h (3 Bft) W-SW 247 0 min 0,000 mm 0,0 UV-I 57 W/m 16,0 C 14,4 C 17,7 km/h (3 Bft) 96,23 %
22.07.2018 08:29 17,1 C 22,8 C 16,7 C 93 % 1010,1 hPa 0,0 l/m 11,0 km/h (2 Bft) W 271 0 min 0,000 mm 0,0 UV-I 58 W/m 16,0 C 15,1 C 16,1 km/h (3 Bft) 100,00 %
22.07.2018 08:30 17,1 C 22,8 C 16,7 C 93 % 1010,1 hPa 0,2 l/m 13,6 km/h (3 Bft) W-SW 257 0 min 0,000 mm 0,0 UV-I 58 W/m 16,0 C 14,2 C 17,7 km/h (3 Bft) 92,59 %
22.07.2018 08:31 17,0 C 22,8 C 16,7 C 93 % 1010,1 hPa 0,0 l/m 11,7 km/h (2 Bft) W-SW 242 0 min 0,000 mm 0,0 UV-I 58 W/m 15,9 C 14,7 C 16,1 km/h (3 Bft) 95,65 %
22.07.2018 08:32 17,0 C 22,8 C 16,7 C 93 % 1010,1 hPa 0,0 l/m 13,1 km/h (3 Bft) W-SW 250 0 min 0,000 mm 0,0 UV-I 58 W/m 15,9 C 14,2 C 19,3 km/h (3 Bft) 95,83 %
22.07.2018 08:33 17,0 C 22,8 C 16,7 C 93 % 1010,1 hPa 0,0 l/m 11,5 km/h (2 Bft) W-SW 238 0 min 0,000 mm 0,0 UV-I 56 W/m 15,9 C 14,8 C 16,1 km/h (3 Bft) 95,65 %
22.07.2018 08:34 17,0 C 22,8 C 16,7 C 93 % 1010,1 hPa 0,0 l/m 13,6 km/h (3 Bft) W 262 0 min 0,000 mm 0,0 UV-I 54 W/m 15,9 C 14,0 C 17,7 km/h (3 Bft) 100,00 %
22.07.2018 08:35 17,0 C 22,8 C 16,7 C 93 % 1010,1 hPa 0,2 l/m 13,1 km/h (3 Bft) W-SW 258 0 min 0,000 mm 0,0 UV-I 52 W/m 15,9 C 14,2 C 16,1 km/h (3 Bft) 96,55 %
22.07.2018 08:36 17,0 C 22,8 C 16,7 C 93 % 1010,1 hPa 0,0 l/m 13,7 km/h (3 Bft) W-SW 252 0 min 0,000 mm 0,0 UV-I 50 W/m 15,9 C 14,0 C 16,1 km/h (3 Bft) 100,00 %
22.07.2018 08:37 16,9 C 22,8 C 16,7 C 93 % 1010,2 hPa 0,2 l/m 9,8 km/h (2 Bft) W-SW 254 0 min 0,000 mm 0,0 UV-I 49 W/m 15,8 C 15,3 C 12,9 km/h (3 Bft) 96,67 %
22.07.2018 08:38 16,9 C 22,8 C 16,7 C 93 % 1010,2 hPa 0,0 l/m 13,0 km/h (3 Bft) W-NW 286 0 min 0,000 mm 0,0 UV-I 49 W/m 15,8 C 14,1 C 20,9 km/h (4 Bft) 100,00 %
22.07.2018 08:39 16,9 C 22,8 C 16,7 C 93 % 1010,1 hPa 0,0 l/m 14,5 km/h (3 Bft) W 265 0 min 0,000 mm 0,0 UV-I 49 W/m 15,8 C 13,6 C 24,1 km/h (4 Bft) 93,33 %
22.07.2018 08:40 16,9 C 22,8 C 16,7 C 93 % 1010,1 hPa 0,2 l/m 17,7 km/h (3 Bft) W 271 0 min 0,000 mm 0,0 UV-I 49 W/m 15,8 C 12,8 C 24,1 km/h (4 Bft) 93,10 %
22.07.2018 08:41 16,9 C 22,8 C 16,7 C 93 % 1010,1 hPa 0,0 l/m 14,8 km/h (3 Bft) W-SW 256 0 min 0,000 mm 0,0 UV-I 49 W/m 15,8 C 13,6 C 19,3 km/h (3 Bft) 95,83 %
22.07.2018 08:42 16,9 C 22,8 C 16,7 C 93 % 1010,1 hPa 0,2 l/m 13,8 km/h (3 Bft) W-SW 237 0 min 0,000 mm 0,0 UV-I 50 W/m 15,8 C 13,9 C 17,7 km/h (3 Bft) 95,65 %
22.07.2018 08:43 16,9 C 22,8 C 16,7 C 93 % 1010,1 hPa 0,0 l/m 13,9 km/h (3 Bft) W 261 0 min 0,000 mm 0,0 UV-I 51 W/m 15,8 C 13,8 C 20,9 km/h (4 Bft) 95,83 %
22.07.2018 08:44 16,9 C 22,8 C 16,7 C 93 % 1010,1 hPa 0,0 l/m 15,1 km/h (3 Bft) W 275 0 min 0,000 mm 0,0 UV-I 53 W/m 15,8 C 13,5 C 20,9 km/h (4 Bft) 95,65 %
22.07.2018 08:45 16,8 C 22,8 C 16,7 C 93 % 1010,1 hPa 0,2 l/m 11,4 km/h (2 Bft) W-SW 249 0 min 0,000 mm 0,0 UV-I 53 W/m 15,7 C 14,6 C 16,1 km/h (3 Bft) 100,00 %
22.07.2018 08:46 16,8 C 22,8 C 16,7 C 93 % 1010,1 hPa 0,0 l/m 10,4 km/h (2 Bft) W-SW 252 0 min 0,000 mm 0,0 UV-I 53 W/m 15,7 C 14,9 C 14,5 km/h (3 Bft) 95,65 %
22.07.2018 08:47 16,8 C 22,8 C 16,7 C 94 % 1010,1 hPa 0,2 l/m 14,6 km/h (3 Bft) W 260 0 min 0,000 mm 0,0 UV-I 53 W/m 15,8 C 13,5 C 19,3 km/h (3 Bft) 100,00 %
22.07.2018 08:48 16,8 C 22,8 C 16,7 C 94 % 1010,1 hPa 0,0 l/m 13,8 km/h (3 Bft) W 259 0 min 0,000 mm 0,0 UV-I 53 W/m 15,8 C 13,7 C 17,7 km/h (3 Bft) 95,65 %
22.07.2018 08:49 16,8 C 22,8 C 16,7 C 94 % 1010,1 hPa 0,2 l/m 12,0 km/h (2 Bft) SW 227 0 min 0,000 mm 0,0 UV-I 51 W/m 15,8 C 14,3 C 14,5 km/h (3 Bft) 100,00 %
22.07.2018 08:50 16,8 C 22,8 C 16,7 C 94 % 1010,1 hPa 0,2 l/m 10,9 km/h (2 Bft) W 268 0 min 0,000 mm 0,0 UV-I 49 W/m 15,8 C 14,8 C 17,7 km/h (3 Bft) 92,31 %
22.07.2018 08:51 16,8 C 22,8 C 16,7 C 94 % 1010,1 hPa 0,0 l/m 14,0 km/h (3 Bft) W-SW 242 0 min 0,000 mm 0,0 UV-I 47 W/m 15,8 C 13,7 C 19,3 km/h (3 Bft) 100,00 %
22.07.2018 08:53 16,8 C 22,8 C 16,7 C 94 % 1010,1 hPa 0,2 l/m 14,9 km/h (3 Bft) W 259 0 min 0,000 mm 0,0 UV-I 47 W/m 15,8 C 13,4 C 19,3 km/h (3 Bft) 92,45 %
22.07.2018 08:54 16,8 C 22,8 C 16,7 C 94 % 1010,1 hPa 0,2 l/m 11,2 km/h (2 Bft) W-SW 252 0 min 0,000 mm 0,0 UV-I 46 W/m 15,8 C 14,6 C 14,5 km/h (3 Bft) 100,00 %
22.07.2018 08:55 16,8 C 22,8 C 16,7 C 94 % 1010,1 hPa 0,0 l/m 12,2 km/h (2 Bft) W 260 0 min 0,000 mm 0,0 UV-I 46 W/m 15,8 C 14,3 C 16,1 km/h (3 Bft) 86,96 %
22.07.2018 08:56 16,8 C 22,8 C 16,7 C 94 % 1010,1 hPa 0,2 l/m 12,1 km/h (2 Bft) W 270 0 min 0,000 mm 0,0 UV-I 46 W/m 15,8 C 14,3 C 19,3 km/h (3 Bft) 100,00 %
22.07.2018 08:57 16,8 C 22,8 C 16,7 C 94 % 1010,1 hPa 0,0 l/m 12,8 km/h (3 Bft) W 264 0 min 0,000 mm 0,0 UV-I 47 W/m 15,8 C 14,1 C 17,7 km/h (3 Bft) 91,30 %
22.07.2018 08:58 16,8 C 22,8 C 16,7 C 94 % 1010,1 hPa 0,2 l/m 13,9 km/h (3 Bft) W-SW 247 0 min 0,000 mm 0,0 UV-I 47 W/m 15,8 C 13,7 C 19,3 km/h (3 Bft) 100,00 %
22.07.2018 08:59 16,8 C 22,8 C 16,7 C 94 % 1010,1 hPa 0,0 l/m 15,0 km/h (3 Bft) W-NW 284 0 min 0,000 mm 0,0 UV-I 48 W/m 15,8 C 13,4 C 19,3 km/h (3 Bft) 91,30 %
22.07.2018 09:00 16,8 C 22,8 C 16,7 C 94 % 1010,1 hPa 0,0 l/m 13,6 km/h (3 Bft) W-SW 244 0 min 0,050 mm 0,0 UV-I 49 W/m 15,8 C 13,8 C 17,7 km/h (3 Bft) 95,83 %
22.07.2018 09:02 16,8 C 22,8 C 16,7 C 94 % 1010,1 hPa 0,0 l/m 12,1 km/h (2 Bft) W-SW 253 0 min 0,000 mm 0,0 UV-I 48 W/m 15,8 C 14,3 C 17,7 km/h (3 Bft) 96,00 %
22.07.2018 09:03 16,8 C 22,8 C 16,7 C 94 % 1010,1 hPa 0,2 l/m 11,2 km/h (2 Bft) W 259 0 min 0,000 mm 0,0 UV-I 50 W/m 15,8 C 14,6 C 16,1 km/h (3 Bft) 100,00 %
22.07.2018 09:04 16,8 C 22,8 C 16,7 C 94 % 1010,1 hPa 0,0 l/m 12,7 km/h (3 Bft) W-SW 252 0 min 0,000 mm 0,0 UV-I 51 W/m 15,8 C 14,1 C 19,3 km/h (3 Bft) 95,83 %
22.07.2018 09:05 16,7 C 22,8 C 16,7 C 95 % 1010,2 hPa 0,0 l/m 12,8 km/h (3 Bft) W 269 0 min 0,000 mm 0,0 UV-I 51 W/m 15,9 C 14,0 C 17,7 km/h (3 Bft) 100,00 %
22.07.2018 09:06 16,7 C 22,8 C 16,7 C 95 % 1010,1 hPa 0,0 l/m 11,2 km/h (2 Bft) W-SW 257 0 min 0,000 mm 0,0 UV-I 50 W/m 15,9 C 14,5 C 16,1 km/h (3 Bft) 96,30 %
22.07.2018 09:07 16,7 C 22,8 C 16,7 C 95 % 1010,2 hPa 0,2 l/m 12,1 km/h (2 Bft) W-SW 258 0 min 0,000 mm 0,0 UV-I 49 W/m 15,9 C 14,2 C 14,5 km/h (3 Bft) 96,55 %
22.07.2018 09:08 16,8 C 22,8 C 16,7 C 95 % 1010,2 hPa 0,0 l/m 9,7 km/h (2 Bft) W 278 0 min 0,000 mm 0,0 UV-I 47 W/m 16,0 C 15,2 C 16,1 km/h (3 Bft) 95,83 %
22.07.2018 09:09 16,8 C 22,8 C 16,7 C 95 % 1010,2 hPa 0,0 l/m 8,9 km/h (2 Bft) W 269 0 min 0,000 mm 0,0 UV-I 46 W/m 16,0 C 15,6 C 12,9 km/h (3 Bft) 96,15 %
22.07.2018 09:10 16,8 C 22,8 C 16,7 C 95 % 1010,1 hPa 0,0 l/m 10,5 km/h (2 Bft) W 270 0 min 0,000 mm 0,0 UV-I 46 W/m 16,0 C 14,9 C 16,1 km/h (3 Bft) 100,00 %
22.07.2018 09:11 16,8 C 22,8 C 16,7 C 95 % 1010,2 hPa 0,0 l/m 9,5 km/h (2 Bft) SW 225 0 min 0,000 mm 0,0 UV-I 46 W/m 16,0 C 15,3 C 12,9 km/h (3 Bft) 95,65 %
22.07.2018 09:13 16,8 C 22,8 C 16,7 C 95 % 1010,1 hPa 0,2 l/m 12,4 km/h (3 Bft) W-SW 246 0 min 0,000 mm 0,0 UV-I 47 W/m 16,0 C 14,2 C 17,7 km/h (3 Bft) 97,56 %
22.07.2018 09:14 16,8 C 22,8 C 17,2 C 95 % 1010,2 hPa 0,2 l/m 13,1 km/h (3 Bft) W-SW 251 0 min 0,000 mm 0,0 UV-I 54 W/m 16,0 C 14,0 C 16,1 km/h (3 Bft) 100,00 %
22.07.2018 09:15 16,8 C 22,8 C 17,2 C 95 % 1010,2 hPa 0,0 l/m 14,1 km/h (3 Bft) W 261 0 min 0,000 mm 0,0 UV-I 59 W/m 16,0 C 13,6 C 17,7 km/h (3 Bft) 96,15 %
22.07.2018 09:16 16,8 C 22,8 C 17,2 C 95 % 1010,2 hPa 0,0 l/m 14,2 km/h (3 Bft) W-SW 251 0 min 0,000 mm 0,0 UV-I 61 W/m 16,0 C 13,6 C 17,7 km/h (3 Bft) 100,00 %
22.07.2018 09:17 16,8 C 22,8 C 17,2 C 95 % 1010,2 hPa 0,0 l/m 8,2 km/h (2 Bft) W 265 0 min 0,000 mm 0,0 UV-I 62 W/m 16,0 C 15,9 C 12,9 km/h (3 Bft) 96,30 %
22.07.2018 09:18 16,8 C 22,8 C 17,2 C 95 % 1010,2 hPa 0,2 l/m 13,3 km/h (3 Bft) W 263 0 min 0,000 mm 0,0 UV-I 62 W/m 16,0 C 13,9 C 19,3 km/h (3 Bft) 96,15 %
22.07.2018 09:19 16,8 C 22,8 C 17,2 C 95 % 1010,2 hPa 0,0 l/m 13,0 km/h (3 Bft) W-SW 256 0 min 0,000 mm 0,0 UV-I 59 W/m 16,0 C 14,0 C 17,7 km/h (3 Bft) 100,00 %
22.07.2018 09:20 16,8 C 22,8 C 17,2 C 95 % 1010,2 hPa 0,0 l/m 11,0 km/h (2 Bft) W 270 0 min 0,000 mm 0,0 UV-I 53 W/m 16,0 C 14,7 C 16,1 km/h (3 Bft) 100,00 %
22.07.2018 09:21 16,8 C 22,8 C 17,2 C 95 % 1010,2 hPa 0,0 l/m 13,3 km/h (3 Bft) W-SW 246 0 min 0,000 mm 0,0 UV-I 51 W/m 16,0 C 13,9 C 17,7 km/h (3 Bft) 96,30 %
22.07.2018 09:22 16,8 C 22,8 C 16,7 C 95 % 1010,2 hPa 0,0 l/m 13,3 km/h (3 Bft) W 265 0 min 0,000 mm 0,0 UV-I 50 W/m 16,0 C 13,9 C 17,7 km/h (3 Bft) 95,65 %
22.07.2018 09:23 16,8 C 22,8 C 17,2 C 95 % 1010,2 hPa 0,2 l/m 8,9 km/h (2 Bft) W 276 0 min 0,000 mm 0,0 UV-I 48 W/m 16,0 C 15,6 C 14,5 km/h (3 Bft) 95,83 %
22.07.2018 09:24 16,8 C 22,8 C 17,2 C 95 % 1010,2 hPa 0,0 l/m 8,3 km/h (2 Bft) W-SW 247 0 min 0,000 mm 0,0 UV-I 46 W/m 16,0 C 15,8 C 11,3 km/h (2 Bft) 100,00 %
22.07.2018 09:25 16,8 C 22,8 C 16,7 C 95 % 1010,2 hPa 0,0 l/m 11,9 km/h (2 Bft) W 265 0 min 0,000 mm 0,0 UV-I 44 W/m 16,0 C 14,4 C 19,3 km/h (3 Bft) 100,00 %
22.07.2018 09:26 16,7 C 22,8 C 16,7 C 95 % 1010,2 hPa 0,2 l/m 12,8 km/h (3 Bft) W 259 0 min 0,000 mm 0,0 UV-I 42 W/m 15,9 C 14,0 C 16,1 km/h (3 Bft) 97,14 %
22.07.2018 09:27 16,7 C 22,8 C 16,7 C 95 % 1010,2 hPa 0,0 l/m 11,8 km/h (2 Bft) W-SW 254 0 min 0,000 mm 0,0 UV-I 44 W/m 15,9 C 14,3 C 14,5 km/h (3 Bft) 100,00 %
22.07.2018 09:28 16,7 C 22,8 C 16,7 C 95 % 1010,3 hPa 0,2 l/m 11,7 km/h (2 Bft) W 273 0 min 0,000 mm 0,0 UV-I 45 W/m 15,9 C 14,3 C 14,5 km/h (3 Bft) 95,65 %
22.07.2018 09:29 16,7 C 22,8 C 16,7 C 95 % 1010,2 hPa 0,0 l/m 12,9 km/h (3 Bft) W-SW 252 0 min 0,000 mm 0,0 UV-I 48 W/m 15,9 C 13,9 C 17,7 km/h (3 Bft) 100,00 %
22.07.2018 09:30 16,7 C 22,8 C 16,7 C 95 % 1010,3 hPa 0,0 l/m 12,1 km/h (2 Bft) W 272 0 min 0,000 mm 0,0 UV-I 51 W/m 15,9 C 14,2 C 16,1 km/h (3 Bft) 100,00 %
22.07.2018 09:31 16,8 C 22,8 C 17,2 C 95 % 1010,3 hPa 0,0 l/m 11,0 km/h (2 Bft) SW 232 0 min 0,000 mm 0,0 UV-I 53 W/m 16,0 C 14,7 C 16,1 km/h (3 Bft) 100,00 %
22.07.2018 09:32 16,7 C 22,8 C 17,2 C 95 % 1010,3 hPa 0,2 l/m 12,5 km/h (3 Bft) W-SW 254 0 min 0,000 mm 0,0 UV-I 57 W/m 15,9 C 14,1 C 17,7 km/h (3 Bft) 100,00 %
22.07.2018 09:33 16,7 C 22,8 C 17,2 C 95 % 1010,3 hPa 0,0 l/m 11,6 km/h (2 Bft) W-SW 254 0 min 0,000 mm 0,0 UV-I 60 W/m 15,9 C 14,4 C 16,1 km/h (3 Bft) 100,00 %
22.07.2018 09:34 16,7 C 22,8 C 17,2 C 95 % 1010,3 hPa 0,0 l/m 10,8 km/h (2 Bft) W-SW 257 0 min 0,000 mm 0,0 UV-I 62 W/m 15,9 C 14,7 C 14,5 km/h (3 Bft) 100,00 %
22.07.2018 09:35 16,7 C 22,8 C 17,2 C 95 % 1010,2 hPa 0,2 l/m 10,7 km/h (2 Bft) W 262 0 min 0,000 mm 0,0 UV-I 63 W/m 15,9 C 14,7 C 12,9 km/h (3 Bft) 100,00 %
22.07.2018 09:36 16,7 C 22,8 C 17,2 C 95 % 1010,3 hPa 0,0 l/m 7,6 km/h (2 Bft) W 259 0 min 0,000 mm 0,0 UV-I 61 W/m 15,9 C 16,1 C 12,9 km/h (3 Bft) 96,30 %
22.07.2018 09:37 16,8 C 22,8 C 17,2 C 95 % 1010,3 hPa 0,0 l/m 5,3 km/h (1 Bft) SW 220 0 min 0,000 mm 0,0 UV-I 61 W/m 16,0 C 16,8 C 8,0 km/h (2 Bft) 96,55 %
22.07.2018 09:38 16,8 C 22,8 C 17,2 C 95 % 1010,3 hPa 0,0 l/m 13,3 km/h (3 Bft) W-SW 248 0 min 0,000 mm 0,0 UV-I 67 W/m 16,0 C 13,9 C 17,7 km/h (3 Bft) 100,00 %
22.07.2018 09:39 16,7 C 22,8 C 17,2 C 95 % 1010,3 hPa 0,0 l/m 11,6 km/h (2 Bft) W 275 0 min 0,000 mm 0,0 UV-I 67 W/m 15,9 C 14,4 C 12,9 km/h (3 Bft) 96,15 %
22.07.2018 09:40 16,8 C 22,8 C 17,2 C 95 % 1010,3 hPa 0,0 l/m 8,9 km/h (2 Bft) W 273 0 min 0,000 mm 0,0 UV-I 61 W/m 16,0 C 15,6 C 12,9 km/h (3 Bft) 100,00 %
22.07.2018 09:41 16,8 C 22,8 C 17,2 C 95 % 1010,3 hPa 0,0 l/m 6,2 km/h (2 Bft) W 265 0 min 0,000 mm 0,0 UV-I 53 W/m 16,0 C 16,8 C 9,7 km/h (2 Bft) 96,15 %
22.07.2018 09:42 16,8 C 22,8 C 17,2 C 95 % 1010,3 hPa 0,2 l/m 6,6 km/h (2 Bft) W-SW 239 0 min 0,000 mm 0,0 UV-I 48 W/m 16,0 C 16,7 C 11,3 km/h (2 Bft) 100,00 %
22.07.2018 09:43 16,8 C 22,8 C 17,2 C 95 % 1010,3 hPa 0,0 l/m 7,5 km/h (2 Bft) W 263 0 min 0,000 mm 0,0 UV-I 46 W/m 16,0 C 16,2 C 11,3 km/h (2 Bft) 91,30 %
22.07.2018 09:44 16,8 C 22,8 C 17,2 C 95 % 1010,3 hPa 0,0 l/m 10,1 km/h (2 Bft) W-SW 255 0 min 0,000 mm 0,0 UV-I 44 W/m 16,0 C 15,1 C 12,9 km/h (3 Bft) 100,00 %
22.07.2018 09:45 16,8 C 22,8 C 17,2 C 95 % 1010,3 hPa 0,0 l/m 9,1 km/h (2 Bft) W-SW 256 0 min 0,000 mm 0,0 UV-I 44 W/m 16,0 C 15,5 C 12,9 km/h (3 Bft) 91,67 %
22.07.2018 09:46 16,8 C 22,8 C 17,2 C 95 % 1010,3 hPa 0,0 l/m 9,1 km/h (2 Bft) W-SW 252 0 min 0,000 mm 0,0 UV-I 48 W/m 16,0 C 15,5 C 12,9 km/h (3 Bft) 100,00 %
22.07.2018 09:47 16,8 C 22,8 C 17,2 C 95 % 1010,3 hPa 0,0 l/m 9,7 km/h (2 Bft) W-SW 248 0 min 0,000 mm 0,0 UV-I 59 W/m 16,0 C 15,2 C 12,9 km/h (3 Bft) 96,15 %
22.07.2018 09:48 16,8 C 22,8 C 17,2 C 95 % 1010,3 hPa 0,0 l/m 7,4 km/h (2 Bft) W-SW 258 0 min 0,000 mm 0,3 UV-I 74 W/m 16,0 C 16,3 C 11,3 km/h (2 Bft) 96,30 %
22.07.2018 09:49 16,8 C 22,8 C 17,2 C 95 % 1010,3 hPa 0,0 l/m 10,8 km/h (2 Bft) W-SW 249 0 min 0,000 mm 0,5 UV-I 88 W/m 16,0 C 14,8 C 16,1 km/h (3 Bft) 97,21 %
22.07.2018 09:50 16,8 C 22,8 C 17,2 C 95 % 1010,3 hPa 0,2 l/m 9,5 km/h (2 Bft) W 274 0 min 0,000 mm 0,5 UV-I 89 W/m 16,0 C 15,3 C 12,9 km/h (3 Bft) 95,12 %
22.07.2018 09:51 16,8 C 22,8 C 17,2 C 95 % 1010,3 hPa 0,0 l/m 8,5 km/h (2 Bft) W 276 0 min 0,000 mm 0,5 UV-I 84 W/m 16,0 C 15,8 C 11,3 km/h (2 Bft) 100,00 %
22.07.2018 09:52 16,8 C 22,8 C 17,2 C 95 % 1010,3 hPa 0,0 l/m 9,7 km/h (2 Bft) W 275 0 min 0,000 mm 0,4 UV-I 77 W/m 16,0 C 15,2 C 12,9 km/h (3 Bft) 93,33 %
22.07.2018 09:53 16,8 C 22,8 C 17,2 C 96 % 1010,3 hPa 0,0 l/m 10,0 km/h (2 Bft) W 273 0 min 0,000 mm 0,0 UV-I 69 W/m 16,2 C 15,1 C 12,9 km/h (3 Bft) 100,00 %
22.07.2018 09:54 16,8 C 22,8 C 17,2 C 95 % 1010,3 hPa 0,0 l/m 7,4 km/h (2 Bft) W 266 0 min 0,000 mm 0,0 UV-I 69 W/m 16,0 C 16,3 C 9,7 km/h (2 Bft) 100,00 %
22.07.2018 09:55 16,8 C 22,8 C 17,2 C 95 % 1010,3 hPa 0,0 l/m 6,8 km/h (2 Bft) W-SW 252 0 min 0,000 mm 0,4 UV-I 76 W/m 16,0 C 16,6 C 9,7 km/h (2 Bft) 97,44 %
22.07.2018 09:56 16,8 C 22,8 C 17,2 C 95 % 1010,3 hPa 0,2 l/m 3,9 km/h (1 Bft) W-SW 242 0 min 0,000 mm 0,4 UV-I 80 W/m 16,0 C 16,8 C 4,8 km/h (1 Bft) 96,15 %
22.07.2018 09:57 16,8 C 22,8 C 17,8 C 95 % 1010,3 hPa 0,0 l/m 4,8 km/h (1 Bft) W-SW 257 0 min 0,000 mm 0,0 UV-I 73 W/m 16,0 C 16,8 C 6,4 km/h (2 Bft) 100,00 %
22.07.2018 09:58 16,9 C 22,8 C 17,8 C 96 % 1010,3 hPa 0,0 l/m 6,6 km/h (2 Bft) W-SW 256 0 min 0,000 mm 0,0 UV-I 68 W/m 16,3 C 16,8 C 9,7 km/h (2 Bft) 92,86 %
22.07.2018 09:59 16,9 C 22,8 C 17,8 C 96 % 1010,3 hPa 0,0 l/m 9,9 km/h (2 Bft) W 261 0 min 0,000 mm 0,0 UV-I 67 W/m 16,3 C 15,3 C 11,3 km/h (2 Bft) 100,00 %
22.07.2018 10:00 16,9 C 22,8 C 17,2 C 96 % 1010,3 hPa 0,2 l/m 6,7 km/h (2 Bft) W-SW 245 0 min 0,026 mm 0,0 UV-I 67 W/m 16,3 C 16,8 C 9,7 km/h (2 Bft) 96,15 %
22.07.2018 10:02 16,9 C 22,8 C 17,8 C 96 % 1010,3 hPa 0,0 l/m 7,3 km/h (2 Bft) W-SW 250 0 min 0,000 mm 0,0 UV-I 70 W/m 16,3 C 16,4 C 11,3 km/h (2 Bft) 100,00 %
22.07.2018 10:03 16,9 C 22,8 C 17,8 C 96 % 1010,4 hPa 0,0 l/m 8,0 km/h (2 Bft) W 268 0 min 0,000 mm 0,1 UV-I 74 W/m 16,3 C 16,1 C 11,3 km/h (2 Bft) 100,00 %
22.07.2018 10:04 16,9 C 22,8 C 17,8 C 96 % 1010,4 hPa 0,0 l/m 8,6 km/h (2 Bft) W 269 0 min 0,000 mm 0,5 UV-I 81 W/m 16,3 C 15,8 C 14,5 km/h (3 Bft) 100,00 %
22.07.2018 10:05 16,9 C 22,8 C 17,8 C 96 % 1010,4 hPa 0,0 l/m 6,0 km/h (2 Bft) W-SW 253 0 min 0,000 mm 0,6 UV-I 88 W/m 16,3 C 16,9 C 9,7 km/h (2 Bft) 100,00 %
22.07.2018 10:06 16,9 C 22,8 C 17,8 C 96 % 1010,4 hPa 0,0 l/m 6,1 km/h (2 Bft) W-SW 258 0 min 0,000 mm 0,6 UV-I 100 W/m 16,3 C 16,9 C 11,3 km/h (2 Bft) 100,00 %
22.07.2018 10:07 16,9 C 22,8 C 17,8 C 96 % 1010,4 hPa 0,0 l/m 7,0 km/h (2 Bft) W-SW 250 0 min 0,000 mm 0,7 UV-I 110 W/m 16,3 C 16,6 C 9,7 km/h (2 Bft) 100,00 %
22.07.2018 10:08 16,9 C 22,8 C 17,8 C 96 % 1010,4 hPa 0,0 l/m 7,9 km/h (2 Bft) W 261 0 min 0,000 mm 0,7 UV-I 113 W/m 16,3 C 16,1 C 12,9 km/h (3 Bft) 100,00 %
22.07.2018 10:09 16,9 C 22,8 C 17,8 C 96 % 1010,4 hPa 0,0 l/m 9,5 km/h (2 Bft) W-NW 286 0 min 0,000 mm 0,7 UV-I 111 W/m 16,3 C 15,4 C 12,9 km/h (3 Bft) 95,83 %
22.07.2018 10:10 16,9 C 22,8 C 17,8 C 96 % 1010,4 hPa 0,2 l/m 7,6 km/h (2 Bft) W 262 0 min 0,000 mm 0,7 UV-I 102 W/m 16,3 C 16,3 C 9,7 km/h (2 Bft) 100,00 %
22.07.2018 10:11 16,9 C 22,8 C 17,8 C 96 % 1010,4 hPa 0,0 l/m 9,5 km/h (2 Bft) W 260 0 min 0,000 mm 0,6 UV-I 94 W/m 16,3 C 15,4 C 14,5 km/h (3 Bft) 100,00 %
22.07.2018 10:12 16,9 C 22,8 C 17,8 C 96 % 1010,4 hPa 0,0 l/m 9,9 km/h (2 Bft) W-SW 251 0 min 0,000 mm 0,5 UV-I 90 W/m 16,3 C 15,3 C 14,5 km/h (3 Bft) 100,00 %
22.07.2018 10:13 16,9 C 22,8 C 17,8 C 96 % 1010,5 hPa 0,0 l/m 8,0 km/h (2 Bft) W-SW 257 0 min 0,000 mm 0,5 UV-I 86 W/m 16,3 C 16,1 C 12,9 km/h (3 Bft) 100,00 %
22.07.2018 10:14 16,9 C 22,8 C 17,8 C 96 % 1010,5 hPa 0,0 l/m 8,0 km/h (2 Bft) W 278 0 min 0,000 mm 0,5 UV-I 84 W/m 16,3 C 16,1 C 11,3 km/h (2 Bft) 100,00 %
22.07.2018 10:15 16,9 C 22,8 C 17,8 C 96 % 1010,5 hPa 0,0 l/m 7,6 km/h (2 Bft) W-SW 252 0 min 0,000 mm 0,5 UV-I 88 W/m 16,3 C 16,3 C 12,9 km/h (3 Bft) 100,00 %
22.07.2018 10:16 16,9 C 22,8 C 17,8 C 96 % 1010,5 hPa 0,0 l/m 10,3 km/h (2 Bft) W 264 0 min 0,000 mm 0,6 UV-I 100 W/m 16,3 C 15,1 C 14,5 km/h (3 Bft) 100,00 %
22.07.2018 10:17 17,0 C 22,8 C 17,8 C 96 % 1010,5 hPa 0,0 l/m 10,2 km/h (2 Bft) W-SW 247 0 min 0,000 mm 0,7 UV-I 106 W/m 16,4 C 15,2 C 16,1 km/h (3 Bft) 100,00 %
22.07.2018 10:18 17,1 C 22,8 C 17,8 C 96 % 1010,5 hPa 0,0 l/m 7,1 km/h (2 Bft) W 265 0 min 0,000 mm 0,8 UV-I 122 W/m 16,5 C 16,7 C 11,3 km/h (2 Bft) 100,00 %
22.07.2018 10:19 17,0 C 22,8 C 18,3 C 96 % 1010,4 hPa 0,0 l/m 11,7 km/h (2 Bft) W 260 0 min 0,000 mm 0,9 UV-I 150 W/m 16,4 C 14,7 C 16,1 km/h (3 Bft) 100,00 %
22.07.2018 10:20 17,0 C 22,8 C 18,3 C 96 % 1010,5 hPa 0,0 l/m 8,6 km/h (2 Bft) W 263 0 min 0,000 mm 1,1 UV-I 174 W/m 16,4 C 15,9 C 14,5 km/h (3 Bft) 100,00 %
22.07.2018 10:21 17,0 C 22,8 C 18,3 C 96 % 1010,5 hPa 0,0 l/m 9,0 km/h (2 Bft) W 266 0 min 0,000 mm 1,2 UV-I 183 W/m 16,4 C 15,7 C 14,5 km/h (3 Bft) 95,65 %
22.07.2018 10:22 17,1 C 22,8 C 18,3 C 95 % 1010,5 hPa 0,0 l/m 10,0 km/h (2 Bft) W-SW 238 0 min 0,000 mm 0,6 UV-I 92 W/m 16,3 C 15,4 C 12,9 km/h (3 Bft) 100,00 %
22.07.2018 10:23 17,1 C 22,8 C 18,3 C 95 % 1010,5 hPa 0,0 l/m 6,6 km/h (2 Bft) W-NW 287 0 min 0,000 mm 0,0 UV-I 44 W/m 16,3 C 17,0 C 9,7 km/h (2 Bft) 100,00 %
22.07.2018 10:24 17,1 C 22,8 C 18,3 C 95 % 1010,5 hPa 0,0 l/m 5,9 km/h (2 Bft) W 272 0 min 0,000 mm 0,0 UV-I 39 W/m 16,3 C 17,1 C 9,7 km/h (2 Bft) 96,30 %
22.07.2018 10:25 17,1 C 22,8 C 18,3 C 95 % 1010,5 hPa 0,0 l/m 7,2 km/h (2 Bft) SW 227 0 min 0,000 mm 0,0 UV-I 52 W/m 16,3 C 16,7 C 11,3 km/h (2 Bft) 100,00 %
22.07.2018 10:26 17,2 C 22,8 C 18,3 C 95 % 1010,5 hPa 0,0 l/m 6,0 km/h (2 Bft) W-SW 250 0 min 0,000 mm 0,0 UV-I 45 W/m 16,4 C 17,2 C 11,3 km/h (2 Bft) 100,00 %
22.07.2018 10:27 17,2 C 22,8 C 18,3 C 95 % 1010,5 hPa 0,0 l/m 5,4 km/h (1 Bft) SW 223 0 min 0,000 mm 0,2 UV-I 58 W/m 16,4 C 17,2 C 8,0 km/h (2 Bft) 100,00 %
22.07.2018 10:28 17,2 C 22,8 C 17,8 C 96 % 1010,5 hPa 0,0 l/m 8,9 km/h (2 Bft) W-SW 256 0 min 0,000 mm 0,5 UV-I 77 W/m 16,6 C 16,0 C 12,9 km/h (3 Bft) 100,00 %
22.07.2018 10:29 17,1 C 22,8 C 17,8 C 95 % 1010,6 hPa 0,0 l/m 8,2 km/h (2 Bft) W-SW 242 0 min 0,000 mm 0,5 UV-I 79 W/m 16,3 C 16,2 C 11,3 km/h (2 Bft) 100,00 %
22.07.2018 10:30 17,1 C 22,8 C 17,8 C 95 % 1010,6 hPa 0,0 l/m 6,1 km/h (2 Bft) W 261 0 min 0,000 mm 0,5 UV-I 79 W/m 16,3 C 17,1 C 6,4 km/h (2 Bft) 100,00 %
22.07.2018 10:31 17,1 C 22,8 C 17,8 C 95 % 1010,6 hPa 0,0 l/m 7,0 km/h (2 Bft) W-SW 252 0 min 0,000 mm 0,5 UV-I 77 W/m 16,3 C 16,8 C 11,3 km/h (2 Bft) 96,15 %
22.07.2018 10:32 17,1 C 22,8 C 17,8 C 95 % 1010,6 hPa 0,0 l/m 6,6 km/h (2 Bft) W 266 0 min 0,000 mm 0,5 UV-I 79 W/m 16,3 C 17,0 C 9,7 km/h (2 Bft) 100,00 %
22.07.2018 10:33 17,1 C 22,8 C 17,8 C 95 % 1010,6 hPa 0,0 l/m 7,3 km/h (2 Bft) W 261 0 min 0,000 mm 0,5 UV-I 80 W/m 16,3 C 16,6 C 9,7 km/h (2 Bft) 100,00 %
22.07.2018 10:34 17,1 C 22,8 C 17,8 C 95 % 1010,6 hPa 0,0 l/m 4,2 km/h (1 Bft) W 269 0 min 0,000 mm 0,5 UV-I 81 W/m 16,3 C 17,1 C 6,4 km/h (2 Bft) 100,00 %
22.07.2018 10:35 17,1 C 22,8 C 17,8 C 95 % 1010,6 hPa 0,0 l/m 7,2 km/h (2 Bft) W-SW 252 0 min 0,000 mm 0,5 UV-I 88 W/m 16,3 C 16,7 C 11,3 km/h (2 Bft) 100,00 %
22.07.2018 10:36 17,1 C 22,8 C 17,8 C 95 % 1010,6 hPa 0,0 l/m 8,1 km/h (2 Bft) W-SW 248 0 min 0,000 mm 0,7 UV-I 108 W/m 16,3 C 16,3 C 9,7 km/h (2 Bft) 100,00 %
22.07.2018 10:37 17,1 C 22,8 C 17,8 C 95 % 1010,6 hPa 0,0 l/m 9,3 km/h (2 Bft) W-SW 248 0 min 0,000 mm 0,8 UV-I 129 W/m 16,3 C 15,7 C 12,9 km/h (3 Bft) 100,00 %
22.07.2018 10:38 17,1 C 22,8 C 18,3 C 95 % 1010,6 hPa 0,0 l/m 5,0 km/h (1 Bft) W-NW 289 0 min 0,000 mm 0,8 UV-I 135 W/m 16,3 C 17,1 C 6,4 km/h (2 Bft) 100,00 %
22.07.2018 10:39 17,1 C 22,8 C 18,3 C 95 % 1010,5 hPa 0,0 l/m 5,1 km/h (1 Bft) SW 217 0 min 0,000 mm 0,8 UV-I 137 W/m 16,3 C 17,1 C 8,0 km/h (2 Bft) 100,00 %
22.07.2018 10:40 17,2 C 22,8 C 18,3 C 95 % 1010,6 hPa 0,0 l/m 5,2 km/h (1 Bft) W-SW 244 0 min 0,000 mm 1,0 UV-I 151 W/m 16,4 C 17,2 C 6,4 km/h (2 Bft) 100,00 %
22.07.2018 10:41 17,2 C 22,8 C 18,9 C 95 % 1010,6 hPa 0,0 l/m 4,5 km/h (1 Bft) SW 223 0 min 0,000 mm 1,1 UV-I 178 W/m 16,4 C 17,2 C 6,4 km/h (2 Bft) 100,00 %
22.07.2018 10:42 17,2 C 22,8 C 18,9 C 95 % 1010,6 hPa 0,0 l/m 6,4 km/h (2 Bft) W-SW 246 0 min 0,000 mm 1,4 UV-I 219 W/m 16,4 C 17,2 C 8,0 km/h (2 Bft) 100,00 %
22.07.2018 10:43 17,2 C 22,8 C 18,9 C 95 % 1010,6 hPa 0,0 l/m 5,1 km/h (1 Bft) S-SW 196 0 min 0,000 mm 1,5 UV-I 237 W/m 16,4 C 17,2 C 8,0 km/h (2 Bft) 100,00 %
22.07.2018 10:44 17,3 C 22,8 C 19,4 C 95 % 1010,6 hPa 0,0 l/m 7,0 km/h (2 Bft) W 259 0 min 0,000 mm 1,6 UV-I 247 W/m 16,5 C 17,0 C 9,7 km/h (2 Bft) 96,15 %
22.07.2018 10:45 17,3 C 22,8 C 19,4 C 96 % 1010,6 hPa 0,0 l/m 7,5 km/h (2 Bft) SW 227 0 min 0,000 mm 1,7 UV-I 272 W/m 16,7 C 16,8 C 11,3 km/h (2 Bft) 93,33 %
22.07.2018 10:46 17,3 C 22,8 C 20,0 C 95 % 1010,6 hPa 0,0 l/m 8,3 km/h (2 Bft) W-SW 245 0 min 0,000 mm 1,8 UV-I 285 W/m 16,5 C 16,4 C 12,9 km/h (3 Bft) 100,00 %
22.07.2018 10:47 17,4 C 22,8 C 20,0 C 95 % 1010,6 hPa 0,0 l/m 9,3 km/h (2 Bft) SW 227 0 min 0,000 mm 1,8 UV-I 293 W/m 16,6 C 16,1 C 14,5 km/h (3 Bft) 100,00 %
22.07.2018 10:48 17,4 C 22,8 C 20,0 C 95 % 1010,6 hPa 0,0 l/m 7,7 km/h (2 Bft) SW 217 0 min 0,000 mm 1,9 UV-I 299 W/m 16,6 C 16,8 C 14,5 km/h (3 Bft) 100,00 %
22.07.2018 10:49 17,5 C 22,8 C 20,0 C 95 % 1010,6 hPa 0,0 l/m 8,4 km/h (2 Bft) W-SW 249 0 min 0,000 mm 1,9 UV-I 301 W/m 16,7 C 16,5 C 11,3 km/h (2 Bft) 100,00 %
22.07.2018 10:50 17,5 C 22,8 C 20,6 C 95 % 1010,6 hPa 0,0 l/m 5,8 km/h (2 Bft) W-SW 244 0 min 0,000 mm 1,9 UV-I 300 W/m 16,7 C 17,5 C 8,0 km/h (2 Bft) 91,67 %
22.07.2018 10:51 17,6 C 22,8 C 20,6 C 95 % 1010,6 hPa 0,0 l/m 9,0 km/h (2 Bft) W-SW 238 0 min 0,000 mm 1,9 UV-I 296 W/m 16,8 C 16,4 C 14,5 km/h (3 Bft) 100,00 %
22.07.2018 10:52 17,6 C 22,8 C 20,6 C 95 % 1010,6 hPa 0,0 l/m 8,8 km/h (2 Bft) W-SW 239 0 min 0,000 mm 1,8 UV-I 291 W/m 16,8 C 16,5 C 12,9 km/h (3 Bft) 96,30 %
22.07.2018 10:53 17,6 C 22,8 C 20,6 C 96 % 1010,6 hPa 0,0 l/m 6,1 km/h (2 Bft) SW 232 0 min 0,000 mm 1,7 UV-I 284 W/m 17,0 C 17,6 C 8,0 km/h (2 Bft) 96,15 %
22.07.2018 10:54 17,6 C 22,8 C 20,0 C 95 % 1010,6 hPa 0,0 l/m 7,0 km/h (2 Bft) W 260 0 min 0,000 mm 1,7 UV-I 274 W/m 16,8 C 17,3 C 11,3 km/h (2 Bft) 100,00 %
22.07.2018 10:55 17,6 C 22,8 C 20,0 C 95 % 1010,7 hPa 0,0 l/m 7,2 km/h (2 Bft) W-SW 241 0 min 0,000 mm 1,6 UV-I 264 W/m 16,8 C 17,2 C 12,9 km/h (3 Bft) 100,00 %
22.07.2018 10:56 17,6 C 22,8 C 20,0 C 95 % 1010,6 hPa 0,0 l/m 10,1 km/h (2 Bft) S-SW 198 0 min 0,000 mm 1,6 UV-I 253 W/m 16,8 C 16,0 C 14,5 km/h (3 Bft) 100,00 %
22.07.2018 10:57 17,6 C 22,8 C 19,4 C 95 % 1010,7 hPa 0,0 l/m 6,2 km/h (2 Bft) W 263 0 min 0,000 mm 1,5 UV-I 241 W/m 16,8 C 17,6 C 11,3 km/h (2 Bft) 96,88 %
22.07.2018 10:58 17,7 C 22,8 C 20,0 C 95 % 1010,7 hPa 0,0 l/m 9,5 km/h (2 Bft) SW 236 0 min 0,000 mm 1,5 UV-I 235 W/m 16,9 C 16,3 C 12,9 km/h (3 Bft) 100,00 %
22.07.2018 10:59 17,7 C 22,8 C 20,0 C 95 % 1010,6 hPa 0,0 l/m 9,6 km/h (2 Bft) W-SW 245 0 min 0,000 mm 1,5 UV-I 230 W/m 16,9 C 16,3 C 14,5 km/h (3 Bft) 90,91 %
22.07.2018 11:00 17,7 C 22,8 C 20,0 C 95 % 1010,7 hPa 0,0 l/m 10,4 km/h (2 Bft) W-SW 242 0 min 0,000 mm 1,4 UV-I 229 W/m 16,9 C 15,9 C 14,5 km/h (3 Bft) 100,00 %
22.07.2018 11:02 17,7 C 22,8 C 20,0 C 95 % 1010,7 hPa 0,0 l/m 8,8 km/h (2 Bft) W-SW 248 0 min 0,076 mm 1,4 UV-I 231 W/m 16,9 C 16,6 C 12,9 km/h (3 Bft) 94,00 %
22.07.2018 11:03 17,7 C 22,8 C 20,0 C 95 % 1010,7 hPa 0,0 l/m 8,9 km/h (2 Bft) W-SW 244 0 min 0,000 mm 1,5 UV-I 236 W/m 16,9 C 16,5 C 12,9 km/h (3 Bft) 100,00 %
22.07.2018 11:04 17,7 C 22,8 C 20,0 C 95 % 1010,7 hPa 0,0 l/m 11,3 km/h (2 Bft) W 259 0 min 0,000 mm 1,6 UV-I 245 W/m 16,9 C 15,6 C 14,5 km/h (3 Bft) 100,00 %
22.07.2018 11:05 17,7 C 22,8 C 20,0 C 95 % 1010,7 hPa 0,0 l/m 11,5 km/h (2 Bft) W-SW 242 0 min 0,000 mm 1,6 UV-I 247 W/m 16,9 C 15,6 C 14,5 km/h (3 Bft) 92,31 %
22.07.2018 11:06 17,7 C 22,8 C 20,0 C 95 % 1010,7 hPa 0,0 l/m 7,4 km/h (2 Bft) SW 236 0 min 0,000 mm 1,6 UV-I 260 W/m 16,9 C 17,2 C 12,9 km/h (3 Bft) 96,30 %
22.07.2018 11:07 17,8 C 22,8 C 20,0 C 95 % 1010,7 hPa 0,0 l/m 6,4 km/h (2 Bft) SW 228 0 min 0,000 mm 1,6 UV-I 265 W/m 17,0 C 17,8 C 9,7 km/h (2 Bft) 95,65 %
22.07.2018 11:08 17,8 C 22,8 C 20,0 C 95 % 1010,7 hPa 0,0 l/m 10,1 km/h (2 Bft) W-SW 250 0 min 0,000 mm 1,7 UV-I 266 W/m 17,0 C 16,2 C 12,9 km/h (3 Bft) 92,59 %
22.07.2018 11:09 17,8 C 22,8 C 20,0 C 95 % 1010,7 hPa 0,0 l/m 9,7 km/h (2 Bft) W-SW 255 0 min 0,000 mm 1,6 UV-I 255 W/m 17,0 C 16,3 C 12,9 km/h (3 Bft) 100,00 %
22.07.2018 11:10 17,9 C 22,8 C 20,0 C 95 % 1010,7 hPa 0,0 l/m 9,8 km/h (2 Bft) W-SW 242 0 min 0,000 mm 1,5 UV-I 231 W/m 17,1 C 16,4 C 16,1 km/h (3 Bft) 87,50 %
22.07.2018 11:11 17,8 C 22,8 C 20,0 C 95 % 1010,7 hPa 0,0 l/m 9,1 km/h (2 Bft) SW 225 0 min 0,000 mm 1,4 UV-I 222 W/m 17,0 C 16,6 C 14,5 km/h (3 Bft) 100,00 %
22.07.2018 11:12 17,8 C 22,8 C 19,4 C 95 % 1010,7 hPa 0,0 l/m 7,6 km/h (2 Bft) W-SW 242 0 min 0,000 mm 1,4 UV-I 226 W/m 17,0 C 17,2 C 9,7 km/h (2 Bft) 95,65 %
22.07.2018 11:13 17,8 C 22,8 C 20,0 C 95 % 1010,7 hPa 0,0 l/m 9,8 km/h (2 Bft) W 263 0 min 0,000 mm 1,4 UV-I 225 W/m 17,0 C 16,3 C 12,9 km/h (3 Bft) 91,67 %
22.07.2018 11:14 17,9 C 22,8 C 20,0 C 95 % 1010,7 hPa 0,0 l/m 8,9 km/h (2 Bft) SW 227 0 min 0,000 mm 1,5 UV-I 225 W/m 17,1 C 16,8 C 12,9 km/h (3 Bft) 91,30 %
22.07.2018 11:15 17,9 C 22,8 C 20,0 C 95 % 1010,7 hPa 0,0 l/m 8,4 km/h (2 Bft) SW 228 0 min 0,000 mm 1,6 UV-I 246 W/m 17,1 C 17,0 C 9,7 km/h (2 Bft) 95,83 %
22.07.2018 11:16 18,1 C 22,8 C 20,0 C 95 % 1010,7 hPa 0,0 l/m 5,5 km/h (1 Bft) W-SW 252 0 min 0,000 mm 1,7 UV-I 257 W/m 17,3 C 18,1 C 8,0 km/h (2 Bft) 92,31 %
22.07.2018 11:17 18,1 C 22,8 C 20,6 C 95 % 1010,7 hPa 0,0 l/m 9,0 km/h (2 Bft) SW 224 0 min 0,000 mm 1,7 UV-I 219 W/m 17,3 C 16,9 C 11,3 km/h (2 Bft) 96,67 %
22.07.2018 11:18 18,1 C 22,8 C 20,0 C 94 % 1010,7 hPa 0,0 l/m 9,2 km/h (2 Bft) W-SW 247 0 min 0,000 mm 1,4 UV-I 217 W/m 17,1 C 16,9 C 12,9 km/h (3 Bft) 90,91 %
22.07.2018 11:19 18,1 C 22,8 C 20,0 C 94 % 1010,8 hPa 0,0 l/m 8,0 km/h (2 Bft) W-SW 245 0 min 0,000 mm 1,5 UV-I 226 W/m 17,1 C 17,4 C 12,9 km/h (3 Bft) 96,30 %
22.07.2018 11:20 18,1 C 22,8 C 20,0 C 94 % 1010,8 hPa 0,0 l/m 4,5 km/h (1 Bft) SW 228 0 min 0,000 mm 1,4 UV-I 220 W/m 17,1 C 18,1 C 6,4 km/h (2 Bft) 96,15 %
22.07.2018 11:21 18,1 C 22,8 C 20,0 C 94 % 1010,7 hPa 0,0 l/m 10,1 km/h (2 Bft) W 269 0 min 0,000 mm 1,4 UV-I 220 W/m 17,1 C 16,5 C 16,1 km/h (3 Bft) 95,83 %
22.07.2018 11:22 18,1 C 22,8 C 20,0 C 94 % 1010,8 hPa 0,0 l/m 10,9 km/h (2 Bft) W-SW 247 0 min 0,000 mm 1,4 UV-I 220 W/m 17,1 C 16,2 C 14,5 km/h (3 Bft) 91,30 %
22.07.2018 11:23 18,1 C 22,8 C 20,0 C 94 % 1010,8 hPa 0,0 l/m 8,6 km/h (2 Bft) W 270 0 min 0,000 mm 1,3 UV-I 207 W/m 17,1 C 17,1 C 14,5 km/h (3 Bft) 100,00 %
22.07.2018 11:24 18,2 C 22,8 C 20,0 C 94 % 1010,8 hPa 0,0 l/m 12,3 km/h (3 Bft) W 261 0 min 0,000 mm 1,3 UV-I 205 W/m 17,2 C 15,9 C 17,7 km/h (3 Bft) 91,30 %
22.07.2018 11:25 18,1 C 22,8 C 19,4 C 94 % 1010,8 hPa 0,0 l/m 7,8 km/h (2 Bft) W-SW 252 0 min 0,000 mm 1,3 UV-I 198 W/m 17,1 C 17,4 C 11,3 km/h (2 Bft) 100,00 %
22.07.2018 11:26 18,1 C 22,8 C 19,4 C 94 % 1010,8 hPa 0,0 l/m 5,6 km/h (1 Bft) W-SW 255 0 min 0,000 mm 1,2 UV-I 184 W/m 17,1 C 18,1 C 8,0 km/h (2 Bft) 95,83 %
22.07.2018 11:27 18,1 C 22,8 C 19,4 C 94 % 1010,8 hPa 0,0 l/m 11,5 km/h (2 Bft) W-SW 253 0 min 0,000 mm 1,1 UV-I 167 W/m 17,1 C 16,0 C 17,7 km/h (3 Bft) 92,31 %
22.07.2018 11:28 18,1 C 22,8 C 19,4 C 94 % 1010,8 hPa 0,0 l/m 13,7 km/h (3 Bft) W 274 0 min 0,000 mm 1,0 UV-I 163 W/m 17,1 C 15,3 C 17,7 km/h (3 Bft) 100,00 %
22.07.2018 11:29 18,1 C 22,8 C 19,4 C 94 % 1010,8 hPa 0,2 l/m 10,5 km/h (2 Bft) W-SW 248 0 min 0,000 mm 0,9 UV-I 145 W/m 17,1 C 16,4 C 14,5 km/h (3 Bft) 93,33 %
22.07.2018 11:30 18,1 C 22,8 C 19,4 C 94 % 1010,8 hPa 0,0 l/m 9,2 km/h (2 Bft) W 261 0 min 0,000 mm 0,8 UV-I 131 W/m 17,1 C 16,9 C 12,9 km/h (3 Bft) 100,00 %
22.07.2018 11:31 18,2 C 22,8 C 19,4 C 94 % 1010,8 hPa 0,0 l/m 8,2 km/h (2 Bft) W-SW 243 0 min 0,000 mm 0,7 UV-I 118 W/m 17,2 C 17,4 C 11,3 km/h (2 Bft) 100,00 %
22.07.2018 11:33 18,2 C 22,8 C 18,9 C 94 % 1010,8 hPa 0,0 l/m 7,0 km/h (2 Bft) W-SW 257 0 min 0,000 mm 0,8 UV-I 122 W/m 17,2 C 17,9 C 12,9 km/h (3 Bft) 100,00 %
22.07.2018 11:34 18,1 C 22,8 C 18,9 C 94 % 1010,8 hPa 0,0 l/m 9,5 km/h (2 Bft) W 276 0 min 0,000 mm 0,8 UV-I 120 W/m 17,1 C 16,7 C 11,3 km/h (2 Bft) 93,33 %
22.07.2018 11:35 18,1 C 22,8 C 19,4 C 94 % 1010,8 hPa 0,0 l/m 5,8 km/h (2 Bft) W 259 0 min 0,000 mm 0,8 UV-I 121 W/m 17,1 C 18,1 C 9,7 km/h (2 Bft) 100,00 %
22.07.2018 11:36 18,1 C 22,8 C 18,9 C 94 % 1010,8 hPa 0,0 l/m 7,9 km/h (2 Bft) W-SW 254 0 min 0,000 mm 0,8 UV-I 128 W/m 17,1 C 17,4 C 14,5 km/h (3 Bft) 100,00 %
22.07.2018 11:37 18,1 C 22,8 C 18,9 C 94 % 1010,8 hPa 0,0 l/m 9,7 km/h (2 Bft) W 259 0 min 0,000 mm 0,8 UV-I 128 W/m 17,1 C 16,7 C 12,9 km/h (3 Bft) 95,65 %
22.07.2018 11:38 18,1 C 22,8 C 18,9 C 94 % 1010,8 hPa 0,0 l/m 7,6 km/h (2 Bft) SW 234 0 min 0,000 mm 0,8 UV-I 126 W/m 17,1 C 17,5 C 12,9 km/h (3 Bft) 100,00 %
22.07.2018 11:39 18,1 C 22,8 C 18,9 C 94 % 1010,8 hPa 0,0 l/m 7,8 km/h (2 Bft) W 265 0 min 0,000 mm 0,9 UV-I 131 W/m 17,1 C 17,4 C 12,9 km/h (3 Bft) 100,00 %
22.07.2018 11:40 18,1 C 22,8 C 18,9 C 94 % 1010,8 hPa 0,0 l/m 6,6 km/h (2 Bft) W 267 0 min 0,000 mm 0,9 UV-I 132 W/m 17,1 C 18,0 C 11,3 km/h (2 Bft) 100,00 %
22.07.2018 11:41 18,2 C 22,8 C 18,9 C 94 % 1010,8 hPa 0,0 l/m 9,1 km/h (2 Bft) W 273 0 min 0,000 mm 0,8 UV-I 128 W/m 17,2 C 17,0 C 11,3 km/h (2 Bft) 100,00 %
22.07.2018 11:42 18,1 C 22,8 C 18,9 C 94 % 1010,8 hPa 0,0 l/m 7,6 km/h (2 Bft) W-SW 254 0 min 0,000 mm 0,8 UV-I 122 W/m 17,1 C 17,5 C 11,3 km/h (2 Bft) 100,00 %
22.07.2018 11:43 18,1 C 22,8 C 18,9 C 94 % 1010,8 hPa 0,0 l/m 9,5 km/h (2 Bft) W 259 0 min 0,000 mm 0,8 UV-I 119 W/m 17,1 C 16,7 C 14,5 km/h (3 Bft) 100,00 %
22.07.2018 11:44 18,1 C 22,8 C 18,9 C 94 % 1010,8 hPa 0,2 l/m 9,9 km/h (2 Bft) W 273 0 min 0,000 mm 0,7 UV-I 114 W/m 17,1 C 16,6 C 14,5 km/h (3 Bft) 100,00 %
22.07.2018 11:45 18,1 C 22,8 C 18,9 C 94 % 1010,8 hPa 0,0 l/m 7,3 km/h (2 Bft) W 263 0 min 0,000 mm 0,8 UV-I 114 W/m 17,1 C 17,7 C 11,3 km/h (2 Bft) 100,00 %
22.07.2018 11:46 18,1 C 22,8 C 18,9 C 94 % 1010,8 hPa 0,0 l/m 11,0 km/h (2 Bft) W-SW 249 0 min 0,000 mm 0,8 UV-I 114 W/m 17,1 C 16,2 C 14,5 km/h (3 Bft) 100,00 %
22.07.2018 11:47 18,1 C 22,8 C 18,9 C 94 % 1010,8 hPa 0,0 l/m 11,0 km/h (2 Bft) W 281 0 min 0,000 mm 0,8 UV-I 116 W/m 17,1 C 16,2 C 16,1 km/h (3 Bft) 100,00 %
22.07.2018 11:48 18,1 C 22,8 C 18,9 C 94 % 1010,9 hPa 0,0 l/m 8,8 km/h (2 Bft) W 271 0 min 0,000 mm 0,8 UV-I 121 W/m 17,1 C 17,0 C 12,9 km/h (3 Bft) 100,00 %
22.07.2018 11:49 18,1 C 22,8 C 18,9 C 94 % 1010,9 hPa 0,0 l/m 9,8 km/h (2 Bft) W 275 0 min 0,000 mm 0,9 UV-I 135 W/m 17,1 C 16,6 C 12,9 km/h (3 Bft) 100,00 %
22.07.2018 11:50 18,1 C 22,8 C 18,9 C 94 % 1010,9 hPa 0,0 l/m 5,8 km/h (2 Bft) W 263 0 min 0,000 mm 1,0 UV-I 142 W/m 17,1 C 18,1 C 8,0 km/h (2 Bft) 96,15 %
22.07.2018 11:51 18,1 C 22,8 C 18,9 C 94 % 1010,8 hPa 0,0 l/m 8,9 km/h (2 Bft) W 265 0 min 0,000 mm 1,0 UV-I 147 W/m 17,1 C 17,0 C 12,9 km/h (3 Bft) 100,00 %
22.07.2018 11:52 18,1 C 22,8 C 18,9 C 94 % 1010,8 hPa 0,2 l/m 12,5 km/h (3 Bft) W 262 0 min 0,000 mm 1,0 UV-I 147 W/m 17,1 C 15,7 C 17,7 km/h (3 Bft) 100,00 %
22.07.2018 11:53 18,1 C 22,8 C 18,9 C 94 % 1010,9 hPa 0,0 l/m 10,0 km/h (2 Bft) W 269 0 min 0,000 mm 1,1 UV-I 153 W/m 17,1 C 16,5 C 14,5 km/h (3 Bft) 100,00 %
22.07.2018 11:54 18,1 C 22,8 C 18,9 C 94 % 1010,8 hPa 0,0 l/m 8,1 km/h (2 Bft) W-SW 246 0 min 0,000 mm 1,1 UV-I 156 W/m 17,1 C 17,3 C 12,9 km/h (3 Bft) 100,00 %
22.07.2018 11:55 18,1 C 22,8 C 18,9 C 94 % 1010,8 hPa 0,0 l/m 9,9 km/h (2 Bft) W 273 0 min 0,000 mm 1,1 UV-I 156 W/m 17,1 C 16,6 C 14,5 km/h (3 Bft) 100,00 %
22.07.2018 11:56 18,1 C 22,8 C 19,4 C 94 % 1010,8 hPa 0,0 l/m 10,1 km/h (2 Bft) W 259 0 min 0,000 mm 1,1 UV-I 156 W/m 17,1 C 16,5 C 14,5 km/h (3 Bft) 100,00 %
22.07.2018 11:57 18,1 C 22,8 C 19,4 C 94 % 1010,9 hPa 0,0 l/m 9,0 km/h (2 Bft) W-SW 258 0 min 0,000 mm 1,1 UV-I 156 W/m 17,1 C 16,9 C 12,9 km/h (3 Bft) 96,97 %
22.07.2018 11:58 18,1 C 22,8 C 19,4 C 94 % 1010,9 hPa 0,0 l/m 11,8 km/h (2 Bft) W-SW 248 0 min 0,000 mm 1,1 UV-I 158 W/m 17,1 C 15,9 C 16,1 km/h (3 Bft) 100,00 %
22.07.2018 11:59 18,1 C 22,8 C 19,4 C 94 % 1010,8 hPa 0,0 l/m 14,3 km/h (3 Bft) W-SW 258 0 min 0,000 mm 1,1 UV-I 158 W/m 17,1 C 15,1 C 17,7 km/h (3 Bft) 100,00 %
22.07.2018 12:00 18,1 C 22,8 C 18,9 C 94 % 1010,8 hPa 0,0 l/m 7,9 km/h (2 Bft) W 278 0 min 0,102 mm 1,1 UV-I 159 W/m 17,1 C 17,4 C 11,3 km/h (2 Bft) 96,55 %
22.07.2018 12:02 18,1 C 22,8 C 18,9 C 94 % 1010,9 hPa 0,0 l/m 6,8 km/h (2 Bft) W-SW 255 0 min 0,000 mm 1,1 UV-I 162 W/m 17,1 C 17,9 C 12,9 km/h (3 Bft) 97,44 %
22.07.2018 12:03 18,1 C 22,8 C 18,9 C 94 % 1010,8 hPa 0,0 l/m 12,0 km/h (2 Bft) SW 221 0 min 0,000 mm 1,2 UV-I 167 W/m 17,1 C 15,8 C 16,1 km/h (3 Bft) 96,88 %
22.07.2018 12:04 18,1 C 22,8 C 18,9 C 94 % 1010,9 hPa 0,2 l/m 10,3 km/h (2 Bft) SW 235 0 min 0,000 mm 1,2 UV-I 169 W/m 17,1 C 16,4 C 12,9 km/h (3 Bft) 100,00 %
22.07.2018 12:05 18,1 C 22,8 C 18,9 C 94 % 1010,9 hPa 0,0 l/m 7,9 km/h (2 Bft) W 264 0 min 0,000 mm 1,2 UV-I 170 W/m 17,1 C 17,4 C 11,3 km/h (2 Bft) 96,15 %
22.07.2018 12:06 18,1 C 22,8 C 18,9 C 94 % 1010,9 hPa 0,0 l/m 7,9 km/h (2 Bft) W 261 0 min 0,000 mm 1,2 UV-I 172 W/m 17,1 C 17,4 C 11,3 km/h (2 Bft) 100,00 %
22.07.2018 12:07 18,2 C 22,8 C 19,4 C 94 % 1010,9 hPa 0,0 l/m 4,8 km/h (1 Bft) W-SW 243 0 min 0,000 mm 1,2 UV-I 175 W/m 17,2 C 18,2 C 6,4 km/h (2 Bft) 92,86 %
22.07.2018 12:08 18,2 C 22,8 C 19,4 C 94 % 1010,9 hPa 0,0 l/m 6,6 km/h (2 Bft) W 267 0 min 0,000 mm 1,3 UV-I 180 W/m 17,2 C 18,1 C 12,9 km/h (3 Bft) 100,00 %
22.07.2018 12:09 18,2 C 22,8 C 19,4 C 94 % 1010,9 hPa 0,0 l/m 11,9 km/h (2 Bft) W-SW 247 0 min 0,000 mm 1,3 UV-I 185 W/m 17,2 C 16,0 C 14,5 km/h (3 Bft) 95,65 %
22.07.2018 12:10 18,2 C 22,8 C 19,4 C 95 % 1010,9 hPa 0,0 l/m 8,8 km/h (2 Bft) SW 232 0 min 0,000 mm 1,3 UV-I 189 W/m 17,4 C 17,1 C 12,9 km/h (3 Bft) 100,00 %
22.07.2018 12:11 18,2 C 22,8 C 19,4 C 95 % 1010,9 hPa 0,0 l/m 11,5 km/h (2 Bft) W-SW 254 0 min 0,000 mm 1,3 UV-I 192 W/m 17,4 C 16,1 C 12,9 km/h (3 Bft) 96,15 %
22.07.2018 12:13 18,2 C 22,8 C 19,4 C 95 % 1011,0 hPa 0,0 l/m 10,0 km/h (2 Bft) W 259 0 min 0,000 mm 1,3 UV-I 189 W/m 17,4 C 16,7 C 14,5 km/h (3 Bft) 98,21 %
22.07.2018 12:14 18,3 C 22,8 C 19,4 C 95 % 1011,0 hPa 0,0 l/m 8,2 km/h (2 Bft) W 274 0 min 0,000 mm 1,2 UV-I 177 W/m 17,5 C 17,5 C 11,3 km/h (2 Bft) 100,00 %
22.07.2018 12:15 18,3 C 22,8 C 20,0 C 95 % 1010,9 hPa 0,0 l/m 7,3 km/h (2 Bft) W-SW 247 0 min 0,000 mm 1,2 UV-I 176 W/m 17,5 C 17,9 C 9,7 km/h (2 Bft) 96,15 %
22.07.2018 12:16 18,3 C 22,8 C 20,0 C 95 % 1010,9 hPa 0,0 l/m 8,6 km/h (2 Bft) W 261 0 min 0,000 mm 1,2 UV-I 169 W/m 17,5 C 17,3 C 14,5 km/h (3 Bft) 96,30 %
22.07.2018 12:17 18,3 C 22,8 C 20,0 C 95 % 1011,0 hPa 0,0 l/m 7,8 km/h (2 Bft) W-NW 285 0 min 0,000 mm 1,1 UV-I 161 W/m 17,5 C 17,7 C 11,3 km/h (2 Bft) 100,00 %
22.07.2018 12:18 18,3 C 22,8 C 20,0 C 95 % 1011,0 hPa 0,0 l/m 5,5 km/h (1 Bft) SW 234 0 min 0,000 mm 1,0 UV-I 148 W/m 17,5 C 18,3 C 8,0 km/h (2 Bft) 97,14 %
22.07.2018 12:19 18,3 C 22,8 C 19,4 C 95 % 1011,0 hPa 0,0 l/m 7,1 km/h (2 Bft) W 269 0 min 0,000 mm 1,0 UV-I 146 W/m 17,5 C 18,0 C 9,7 km/h (2 Bft) 95,65 %
22.07.2018 12:20 18,3 C 22,8 C 19,4 C 95 % 1011,0 hPa 0,0 l/m 5,8 km/h (2 Bft) W-SW 240 0 min 0,000 mm 1,0 UV-I 146 W/m 17,5 C 18,3 C 9,7 km/h (2 Bft) 95,83 %
22.07.2018 12:21 18,3 C 22,8 C 19,4 C 95 % 1010,9 hPa 0,0 l/m 7,5 km/h (2 Bft) SW 228 0 min 0,000 mm 1,0 UV-I 144 W/m 17,5 C 17,8 C 9,7 km/h (2 Bft) 100,00 %
22.07.2018 12:22 18,3 C 22,8 C 19,4 C 95 % 1011,0 hPa 0,0 l/m 9,4 km/h (2 Bft) W 270 0 min 0,000 mm 1,0 UV-I 144 W/m 17,5 C 17,0 C 12,9 km/h (3 Bft) 95,83 %
22.07.2018 12:23 18,3 C 22,8 C 19,4 C 95 % 1011,0 hPa 0,2 l/m 9,1 km/h (2 Bft) W 260 0 min 0,000 mm 1,0 UV-I 141 W/m 17,5 C 17,1 C 12,9 km/h (3 Bft) 91,30 %
22.07.2018 12:24 18,3 C 22,8 C 19,4 C 95 % 1011,0 hPa 0,0 l/m 8,6 km/h (2 Bft) W-SW 254 0 min 0,000 mm 1,0 UV-I 140 W/m 17,5 C 17,3 C 11,3 km/h (2 Bft) 100,00 %
22.07.2018 12:25 18,3 C 22,8 C 19,4 C 95 % 1011,0 hPa 0,0 l/m 10,0 km/h (2 Bft) SW 223 0 min 0,000 mm 1,0 UV-I 140 W/m 17,5 C 16,8 C 11,3 km/h (2 Bft) 100,00 %
22.07.2018 12:26 18,3 C 22,8 C 18,9 C 95 % 1011,0 hPa 0,0 l/m 9,0 km/h (2 Bft) W-SW 247 0 min 0,000 mm 1,0 UV-I 141 W/m 17,5 C 17,1 C 12,9 km/h (3 Bft) 96,15 %
22.07.2018 12:27 18,3 C 22,8 C 18,9 C 95 % 1011,0 hPa 0,0 l/m 6,9 km/h (2 Bft) W-NW 283 0 min 0,000 mm 1,0 UV-I 146 W/m 17,5 C 18,1 C 9,7 km/h (2 Bft) 96,30 %
22.07.2018 12:28 18,3 C 22,8 C 18,9 C 95 % 1011,1 hPa 0,0 l/m 6,5 km/h (2 Bft) W 276 0 min 0,000 mm 1,1 UV-I 150 W/m 17,5 C 18,3 C 11,3 km/h (2 Bft) 100,00 %
22.07.2018 12:29 18,3 C 22,8 C 19,4 C 95 % 1011,1 hPa 0,0 l/m 8,1 km/h (2 Bft) W-SW 258 0 min 0,000 mm 1,1 UV-I 152 W/m 17,5 C 17,5 C 12,9 km/h (3 Bft) 93,33 %
22.07.2018 12:30 18,3 C 22,8 C 19,4 C 95 % 1011,1 hPa 0,0 l/m 10,2 km/h (2 Bft) W-SW 256 0 min 0,000 mm 1,1 UV-I 157 W/m 17,5 C 16,7 C 17,7 km/h (3 Bft) 100,00 %
22.07.2018 12:31 18,3 C 22,8 C 19,4 C 95 % 1011,1 hPa 0,0 l/m 9,8 km/h (2 Bft) W 260 0 min 0,000 mm 1,2 UV-I 166 W/m 17,5 C 16,8 C 11,3 km/h (2 Bft) 96,30 %
22.07.2018 12:33 18,3 C 22,8 C 19,4 C 95 % 1011,1 hPa 0,0 l/m 7,9 km/h (2 Bft) W-SW 251 0 min 0,000 mm 1,3 UV-I 169 W/m 17,5 C 17,6 C 16,1 km/h (3 Bft) 98,11 %
22.07.2018 12:34 18,3 C 22,8 C 19,4 C 94 % 1011,1 hPa 0,0 l/m 7,7 km/h (2 Bft) SW 235 0 min 0,000 mm 1,2 UV-I 166 W/m 17,3 C 17,7 C 9,7 km/h (2 Bft) 100,00 %
22.07.2018 12:35 18,3 C 22,8 C 19,4 C 94 % 1011,1 hPa 0,0 l/m 7,8 km/h (2 Bft) W 265 0 min 0,000 mm 1,2 UV-I 162 W/m 17,3 C 17,7 C 14,5 km/h (3 Bft) 96,30 %
22.07.2018 12:36 18,3 C 22,8 C 19,4 C 94 % 1011,2 hPa 0,0 l/m 6,5 km/h (2 Bft) W 279 0 min 0,000 mm 1,2 UV-I 162 W/m 17,3 C 18,3 C 11,3 km/h (2 Bft) 91,30 %
22.07.2018 12:37 18,4 C 22,8 C 19,4 C 95 % 1011,2 hPa 0,0 l/m 7,8 km/h (2 Bft) W 281 0 min 0,000 mm 1,1 UV-I 153 W/m 17,6 C 17,8 C 11,3 km/h (2 Bft) 100,00 %
22.07.2018 12:38 18,4 C 22,8 C 19,4 C 94 % 1011,2 hPa 0,0 l/m 5,7 km/h (1 Bft) W-SW 244 0 min 0,000 mm 1,1 UV-I 143 W/m 17,4 C 18,4 C 9,7 km/h (2 Bft) 91,30 %
22.07.2018 12:39 18,4 C 22,8 C 19,4 C 94 % 1011,2 hPa 0,0 l/m 5,9 km/h (2 Bft) W-SW 257 0 min 0,000 mm 1,1 UV-I 148 W/m 17,4 C 18,4 C 12,9 km/h (3 Bft) 100,00 %
22.07.2018 12:40 18,4 C 22,8 C 19,4 C 94 % 1011,2 hPa 0,0 l/m 8,9 km/h (2 Bft) W 260 0 min 0,000 mm 1,1 UV-I 146 W/m 17,4 C 17,3 C 12,9 km/h (3 Bft) 91,67 %
22.07.2018 12:41 18,4 C 22,8 C 19,4 C 94 % 1011,2 hPa 0,0 l/m 8,9 km/h (2 Bft) W 267 0 min 0,000 mm 1,1 UV-I 149 W/m 17,4 C 17,3 C 11,3 km/h (2 Bft) 96,88 %
22.07.2018 12:42 18,4 C 22,8 C 19,4 C 94 % 1011,2 hPa 0,0 l/m 8,9 km/h (2 Bft) W-NW 282 0 min 0,000 mm 1,0 UV-I 144 W/m 17,4 C 17,3 C 14,5 km/h (3 Bft) 88,46 %
22.07.2018 12:43 18,4 C 22,8 C 19,4 C 94 % 1011,2 hPa 0,0 l/m 6,8 km/h (2 Bft) W 260 0 min 0,000 mm 1,0 UV-I 136 W/m 17,4 C 18,2 C 11,3 km/h (2 Bft) 100,00 %
22.07.2018 12:44 18,4 C 22,8 C 19,4 C 94 % 1011,2 hPa 0,0 l/m 7,6 km/h (2 Bft) W-SW 242 0 min 0,000 mm 1,0 UV-I 137 W/m 17,4 C 17,8 C 9,7 km/h (2 Bft) 91,67 %
22.07.2018 12:45 18,4 C 22,8 C 19,4 C 94 % 1011,3 hPa 0,0 l/m 6,2 km/h (2 Bft) W-SW 248 0 min 0,000 mm 1,0 UV-I 137 W/m 17,4 C 18,4 C 8,0 km/h (2 Bft) 100,00 %
22.07.2018 12:46 18,4 C 22,8 C 19,4 C 94 % 1011,3 hPa 0,0 l/m 6,1 km/h (2 Bft) SW 230 0 min 0,000 mm 1,0 UV-I 131 W/m 17,4 C 18,4 C 9,7 km/h (2 Bft) 92,59 %
22.07.2018 12:47 18,4 C 22,8 C 19,4 C 94 % 1011,2 hPa 0,0 l/m 5,6 km/h (1 Bft) W 266 0 min 0,000 mm 1,0 UV-I 132 W/m 17,4 C 18,4 C 6,4 km/h (2 Bft) 86,96 %
22.07.2018 12:48 18,4 C 22,8 C 19,4 C 94 % 1011,3 hPa 0,0 l/m 6,5 km/h (2 Bft) W 262 0 min 0,000 mm 1,0 UV-I 132 W/m 17,4 C 18,4 C 9,7 km/h (2 Bft) 95,83 %
22.07.2018 12:49 18,4 C 22,8 C 19,4 C 94 % 1011,2 hPa 0,0 l/m 6,7 km/h (2 Bft) W-SW 242 0 min 0,000 mm 1,0 UV-I 131 W/m 17,4 C 18,3 C 11,3 km/h (2 Bft) 100,00 %
22.07.2018 12:50 18,4 C 22,8 C 19,4 C 94 % 1011,2 hPa 0,0 l/m 6,7 km/h (2 Bft) W-SW 244 0 min 0,000 mm 0,9 UV-I 127 W/m 17,4 C 18,3 C 8,0 km/h (2 Bft) 88,89 %
22.07.2018 12:51 18,5 C 22,8 C 19,4 C 94 % 1011,2 hPa 0,0 l/m 7,8 km/h (2 Bft) SW 227 0 min 0,000 mm 0,9 UV-I 127 W/m 17,5 C 17,9 C 12,9 km/h (3 Bft) 91,30 %
22.07.2018 12:52 18,5 C 22,8 C 19,4 C 94 % 1011,2 hPa 0,0 l/m 9,1 km/h (2 Bft) W-SW 250 0 min 0,000 mm 0,9 UV-I 123 W/m 17,5 C 17,3 C 12,9 km/h (3 Bft) 92,59 %
22.07.2018 12:53 18,4 C 22,8 C 19,4 C 94 % 1011,2 hPa 0,0 l/m 7,7 km/h (2 Bft) SW 234 0 min 0,000 mm 0,9 UV-I 120 W/m 17,4 C 17,8 C 11,3 km/h (2 Bft) 91,30 %
22.07.2018 12:54 18,4 C 22,8 C 19,4 C 94 % 1011,2 hPa 0,0 l/m 6,4 km/h (2 Bft) SW 235 0 min 0,000 mm 0,9 UV-I 122 W/m 17,4 C 18,4 C 9,7 km/h (2 Bft) 95,83 %
22.07.2018 12:55 18,4 C 22,8 C 19,4 C 94 % 1011,2 hPa 0,0 l/m 5,7 km/h (1 Bft) W-SW 246 0 min 0,000 mm 1,0 UV-I 127 W/m 17,4 C 18,4 C 11,3 km/h (2 Bft) 91,30 %
22.07.2018 12:56 18,5 C 22,8 C 19,4 C 94 % 1011,3 hPa 0,0 l/m 8,6 km/h (2 Bft) SW 219 0 min 0,000 mm 1,0 UV-I 132 W/m 17,5 C 17,5 C 11,3 km/h (2 Bft) 95,83 %
22.07.2018 12:57 18,5 C 22,8 C 19,4 C 94 % 1011,3 hPa 0,0 l/m 7,0 km/h (2 Bft) W-SW 257 0 min 0,000 mm 1,0 UV-I 135 W/m 17,5 C 18,2 C 9,7 km/h (2 Bft) 82,61 %
22.07.2018 12:58 18,5 C 22,8 C 19,4 C 94 % 1011,3 hPa 0,0 l/m 7,2 km/h (2 Bft) W-SW 240 0 min 0,000 mm 1,1 UV-I 143 W/m 17,5 C 18,1 C 11,3 km/h (2 Bft) 95,83 %
22.07.2018 12:59 18,5 C 22,8 C 19,4 C 94 % 1011,3 hPa 0,0 l/m 4,8 km/h (1 Bft) W 265 0 min 0,000 mm 1,1 UV-I 147 W/m 17,5 C 18,5 C 6,4 km/h (2 Bft) 91,30 %
22.07.2018 13:00 18,5 C 22,8 C 19,4 C 94 % 1011,3 hPa 0,0 l/m 5,4 km/h (1 Bft) W 266 0 min 0,000 mm 1,1 UV-I 148 W/m 17,5 C 18,5 C 9,7 km/h (2 Bft) 95,83 %
22.07.2018 13:02 18,6 C 22,8 C 19,4 C 95 % 1011,3 hPa 0,0 l/m 5,3 km/h (1 Bft) W-SW 254 0 min 0,101 mm 1,1 UV-I 152 W/m 17,8 C 18,6 C 8,0 km/h (2 Bft) 93,62 %
22.07.2018 13:04 18,7 C 22,8 C 20,0 C 95 % 1011,3 hPa 0,0 l/m 4,6 km/h (1 Bft) W-SW 256 0 min 0,000 mm 1,2 UV-I 154 W/m 17,9 C 18,7 C 6,4 km/h (2 Bft) 91,49 %
22.07.2018 13:06 18,7 C 22,8 C 20,0 C 95 % 1011,3 hPa 0,0 l/m 7,0 km/h (2 Bft) W 268 0 min 0,000 mm 1,2 UV-I 154 W/m 17,9 C 18,4 C 11,3 km/h (2 Bft) 95,74 %
22.07.2018 13:08 18,7 C 22,8 C 20,0 C 95 % 1011,3 hPa 0,0 l/m 5,9 km/h (2 Bft) W-SW 256 0 min 0,000 mm 1,1 UV-I 150 W/m 17,9 C 18,7 C 9,7 km/h (2 Bft) 93,62 %
22.07.2018 13:10 18,6 C 22,8 C 20,0 C 95 % 1011,3 hPa 0,0 l/m 7,8 km/h (2 Bft) W 265 0 min 0,000 mm 1,1 UV-I 145 W/m 17,8 C 18,0 C 14,5 km/h (3 Bft) 93,62 %
22.07.2018 13:12 18,6 C 22,8 C 19,4 C 94 % 1011,3 hPa 0,0 l/m 7,4 km/h (2 Bft) W 259 0 min 0,000 mm 1,0 UV-I 138 W/m 17,6 C 18,1 C 11,3 km/h (2 Bft) 94,00 %
22.07.2018 13:14 18,6 C 22,8 C 19,4 C 94 % 1011,4 hPa 0,0 l/m 6,7 km/h (2 Bft) W-SW 250 0 min 0,000 mm 1,0 UV-I 133 W/m 17,6 C 18,5 C 11,3 km/h (2 Bft) 97,87 %
22.07.2018 13:16 18,6 C 22,8 C 19,4 C 94 % 1011,3 hPa 0,0 l/m 8,3 km/h (2 Bft) W-SW 248 0 min 0,000 mm 1,0 UV-I 130 W/m 17,6 C 17,8 C 12,9 km/h (3 Bft) 97,87 %
22.07.2018 13:19 18,6 C 22,8 C 19,4 C 94 % 1011,3 hPa 0,0 l/m 8,6 km/h (2 Bft) W 269 0 min 0,000 mm 1,0 UV-I 132 W/m 17,6 C 17,6 C 14,5 km/h (3 Bft) 97,18 %
22.07.2018 13:20 18,6 C 22,8 C 19,4 C 94 % 1011,3 hPa 0,0 l/m 9,7 km/h (2 Bft) W 263 0 min 0,000 mm 1,0 UV-I 135 W/m 17,6 C 17,2 C 12,9 km/h (3 Bft) 100,00 %
22.07.2018 13:22 18,6 C 22,8 C 19,4 C 94 % 1011,4 hPa 0,0 l/m 8,8 km/h (2 Bft) W 280 0 min 0,000 mm 1,0 UV-I 131 W/m 17,6 C 17,6 C 14,5 km/h (3 Bft) 96,00 %
22.07.2018 13:24 18,7 C 22,8 C 19,4 C 94 % 1011,5 hPa 0,0 l/m 6,5 km/h (2 Bft) W 261 0 min 0,000 mm 0,9 UV-I 125 W/m 17,7 C 18,7 C 9,7 km/h (2 Bft) 98,00 %
22.07.2018 13:26 18,7 C 22,8 C 19,4 C 94 % 1011,5 hPa 0,0 l/m 7,3 km/h (2 Bft) W-SW 244 0 min 0,000 mm 0,8 UV-I 117 W/m 17,7 C 18,3 C 16,1 km/h (3 Bft) 100,00 %
22.07.2018 13:29 18,7 C 22,8 C 19,4 C 94 % 1011,4 hPa 0,0 l/m 6,5 km/h (2 Bft) SW 234 0 min 0,000 mm 0,8 UV-I 111 W/m 17,7 C 18,7 C 12,9 km/h (3 Bft) 100,00 %
22.07.2018 13:30 18,7 C 22,8 C 19,4 C 94 % 1011,4 hPa 0,0 l/m 8,0 km/h (2 Bft) W 270 0 min 0,000 mm 0,8 UV-I 113 W/m 17,7 C 18,0 C 16,1 km/h (3 Bft) 98,25 %
22.07.2018 13:32 18,7 C 22,8 C 19,4 C 93 % 1011,4 hPa 0,0 l/m 8,2 km/h (2 Bft) W-SW 255 0 min 0,000 mm 0,8 UV-I 115 W/m 17,5 C 17,9 C 9,7 km/h (2 Bft) 97,33 %
22.07.2018 13:34 18,7 C 22,8 C 19,4 C 93 % 1011,4 hPa 0,0 l/m 7,8 km/h (2 Bft) W-SW 246 0 min 0,000 mm 0,8 UV-I 118 W/m 17,5 C 18,1 C 11,3 km/h (2 Bft) 100,00 %
22.07.2018 13:36 18,7 C 22,8 C 19,4 C 94 % 1011,4 hPa 0,0 l/m 7,1 km/h (2 Bft) W 269 0 min 0,000 mm 0,9 UV-I 122 W/m 17,7 C 18,4 C 12,9 km/h (3 Bft) 98,00 %
22.07.2018 13:39 18,8 C 22,8 C 19,4 C 94 % 1011,4 hPa 0,0 l/m 7,2 km/h (2 Bft) W 267 0 min 0,000 mm 0,8 UV-I 120 W/m 17,8 C 18,4 C 11,3 km/h (2 Bft) 100,00 %
22.07.2018 13:40 18,8 C 22,8 C 19,4 C 94 % 1011,4 hPa 0,0 l/m 6,5 km/h (2 Bft) W-SW 254 0 min 0,000 mm 0,8 UV-I 118 W/m 17,8 C 18,8 C 11,3 km/h (2 Bft) 100,00 %
22.07.2018 13:42 18,8 C 22,8 C 19,4 C 94 % 1011,3 hPa 0,0 l/m 5,1 km/h (1 Bft) W 263 0 min 0,000 mm 0,8 UV-I 121 W/m 17,8 C 18,8 C 8,0 km/h (2 Bft) 96,00 %
22.07.2018 13:44 18,8 C 22,8 C 19,4 C 94 % 1011,3 hPa 0,0 l/m 7,1 km/h (2 Bft) W-SW 244 0 min 0,000 mm 0,9 UV-I 128 W/m 17,8 C 18,5 C 9,7 km/h (2 Bft) 100,00 %
22.07.2018 13:46 18,8 C 22,8 C 19,4 C 94 % 1011,4 hPa 0,0 l/m 7,9 km/h (2 Bft) SW 236 0 min 0,000 mm 1,0 UV-I 137 W/m 17,8 C 18,1 C 16,1 km/h (3 Bft) 100,00 %
22.07.2018 13:49 18,8 C 22,8 C 20,0 C 94 % 1011,4 hPa 0,0 l/m 5,9 km/h (2 Bft) W 265 0 min 0,000 mm 1,1 UV-I 153 W/m 17,8 C 18,8 C 11,3 km/h (2 Bft) 100,00 %
22.07.2018 13:50 18,9 C 22,8 C 20,0 C 94 % 1011,4 hPa 0,0 l/m 5,3 km/h (1 Bft) W 267 0 min 0,000 mm 1,2 UV-I 165 W/m 17,9 C 18,9 C 6,4 km/h (2 Bft) 100,00 %
22.07.2018 13:52 18,9 C 22,8 C 20,0 C 94 % 1011,5 hPa 0,0 l/m 4,1 km/h (1 Bft) W 265 0 min 0,000 mm 1,3 UV-I 176 W/m 17,9 C 18,9 C 9,7 km/h (2 Bft) 100,00 %
22.07.2018 13:54 18,9 C 22,8 C 20,6 C 94 % 1011,5 hPa 0,0 l/m 5,2 km/h (1 Bft) W-NW 282 0 min 0,000 mm 1,4 UV-I 187 W/m 17,9 C 18,9 C 8,0 km/h (2 Bft) 100,00 %
22.07.2018 13:56 18,9 C 22,8 C 20,6 C 94 % 1011,5 hPa 0,0 l/m 4,2 km/h (1 Bft) W 271 0 min 0,000 mm 1,5 UV-I 197 W/m 17,9 C 18,9 C 6,4 km/h (2 Bft) 100,00 %
22.07.2018 13:58 19,0 C 22,8 C 20,6 C 94 % 1011,5 hPa 0,0 l/m 5,6 km/h (1 Bft) W 259 0 min 0,000 mm 1,6 UV-I 211 W/m 18,0 C 19,0 C 11,3 km/h (2 Bft) 97,87 %
22.07.2018 14:00 19,0 C 22,8 C 20,6 C 94 % 1011,4 hPa 0,0 l/m 7,2 km/h (2 Bft) W 277 0 min 0,076 mm 1,7 UV-I 228 W/m 18,0 C 18,6 C 11,3 km/h (2 Bft) 98,00 %
22.07.2018 14:02 19,1 C 22,8 C 20,6 C 93 % 1011,5 hPa 0,0 l/m 7,2 km/h (2 Bft) W 266 0 min 0,000 mm 1,8 UV-I 245 W/m 17,9 C 18,7 C 12,9 km/h (3 Bft) 100,00 %
22.07.2018 14:04 19,2 C 22,8 C 21,1 C 94 % 1011,5 hPa 0,0 l/m 5,7 km/h (1 Bft) W 260 0 min 0,000 mm 1,8 UV-I 253 W/m 18,2 C 19,2 C 9,7 km/h (2 Bft) 97,87 %
22.07.2018 14:06 19,3 C 22,8 C 21,1 C 94 % 1011,5 hPa 0,0 l/m 5,7 km/h (1 Bft) W-SW 253 0 min 0,000 mm 1,8 UV-I 251 W/m 18,3 C 19,3 C 9,7 km/h (2 Bft) 95,74 %
22.07.2018 14:08 19,3 C 22,8 C 21,7 C 93 % 1011,4 hPa 0,0 l/m 4,3 km/h (1 Bft) W 271 0 min 0,000 mm 1,8 UV-I 249 W/m 18,1 C 19,3 C 6,4 km/h (2 Bft) 97,87 %
22.07.2018 14:10 19,4 C 22,8 C 21,7 C 93 % 1011,5 hPa 0,0 l/m 4,0 km/h (1 Bft) W-NW 301 0 min 0,000 mm 2,0 UV-I 266 W/m 18,2 C 19,4 C 8,0 km/h (2 Bft) 96,00 %
22.07.2018 14:12 19,4 C 22,8 C 21,7 C 93 % 1011,4 hPa 0,0 l/m 4,9 km/h (1 Bft) NW 309 0 min 0,000 mm 2,0 UV-I 272 W/m 18,2 C 19,4 C 8,0 km/h (2 Bft) 97,37 %
22.07.2018 14:14 19,4 C 22,8 C 22,2 C 93 % 1011,4 hPa 0,0 l/m 3,6 km/h (1 Bft) W-SW 243 0 min 0,000 mm 2,2 UV-I 322 W/m 18,2 C 19,4 C 6,4 km/h (2 Bft) 96,00 %
22.07.2018 14:16 19,6 C 22,8 C 22,8 C 93 % 1011,4 hPa 0,0 l/m 4,2 km/h (1 Bft) N-NW 327 0 min 0,000 mm 2,5 UV-I 360 W/m 18,4 C 19,6 C 6,4 km/h (2 Bft) 97,87 %
22.07.2018 14:19 19,7 C 22,8 C 22,8 C 93 % 1011,4 hPa 0,0 l/m 6,0 km/h (2 Bft) W 266 0 min 0,000 mm 2,8 UV-I 402 W/m 18,5 C 19,7 C 17,7 km/h (3 Bft) 97,18 %
22.07.2018 14:20 19,7 C 22,8 C 22,8 C 91 % 1011,4 hPa 0,0 l/m 3,8 km/h (1 Bft) W 269 0 min 0,000 mm 2,9 UV-I 431 W/m 18,2 C 19,7 C 6,4 km/h (2 Bft) 100,00 %
22.07.2018 14:22 19,7 C 22,8 C 22,8 C 91 % 1011,4 hPa 0,0 l/m 8,3 km/h (2 Bft) W-SW 242 0 min 0,000 mm 2,4 UV-I 436 W/m 18,2 C 18,9 C 12,9 km/h (3 Bft) 97,87 %
22.07.2018 14:24 19,8 C 22,8 C 22,8 C 90 % 1011,4 hPa 0,0 l/m 5,1 km/h (1 Bft) W-NW 296 0 min 0,000 mm 2,2 UV-I 421 W/m 18,1 C 19,8 C 8,0 km/h (2 Bft) 93,62 %
22.07.2018 14:26 19,9 C 22,8 C 23,3 C 90 % 1011,4 hPa 0,0 l/m 9,7 km/h (2 Bft) W 269 0 min 0,000 mm 2,5 UV-I 421 W/m 18,2 C 18,6 C 16,1 km/h (3 Bft) 97,87 %
22.07.2018 14:28 19,9 C 22,8 C 23,3 C 87 % 1011,4 hPa 0,0 l/m 6,6 km/h (2 Bft) W-SW 246 0 min 0,000 mm 2,7 UV-I 458 W/m 17,7 C 19,8 C 11,3 km/h (2 Bft) 97,87 %
22.07.2018 14:30 20,2 C 22,8 C 23,9 C 89 % 1011,4 hPa 0,0 l/m 5,7 km/h (1 Bft) W-SW 249 2 min 0,000 mm 2,7 UV-I 461 W/m 18,3 C 20,2 C 9,7 km/h (2 Bft) 93,62 %
22.07.2018 14:32 20,3 C 22,8 C 23,9 C 88 % 1011,4 hPa 0,0 l/m 7,2 km/h (2 Bft) SW 219 0 min 0,000 mm 2,7 UV-I 434 W/m 18,2 C 20,0 C 11,3 km/h (2 Bft) 97,87 %
22.07.2018 14:34 20,3 C 22,8 C 23,3 C 86 % 1011,4 hPa 0,0 l/m 5,7 km/h (1 Bft) W-SW 245 0 min 0,000 mm 2,7 UV-I 432 W/m 17,9 C 20,3 C 11,3 km/h (2 Bft) 100,00 %
22.07.2018 14:36 20,3 C 22,8 C 23,9 C 87 % 1011,4 hPa 0,0 l/m 4,6 km/h (1 Bft) W 262 0 min 0,000 mm 2,7 UV-I 427 W/m 18,1 C 20,3 C 6,4 km/h (2 Bft) 100,00 %
22.07.2018 14:39 20,4 C 22,8 C 23,3 C 82 % 1011,3 hPa 0,0 l/m 6,2 km/h (2 Bft) W 264 0 min 0,000 mm 2,7 UV-I 427 W/m 17,2 C 20,4 C 12,9 km/h (3 Bft) 97,14 %
22.07.2018 14:40 20,4 C 22,8 C 23,3 C 81 % 1011,3 hPa 0,0 l/m 6,4 km/h (2 Bft) SW 233 0 min 0,000 mm 2,6 UV-I 410 W/m 17,0 C 20,4 C 12,9 km/h (3 Bft) 100,00 %
22.07.2018 14:42 20,4 C 22,8 C 23,9 C 81 % 1011,4 hPa 0,0 l/m 4,4 km/h (1 Bft) W 279 0 min 0,000 mm 2,5 UV-I 396 W/m 17,0 C 20,4 C 8,0 km/h (2 Bft) 97,87 %
22.07.2018 14:44 20,3 C 22,8 C 23,9 C 81 % 1011,3 hPa 0,0 l/m 4,0 km/h (1 Bft) W 275 0 min 0,000 mm 2,5 UV-I 382 W/m 16,9 C 20,3 C 8,0 km/h (2 Bft) 97,87 %
22.07.2018 14:46 20,3 C 22,8 C 23,3 C 82 % 1011,4 hPa 0,0 l/m 4,8 km/h (1 Bft) SW 228 0 min 0,000 mm 2,4 UV-I 371 W/m 17,1 C 20,3 C 9,7 km/h (2 Bft) 97,87 %
22.07.2018 14:49 20,4 C 22,8 C 23,3 C 85 % 1011,4 hPa 0,0 l/m 5,0 km/h (1 Bft) W 259 0 min 0,000 mm 2,2 UV-I 350 W/m 17,8 C 20,4 C 8,0 km/h (2 Bft) 96,92 %
22.07.2018 14:50 20,4 C 22,8 C 23,9 C 80 % 1011,5 hPa 0,0 l/m 4,6 km/h (1 Bft) W-SW 244 0 min 0,000 mm 2,2 UV-I 339 W/m 16,8 C 20,4 C 4,8 km/h (1 Bft) 96,15 %
22.07.2018 14:52 20,5 C 22,8 C 23,9 C 83 % 1011,5 hPa 0,0 l/m 6,1 km/h (2 Bft) W-SW 256 0 min 0,000 mm 2,1 UV-I 328 W/m 17,5 C 20,5 C 9,7 km/h (2 Bft) 97,87 %
22.07.2018 14:54 20,4 C 22,8 C 23,3 C 83 % 1011,4 hPa 0,0 l/m 8,3 km/h (2 Bft) W 278 0 min 0,000 mm 2,1 UV-I 320 W/m 17,4 C 19,7 C 14,5 km/h (3 Bft) 96,00 %
22.07.2018 14:56 20,4 C 22,8 C 23,3 C 84 % 1011,5 hPa 0,0 l/m 5,2 km/h (1 Bft) W 261 0 min 0,000 mm 2,0 UV-I 310 W/m 17,6 C 20,4 C 11,3 km/h (2 Bft) 95,74 %
22.07.2018 14:58 20,5 C 22,8 C 23,9 C 84 % 1011,5 hPa 0,0 l/m 5,4 km/h (1 Bft) W 263 0 min 0,000 mm 2,0 UV-I 313 W/m 17,7 C 20,5 C 11,3 km/h (2 Bft) 95,74 %
22.07.2018 15:00 20,4 C 22,8 C 23,9 C 85 % 1011,5 hPa 0,0 l/m 9,8 km/h (2 Bft) W 273 0 min 0,204 mm 2,1 UV-I 319 W/m 17,8 C 19,1 C 12,9 km/h (3 Bft) 97,44 %
22.07.2018 15:02 20,4 C 22,8 C 23,3 C 84 % 1011,5 hPa 0,0 l/m 7,5 km/h (2 Bft) W 266 0 min 0,000 mm 2,2 UV-I 336 W/m 17,6 C 20,0 C 12,9 km/h (3 Bft) 97,87 %
22.07.2018 15:04 20,6 C 22,8 C 23,9 C 83 % 1011,5 hPa 0,0 l/m 7,5 km/h (2 Bft) W-SW 252 0 min 0,000 mm 2,2 UV-I 345 W/m 17,6 C 20,2 C 14,5 km/h (3 Bft) 95,74 %
22.07.2018 15:06 20,6 C 22,8 C 23,3 C 82 % 1011,5 hPa 0,0 l/m 11,7 km/h (2 Bft) W-SW 256 0 min 0,000 mm 2,2 UV-I 346 W/m 17,4 C 18,8 C 17,7 km/h (3 Bft) 94,00 %
22.07.2018 15:09 20,6 C 22,8 C 23,9 C 83 % 1011,5 hPa 0,0 l/m 7,7 km/h (2 Bft) W 263 0 min 0,000 mm 2,2 UV-I 340 W/m 17,6 C 20,1 C 12,9 km/h (3 Bft) 97,14 %
22.07.2018 15:10 20,6 C 22,8 C 23,9 C 83 % 1011,5 hPa 0,0 l/m 9,0 km/h (2 Bft) W 275 0 min 0,000 mm 2,1 UV-I 329 W/m 17,6 C 19,6 C 12,9 km/h (3 Bft) 95,83 %
22.07.2018 15:12 20,7 C 22,8 C 23,3 C 82 % 1011,5 hPa 0,0 l/m 8,2 km/h (2 Bft) W-SW 250 0 min 0,000 mm 2,1 UV-I 323 W/m 17,5 C 20,0 C 12,9 km/h (3 Bft) 97,87 %
22.07.2018 15:14 20,7 C 22,8 C 23,3 C 83 % 1011,5 hPa 0,0 l/m 10,5 km/h (2 Bft) W 269 0 min 0,000 mm 1,9 UV-I 299 W/m 17,7 C 19,3 C 16,1 km/h (3 Bft) 97,87 %
22.07.2018 15:16 20,6 C 22,8 C 23,3 C 82 % 1011,5 hPa 0,0 l/m 8,6 km/h (2 Bft) W 272 0 min 0,000 mm 1,6 UV-I 247 W/m 17,4 C 19,8 C 16,1 km/h (3 Bft) 97,87 %
22.07.2018 15:19 20,5 C 22,8 C 22,2 C 82 % 1011,5 hPa 0,0 l/m 12,0 km/h (2 Bft) W 260 0 min 0,000 mm 1,2 UV-I 190 W/m 17,3 C 18,6 C 17,7 km/h (3 Bft) 98,63 %
22.07.2018 15:20 20,5 C 22,8 C 22,2 C 82 % 1011,5 hPa 0,0 l/m 9,6 km/h (2 Bft) W-SW 251 0 min 0,000 mm 1,1 UV-I 187 W/m 17,3 C 19,3 C 14,5 km/h (3 Bft) 100,00 %
22.07.2018 15:22 20,4 C 22,8 C 22,2 C 82 % 1011,6 hPa 0,0 l/m 10,7 km/h (2 Bft) W-SW 242 0 min 0,000 mm 1,2 UV-I 199 W/m 17,2 C 18,9 C 14,5 km/h (3 Bft) 97,87 %
22.07.2018 15:24 20,4 C 22,8 C 22,2 C 82 % 1011,6 hPa 0,0 l/m 4,3 km/h (1 Bft) W 281 0 min 0,000 mm 1,4 UV-I 224 W/m 17,2 C 20,4 C 9,7 km/h (2 Bft) 100,00 %
22.07.2018 15:26 20,3 C 22,8 C 22,8 C 84 % 1011,6 hPa 0,0 l/m 5,4 km/h (1 Bft) NW 314 0 min 0,000 mm 1,5 UV-I 246 W/m 17,5 C 20,3 C 9,7 km/h (2 Bft) 100,00 %
22.07.2018 15:29 20,3 C 22,8 C 23,3 C 82 % 1011,6 hPa 0,0 l/m 5,8 km/h (2 Bft) W-NW 300 0 min 0,000 mm 1,7 UV-I 270 W/m 17,1 C 20,3 C 12,9 km/h (3 Bft) 98,59 %
22.07.2018 15:30 20,3 C 22,8 C 23,3 C 82 % 1011,6 hPa 0,0 l/m 4,2 km/h (1 Bft) W-NW 295 0 min 0,000 mm 1,7 UV-I 286 W/m 17,1 C 20,3 C 4,8 km/h (1 Bft) 95,65 %
22.07.2018 15:32 20,3 C 22,8 C 23,3 C 81 % 1011,6 hPa 0,0 l/m 6,6 km/h (2 Bft) W-NW 298 0 min 0,000 mm 1,8 UV-I 288 W/m 16,9 C 20,2 C 12,9 km/h (3 Bft) 100,00 %
22.07.2018 15:34 20,3 C 22,8 C 23,3 C 80 % 1011,6 hPa 0,0 l/m 7,5 km/h (2 Bft) W 265 0 min 0,000 mm 1,8 UV-I 291 W/m 16,7 C 19,9 C 12,9 km/h (3 Bft) 100,00 %
22.07.2018 15:36 20,3 C 22,8 C 23,3 C 79 % 1011,7 hPa 0,0 l/m 5,4 km/h (1 Bft) W 268 0 min 0,000 mm 1,8 UV-I 295 W/m 16,5 C 20,3 C 9,7 km/h (2 Bft) 100,00 %
22.07.2018 15:39 20,4 C 22,8 C 23,9 C 79 % 1011,6 hPa 0,0 l/m 5,2 km/h (1 Bft) W-SW 244 0 min 0,000 mm 1,9 UV-I 301 W/m 16,6 C 20,4 C 11,3 km/h (2 Bft) 96,34 %
22.07.2018 15:40 20,5 C 22,8 C 23,9 C 79 % 1011,6 hPa 0,0 l/m 5,6 km/h (1 Bft) W 263 0 min 0,000 mm 1,9 UV-I 302 W/m 16,7 C 20,5 C 8,0 km/h (2 Bft) 91,67 %
22.07.2018 15:42 20,6 C 22,8 C 24,4 C 79 % 1011,7 hPa 0,0 l/m 4,1 km/h (1 Bft) W-NW 294 0 min 0,000 mm 1,8 UV-I 299 W/m 16,8 C 20,6 C 6,4 km/h (2 Bft) 97,87 %
22.07.2018 15:44 20,6 C 22,8 C 24,4 C 79 % 1011,6 hPa 0,0 l/m 4,6 km/h (1 Bft) W 277 0 min 0,000 mm 1,8 UV-I 291 W/m 16,8 C 20,6 C 11,3 km/h (2 Bft) 98,11 %
22.07.2018 15:46 20,6 C 22,8 C 24,4 C 79 % 1011,7 hPa 0,0 l/m 5,0 km/h (1 Bft) W-NW 287 0 min 0,000 mm 1,7 UV-I 284 W/m 16,8 C 20,6 C 6,4 km/h (2 Bft) 96,00 %
22.07.2018 15:49 20,7 C 22,8 C 24,4 C 79 % 1011,6 hPa 0,0 l/m 5,5 km/h (1 Bft) W 259 0 min 0,000 mm 1,7 UV-I 273 W/m 16,9 C 20,7 C 12,9 km/h (3 Bft) 97,14 %
22.07.2018 15:50 20,7 C 22,8 C 24,4 C 77 % 1011,6 hPa 0,0 l/m 10,6 km/h (2 Bft) W-SW 247 0 min 0,000 mm 1,6 UV-I 266 W/m 16,5 C 19,2 C 14,5 km/h (3 Bft) 100,00 %
22.07.2018 15:52 20,7 C 22,8 C 23,9 C 78 % 1011,6 hPa 0,0 l/m 6,2 km/h (2 Bft) W-NW 293 0 min 0,000 mm 1,6 UV-I 262 W/m 16,7 C 20,7 C 12,9 km/h (3 Bft) 96,49 %
22.07.2018 15:54 20,7 C 22,8 C 23,9 C 78 % 1011,6 hPa 0,0 l/m 10,0 km/h (2 Bft) W-SW 254 0 min 0,000 mm 1,5 UV-I 255 W/m 16,7 C 19,4 C 17,7 km/h (3 Bft) 97,87 %
22.07.2018 15:56 20,7 C 22,8 C 23,3 C 83 % 1011,6 hPa 0,0 l/m 11,5 km/h (2 Bft) SW 215 0 min 0,000 mm 1,5 UV-I 250 W/m 17,7 C 19,0 C 16,1 km/h (3 Bft) 95,74 %
22.07.2018 15:59 20,5 C 22,8 C 22,8 C 84 % 1011,6 hPa 0,0 l/m 14,4 km/h (3 Bft) W-SW 250 0 min 0,000 mm 1,4 UV-I 240 W/m 17,7 C 18,0 C 25,7 km/h (4 Bft) 98,59 %
22.07.2018 16:00 20,4 C 22,8 C 22,8 C 84 % 1011,6 hPa 0,0 l/m 16,9 km/h (3 Bft) W-SW 240 0 min 0,177 mm 1,3 UV-I 225 W/m 17,6 C 17,3 C 22,5 km/h (4 Bft) 92,86 %
22.07.2018 16:02 20,3 C 22,8 C 22,8 C 85 % 1011,6 hPa 0,0 l/m 12,5 km/h (3 Bft) W-SW 240 0 min 0,000 mm 1,3 UV-I 225 W/m 17,7 C 18,2 C 17,7 km/h (3 Bft) 97,87 %
22.07.2018 16:04 20,2 C 22,8 C 22,8 C 85 % 1011,6 hPa 0,0 l/m 14,2 km/h (3 Bft) SW 219 0 min 0,000 mm 1,4 UV-I 249 W/m 17,6 C 17,7 C 20,9 km/h (4 Bft) 100,00 %
22.07.2018 16:06 20,2 C 22,8 C 23,3 C 85 % 1011,6 hPa 0,0 l/m 13,3 km/h (3 Bft) SW 223 0 min 0,000 mm 1,5 UV-I 255 W/m 17,6 C 17,9 C 19,3 km/h (3 Bft) 95,74 %
22.07.2018 16:09 20,2 C 22,8 C 22,8 C 85 % 1011,6 hPa 0,0 l/m 14,7 km/h (3 Bft) W-SW 239 0 min 0,000 mm 1,3 UV-I 240 W/m 17,6 C 17,6 C 24,1 km/h (4 Bft) 97,30 %
22.07.2018 16:10 20,2 C 22,8 C 22,8 C 85 % 1011,6 hPa 0,0 l/m 13,9 km/h (3 Bft) SW 221 0 min 0,000 mm 1,3 UV-I 224 W/m 17,6 C 17,8 C 17,7 km/h (3 Bft) 100,00 %
22.07.2018 16:12 20,2 C 22,8 C 23,3 C 86 % 1011,7 hPa 0,0 l/m 11,4 km/h (2 Bft) W-SW 257 0 min 0,000 mm 1,2 UV-I 220 W/m 17,8 C 18,4 C 17,7 km/h (3 Bft) 100,00 %
22.07.2018 16:14 20,1 C 22,8 C 23,3 C 86 % 1011,7 hPa 0,0 l/m 11,3 km/h (2 Bft) S-SW 213 0 min 0,000 mm 1,2 UV-I 215 W/m 17,7 C 18,3 C 19,3 km/h (3 Bft) 96,61 %
22.07.2018 16:16 20,1 C 22,8 C 22,8 C 85 % 1011,7 hPa 0,0 l/m 18,1 km/h (3 Bft) SW 223 0 min 0,000 mm 1,2 UV-I 216 W/m 17,5 C 16,7 C 29,0 km/h (5 Bft) 97,92 %
22.07.2018 16:19 20,0 C 22,8 C 22,8 C 86 % 1011,7 hPa 0,0 l/m 12,5 km/h (3 Bft) SW 232 0 min 0,000 mm 1,3 UV-I 223 W/m 17,6 C 17,9 C 20,9 km/h (4 Bft) 94,52 %
22.07.2018 16:20 20,0 C 22,8 C 22,8 C 86 % 1011,7 hPa 0,0 l/m 7,8 km/h (2 Bft) W-SW 238 0 min 0,000 mm 1,3 UV-I 232 W/m 17,6 C 19,4 C 12,9 km/h (3 Bft) 100,00 %
22.07.2018 16:22 20,0 C 22,8 C 22,8 C 86 % 1011,7 hPa 0,0 l/m 14,7 km/h (3 Bft) W-SW 252 0 min 0,000 mm 1,3 UV-I 239 W/m 17,6 C 17,3 C 22,5 km/h (4 Bft) 95,74 %
22.07.2018 16:24 20,0 C 22,8 C 22,8 C 86 % 1011,7 hPa 0,0 l/m 10,4 km/h (2 Bft) SW 226 0 min 0,000 mm 1,4 UV-I 250 W/m 17,6 C 18,5 C 20,9 km/h (4 Bft) 98,00 %
22.07.2018 16:26 19,9 C 22,8 C 23,3 C 86 % 1011,7 hPa 0,0 l/m 14,9 km/h (3 Bft) W-SW 243 0 min 0,000 mm 1,4 UV-I 252 W/m 17,5 C 17,2 C 19,3 km/h (3 Bft) 95,74 %
22.07.2018 16:29 19,9 C 22,8 C 23,3 C 86 % 1011,7 hPa 0,0 l/m 13,9 km/h (3 Bft) SW 234 0 min 0,000 mm 1,4 UV-I 247 W/m 17,5 C 17,4 C 22,5 km/h (4 Bft) 95,71 %
22.07.2018 16:30 19,9 C 22,8 C 23,3 C 86 % 1011,7 hPa 0,0 l/m 13,4 km/h (3 Bft) W-SW 247 0 min 0,000 mm 1,3 UV-I 246 W/m 17,5 C 17,5 C 17,7 km/h (3 Bft) 95,83 %
22.07.2018 16:32 20,0 C 22,8 C 23,3 C 86 % 1011,7 hPa 0,0 l/m 9,4 km/h (2 Bft) SW 231 0 min 0,000 mm 1,3 UV-I 242 W/m 17,6 C 18,8 C 19,3 km/h (3 Bft) 96,00 %
22.07.2018 16:34 19,9 C 22,8 C 22,8 C 85 % 1011,7 hPa 0,0 l/m 15,1 km/h (3 Bft) W-SW 238 0 min 0,000 mm 1,3 UV-I 240 W/m 17,3 C 17,1 C 24,1 km/h (4 Bft) 100,00 %
22.07.2018 16:36 19,9 C 22,8 C 22,8 C 85 % 1011,7 hPa 0,0 l/m 16,8 km/h (3 Bft) SW 221 0 min 0,000 mm 1,3 UV-I 241 W/m 17,3 C 16,7 C 25,7 km/h (4 Bft) 97,37 %
22.07.2018 16:39 19,8 C 22,8 C 22,8 C 85 % 1011,7 hPa 0,0 l/m 14,4 km/h (3 Bft) W-SW 238 0 min 0,000 mm 1,3 UV-I 248 W/m 17,2 C 17,2 C 22,5 km/h (4 Bft) 96,39 %
22.07.2018 16:40 19,8 C 22,8 C 22,8 C 85 % 1011,7 hPa 0,0 l/m 17,5 km/h (3 Bft) W-SW 252 0 min 0,000 mm 1,3 UV-I 254 W/m 17,2 C 16,4 C 22,5 km/h (4 Bft) 100,00 %
22.07.2018 16:42 19,8 C 22,8 C 22,8 C 85 % 1011,6 hPa 0,0 l/m 14,1 km/h (3 Bft) W-SW 248 0 min 0,000 mm 1,3 UV-I 258 W/m 17,2 C 17,2 C 20,9 km/h (4 Bft) 95,74 %
22.07.2018 16:44 19,8 C 22,8 C 22,8 C 86 % 1011,6 hPa 0,0 l/m 12,2 km/h (2 Bft) W 263 0 min 0,000 mm 1,3 UV-I 255 W/m 17,4 C 17,7 C 19,3 km/h (3 Bft) 95,74 %
22.07.2018 16:46 19,9 C 22,8 C 22,8 C 86 % 1011,7 hPa 0,0 l/m 12,9 km/h (3 Bft) SW 234 0 min 0,000 mm 1,3 UV-I 251 W/m 17,5 C 17,7 C 24,1 km/h (4 Bft) 95,74 %
22.07.2018 16:49 19,8 C 22,8 C 22,8 C 85 % 1011,7 hPa 0,0 l/m 14,9 km/h (3 Bft) SW 235 0 min 0,000 mm 1,3 UV-I 239 W/m 17,2 C 17,0 C 22,5 km/h (4 Bft) 95,18 %
22.07.2018 16:50 19,8 C 22,8 C 22,8 C 85 % 1011,7 hPa 0,0 l/m 13,9 km/h (3 Bft) W-SW 257 0 min 0,000 mm 1,2 UV-I 223 W/m 17,2 C 17,3 C 16,1 km/h (3 Bft) 91,67 %
22.07.2018 16:52 19,8 C 22,8 C 22,8 C 85 % 1011,8 hPa 0,0 l/m 16,5 km/h (3 Bft) W-SW 243 0 min 0,000 mm 1,2 UV-I 216 W/m 17,2 C 16,7 C 24,1 km/h (4 Bft) 93,62 %
22.07.2018 16:54 19,8 C 22,8 C 22,8 C 85 % 1011,7 hPa 0,0 l/m 14,2 km/h (3 Bft) W 259 0 min 0,000 mm 1,2 UV-I 214 W/m 17,2 C 17,2 C 22,5 km/h (4 Bft) 95,74 %
22.07.2018 16:56 19,8 C 22,8 C 22,8 C 85 % 1011,8 hPa 0,0 l/m 18,5 km/h (3 Bft) W-NW 282 0 min 0,000 mm 1,2 UV-I 217 W/m 17,2 C 16,2 C 25,7 km/h (4 Bft) 91,49 %
22.07.2018 16:59 19,8 C 22,8 C 22,8 C 85 % 1011,9 hPa 0,0 l/m 12,9 km/h (3 Bft) SW 222 0 min 0,000 mm 1,2 UV-I 214 W/m 17,2 C 17,5 C 20,9 km/h (4 Bft) 94,29 %
22.07.2018 17:00 19,8 C 22,8 C 22,8 C 85 % 1011,9 hPa 0,0 l/m 9,3 km/h (2 Bft) W 261 0 min 0,000 mm 1,2 UV-I 212 W/m 17,2 C 18,7 C 12,9 km/h (3 Bft) 92,59 %
22.07.2018 17:02 19,8 C 22,8 C 22,8 C 85 % 1011,8 hPa 0,0 l/m 14,9 km/h (3 Bft) W-SW 237 0 min 0,153 mm 1,1 UV-I 211 W/m 17,2 C 17,0 C 22,5 km/h (4 Bft) 96,00 %
22.07.2018 17:04 19,7 C 22,8 C 22,2 C 85 % 1011,9 hPa 0,0 l/m 14,2 km/h (3 Bft) W-SW 242 0 min 0,000 mm 1,1 UV-I 208 W/m 17,1 C 17,1 C 22,5 km/h (4 Bft) 95,74 %
22.07.2018 17:06 19,7 C 22,8 C 22,2 C 84 % 1011,8 hPa 0,0 l/m 16,7 km/h (3 Bft) SW 223 0 min 0,000 mm 1,1 UV-I 203 W/m 16,9 C 16,5 C 24,1 km/h (4 Bft) 93,62 %
22.07.2018 17:09 19,6 C 22,8 C 21,7 C 83 % 1011,8 hPa 0,0 l/m 17,9 km/h (3 Bft) W-SW 243 0 min 0,000 mm 1,0 UV-I 193 W/m 16,6 C 16,1 C 27,4 km/h (4 Bft) 94,52 %
22.07.2018 17:10 19,5 C 22,8 C 21,7 C 84 % 1011,8 hPa 0,0 l/m 17,7 km/h (3 Bft) SW 219 0 min 0,000 mm 1,0 UV-I 186 W/m 16,7 C 16,0 C 24,1 km/h (4 Bft) 91,67 %
22.07.2018 17:12 19,6 C 22,8 C 21,7 C 85 % 1011,8 hPa 0,0 l/m 15,8 km/h (3 Bft) SW 232 0 min 0,000 mm 0,9 UV-I 185 W/m 17,0 C 16,6 C 20,9 km/h (4 Bft) 92,00 %
22.07.2018 17:14 19,6 C 22,8 C 21,7 C 85 % 1011,9 hPa 0,0 l/m 11,5 km/h (2 Bft) SW 223 0 min 0,000 mm 0,9 UV-I 183 W/m 17,0 C 17,7 C 17,7 km/h (3 Bft) 95,12 %
22.07.2018 17:16 19,6 C 22,8 C 21,7 C 84 % 1011,9 hPa 0,0 l/m 16,3 km/h (3 Bft) W-SW 254 0 min 0,000 mm 0,9 UV-I 181 W/m 16,8 C 16,5 C 24,1 km/h (4 Bft) 94,00 %
22.07.2018 17:18 19,6 C 22,8 C 21,7 C 85 % 1011,9 hPa 0,0 l/m 12,3 km/h (3 Bft) W-SW 246 0 min 0,000 mm 0,9 UV-I 177 W/m 17,0 C 17,5 C 17,7 km/h (3 Bft) 95,74 %
22.07.2018 17:20 19,6 C 22,8 C 21,7 C 85 % 1011,9 hPa 0,0 l/m 10,5 km/h (2 Bft) SW 231 0 min 0,000 mm 0,8 UV-I 172 W/m 17,0 C 18,0 C 14,5 km/h (3 Bft) 93,62 %
22.07.2018 17:22 19,6 C 22,8 C 21,7 C 85 % 1011,9 hPa 0,0 l/m 11,4 km/h (2 Bft) W-SW 241 0 min 0,000 mm 0,8 UV-I 166 W/m 17,0 C 17,7 C 16,1 km/h (3 Bft) 96,00 %
22.07.2018 17:24 19,6 C 22,8 C 21,7 C 86 % 1011,9 hPa 0,0 l/m 9,1 km/h (2 Bft) SW 225 0 min 0,000 mm 0,8 UV-I 163 W/m 17,2 C 18,5 C 14,5 km/h (3 Bft) 95,74 %
22.07.2018 17:26 19,6 C 22,8 C 21,7 C 85 % 1012,0 hPa 0,0 l/m 15,7 km/h (3 Bft) W 274 0 min 0,000 mm 0,7 UV-I 158 W/m 17,0 C 16,6 C 24,1 km/h (4 Bft) 97,87 %
22.07.2018 17:29 19,5 C 22,8 C 21,7 C 85 % 1011,9 hPa 0,0 l/m 12,4 km/h (3 Bft) W-SW 258 0 min 0,000 mm 0,7 UV-I 149 W/m 16,9 C 17,3 C 19,3 km/h (3 Bft) 97,18 %
22.07.2018 17:30 19,5 C 22,8 C 21,7 C 86 % 1011,9 hPa 0,0 l/m 10,1 km/h (2 Bft) W-SW 254 0 min 0,000 mm 0,6 UV-I 139 W/m 17,1 C 18,1 C 16,1 km/h (3 Bft) 100,00 %
22.07.2018 17:32 19,4 C 22,8 C 21,1 C 85 % 1011,9 hPa 0,0 l/m 15,8 km/h (3 Bft) S-SW 210 0 min 0,000 mm 0,6 UV-I 135 W/m 16,8 C 16,3 C 22,5 km/h (4 Bft) 94,87 %
22.07.2018 17:34 19,4 C 22,8 C 21,1 C 86 % 1011,9 hPa 0,0 l/m 15,4 km/h (3 Bft) SW 232 0 min 0,000 mm 0,6 UV-I 133 W/m 17,0 C 16,4 C 22,5 km/h (4 Bft) 100,00 %
22.07.2018 17:36 19,4 C 22,8 C 21,1 C 86 % 1011,8 hPa 0,0 l/m 13,1 km/h (3 Bft) W-SW 254 0 min 0,000 mm 0,6 UV-I 129 W/m 17,0 C 17,0 C 20,9 km/h (4 Bft) 100,00 %
22.07.2018 17:38 19,4 C 22,8 C 21,1 C 86 % 1011,8 hPa 0,0 l/m 14,3 km/h (3 Bft) W-SW 237 0 min 0,000 mm 0,5 UV-I 124 W/m 17,0 C 16,7 C 20,9 km/h (4 Bft) 96,00 %
22.07.2018 17:40 19,4 C 22,8 C 21,1 C 86 % 1011,7 hPa 0,0 l/m 16,0 km/h (3 Bft) S-SW 212 0 min 0,000 mm 0,5 UV-I 117 W/m 17,0 C 16,3 C 22,5 km/h (4 Bft) 98,00 %
22.07.2018 17:42 19,3 C 22,8 C 21,1 C 86 % 1011,8 hPa 0,0 l/m 12,2 km/h (2 Bft) W-SW 248 0 min 0,000 mm 0,3 UV-I 108 W/m 16,9 C 17,2 C 16,1 km/h (3 Bft) 97,87 %
22.07.2018 17:44 19,3 C 22,8 C 20,6 C 86 % 1011,8 hPa 0,0 l/m 12,4 km/h (3 Bft) W-SW 245 0 min 0,000 mm 0,0 UV-I 99 W/m 16,9 C 17,1 C 20,9 km/h (4 Bft) 100,00 %
22.07.2018 17:46 19,3 C 22,8 C 20,6 C 86 % 1011,8 hPa 0,0 l/m 12,1 km/h (2 Bft) SW 236 0 min 0,000 mm 0,0 UV-I 96 W/m 16,9 C 17,2 C 17,7 km/h (3 Bft) 100,00 %
22.07.2018 17:49 19,3 C 22,8 C 20,6 C 86 % 1011,9 hPa 0,0 l/m 14,6 km/h (3 Bft) W-SW 252 0 min 0,000 mm 0,0 UV-I 94 W/m 16,9 C 16,5 C 24,1 km/h (4 Bft) 95,89 %
22.07.2018 17:50 19,3 C 22,8 C 20,6 C 86 % 1011,9 hPa 0,0 l/m 13,0 km/h (3 Bft) SW 236 0 min 0,000 mm 0,0 UV-I 94 W/m 16,9 C 16,9 C 16,1 km/h (3 Bft) 100,00 %
22.07.2018 17:52 19,3 C 22,8 C 20,6 C 86 % 1011,9 hPa 0,0 l/m 13,3 km/h (3 Bft) S-SW 213 0 min 0,000 mm 0,0 UV-I 96 W/m 16,9 C 16,8 C 20,9 km/h (4 Bft) 100,00 %
22.07.2018 17:54 19,3 C 22,8 C 20,6 C 86 % 1011,9 hPa 0,0 l/m 13,7 km/h (3 Bft) SW 236 0 min 0,000 mm 0,0 UV-I 95 W/m 16,9 C 16,7 C 20,9 km/h (4 Bft) 100,00 %
22.07.2018 17:56 19,3 C 22,8 C 20,6 C 86 % 1011,9 hPa 0,0 l/m 12,4 km/h (3 Bft) SW 229 0 min 0,000 mm 0,0 UV-I 93 W/m 16,9 C 17,1 C 16,1 km/h (3 Bft) 100,00 %
22.07.2018 17:59 19,3 C 22,8 C 20,6 C 86 % 1011,9 hPa 0,0 l/m 12,2 km/h (2 Bft) W-SW 241 0 min 0,000 mm 0,0 UV-I 93 W/m 16,9 C 17,2 C 20,9 km/h (4 Bft) 98,59 %
22.07.2018 18:00 19,3 C 22,8 C 20,6 C 86 % 1011,9 hPa 0,0 l/m 10,0 km/h (2 Bft) S-SW 196 0 min 0,000 mm 0,0 UV-I 97 W/m 16,9 C 17,9 C 12,9 km/h (3 Bft) 100,00 %
22.07.2018 18:02 19,3 C 22,8 C 20,6 C 86 % 1011,9 hPa 0,0 l/m 16,0 km/h (3 Bft) SW 236 0 min 0,101 mm 0,0 UV-I 100 W/m 16,9 C 16,2 C 24,1 km/h (4 Bft) 100,00 %
22.07.2018 18:04 19,3 C 22,8 C 20,6 C 87 % 1011,9 hPa 0,0 l/m 12,6 km/h (3 Bft) W-SW 252 0 min 0,000 mm 0,0 UV-I 106 W/m 17,1 C 17,0 C 17,7 km/h (3 Bft) 100,00 %
22.07.2018 18:06 19,3 C 22,8 C 20,6 C 87 % 1011,9 hPa 0,0 l/m 9,4 km/h (2 Bft) W-SW 242 0 min 0,000 mm 0,0 UV-I 112 W/m 17,1 C 18,1 C 14,5 km/h (3 Bft) 100,00 %
22.07.2018 18:08 19,3 C 22,8 C 20,6 C 87 % 1011,9 hPa 0,0 l/m 7,8 km/h (2 Bft) S-SW 209 0 min 0,000 mm 0,0 UV-I 113 W/m 17,1 C 18,7 C 14,5 km/h (3 Bft) 97,44 %
22.07.2018 18:10 19,3 C 22,8 C 20,6 C 86 % 1011,9 hPa 0,0 l/m 13,5 km/h (3 Bft) W 259 0 min 0,000 mm 0,0 UV-I 113 W/m 16,9 C 16,8 C 19,3 km/h (3 Bft) 100,00 %
22.07.2018 18:12 19,3 C 22,8 C 20,6 C 87 % 1011,9 hPa 0,0 l/m 13,8 km/h (3 Bft) SW 214 0 min 0,000 mm 0,0 UV-I 115 W/m 17,1 C 16,7 C 17,7 km/h (3 Bft) 98,00 %
22.07.2018 18:14 19,3 C 22,8 C 20,6 C 86 % 1011,9 hPa 0,0 l/m 13,7 km/h (3 Bft) W 259 0 min 0,000 mm 0,0 UV-I 119 W/m 16,9 C 16,7 C 25,7 km/h (4 Bft) 100,00 %
22.07.2018 18:16 19,3 C 22,8 C 20,6 C 86 % 1011,9 hPa 0,0 l/m 13,5 km/h (3 Bft) W 259 0 min 0,000 mm 0,0 UV-I 121 W/m 16,9 C 16,8 C 20,9 km/h (4 Bft) 100,00 %
22.07.2018 18:18 19,3 C 22,8 C 20,6 C 86 % 1011,8 hPa 0,0 l/m 10,6 km/h (2 Bft) W-SW 238 0 min 0,000 mm 0,0 UV-I 120 W/m 16,9 C 17,7 C 17,7 km/h (3 Bft) 95,74 %
22.07.2018 18:20 19,3 C 22,8 C 20,6 C 86 % 1011,9 hPa 0,0 l/m 9,5 km/h (2 Bft) SW 236 0 min 0,000 mm 0,0 UV-I 114 W/m 16,9 C 18,0 C 17,7 km/h (3 Bft) 97,37 %
22.07.2018 18:22 19,3 C 22,8 C 20,6 C 86 % 1011,9 hPa 0,0 l/m 12,5 km/h (3 Bft) S-SW 209 0 min 0,000 mm 0,0 UV-I 109 W/m 16,9 C 17,1 C 22,5 km/h (4 Bft) 97,87 %
22.07.2018 18:24 19,3 C 22,8 C 20,6 C 86 % 1012,0 hPa 0,0 l/m 14,1 km/h (3 Bft) W-SW 250 0 min 0,000 mm 0,0 UV-I 99 W/m 16,9 C 16,6 C 22,5 km/h (4 Bft) 100,00 %
22.07.2018 18:26 19,3 C 22,8 C 20,6 C 86 % 1011,9 hPa 0,0 l/m 11,9 km/h (2 Bft) W-SW 240 0 min 0,000 mm 0,0 UV-I 93 W/m 16,9 C 17,3 C 19,3 km/h (3 Bft) 100,00 %
22.07.2018 18:28 19,3 C 22,8 C 20,0 C 86 % 1012,0 hPa 0,0 l/m 10,8 km/h (2 Bft) S-SW 209 0 min 0,000 mm 0,0 UV-I 90 W/m 16,9 C 17,6 C 19,3 km/h (3 Bft) 100,00 %
22.07.2018 18:30 19,2 C 22,8 C 20,0 C 86 % 1012,0 hPa 0,0 l/m 12,0 km/h (2 Bft) SW 215 0 min 0,000 mm 0,0 UV-I 90 W/m 16,8 C 17,1 C 17,7 km/h (3 Bft) 100,00 %
22.07.2018 18:32 19,2 C 22,8 C 20,0 C 86 % 1011,9 hPa 0,0 l/m 10,7 km/h (2 Bft) SW 216 0 min 0,000 mm 0,0 UV-I 90 W/m 16,8 C 17,5 C 17,7 km/h (3 Bft) 100,00 %
22.07.2018 18:34 19,2 C 22,8 C 20,0 C 87 % 1011,9 hPa 0,0 l/m 10,9 km/h (2 Bft) W-SW 252 0 min 0,000 mm 0,0 UV-I 92 W/m 17,0 C 17,5 C 17,7 km/h (3 Bft) 100,00 %
22.07.2018 18:36 19,2 C 22,8 C 20,0 C 86 % 1011,9 hPa 0,0 l/m 14,7 km/h (3 Bft) W-SW 250 0 min 0,000 mm 0,0 UV-I 91 W/m 16,8 C 16,4 C 22,5 km/h (4 Bft) 97,37 %
22.07.2018 18:38 19,2 C 22,8 C 20,0 C 86 % 1012,0 hPa 0,0 l/m 13,1 km/h (3 Bft) W-SW 238 0 min 0,000 mm 0,0 UV-I 90 W/m 16,8 C 16,8 C 20,9 km/h (4 Bft) 97,87 %
22.07.2018 18:40 19,2 C 22,8 C 20,0 C 86 % 1012,0 hPa 0,0 l/m 12,4 km/h (3 Bft) S-SW 213 0 min 0,000 mm 0,0 UV-I 88 W/m 16,8 C 17,0 C 20,9 km/h (4 Bft) 95,74 %
22.07.2018 18:42 19,2 C 22,8 C 20,0 C 86 % 1012,0 hPa 0,0 l/m 14,2 km/h (3 Bft) W-SW 253 0 min 0,000 mm 0,0 UV-I 84 W/m 16,8 C 16,5 C 24,1 km/h (4 Bft) 92,00 %
22.07.2018 18:44 19,2 C 22,8 C 20,0 C 86 % 1012,0 hPa 0,0 l/m 12,7 km/h (3 Bft) SW 232 0 min 0,000 mm 0,0 UV-I 83 W/m 16,8 C 16,9 C 17,7 km/h (3 Bft) 91,49 %
22.07.2018 18:46 19,2 C 22,8 C 20,0 C 86 % 1011,9 hPa 0,0 l/m 15,0 km/h (3 Bft) W-SW 241 0 min 0,000 mm 0,0 UV-I 80 W/m 16,8 C 16,3 C 20,9 km/h (4 Bft) 95,83 %
22.07.2018 18:48 19,2 C 22,8 C 20,0 C 86 % 1011,9 hPa 0,0 l/m 12,7 km/h (3 Bft) S-SW 198 0 min 0,000 mm 0,0 UV-I 76 W/m 16,8 C 16,9 C 19,3 km/h (3 Bft) 93,62 %
22.07.2018 18:50 19,2 C 22,8 C 20,0 C 86 % 1011,9 hPa 0,0 l/m 14,6 km/h (3 Bft) W-SW 242 0 min 0,000 mm 0,0 UV-I 72 W/m 16,8 C 16,4 C 19,3 km/h (3 Bft) 93,62 %
22.07.2018 18:52 19,2 C 22,8 C 20,0 C 87 % 1011,9 hPa 0,0 l/m 15,6 km/h (3 Bft) W 259 0 min 0,000 mm 0,0 UV-I 69 W/m 17,0 C 16,1 C 20,9 km/h (4 Bft) 93,62 %
22.07.2018 18:54 19,2 C 22,8 C 20,0 C 86 % 1011,9 hPa 0,0 l/m 14,7 km/h (3 Bft) SW 223 0 min 0,000 mm 0,0 UV-I 69 W/m 16,8 C 16,4 C 27,4 km/h (4 Bft) 96,00 %
22.07.2018 18:56 19,2 C 22,8 C 20,0 C 86 % 1011,9 hPa 0,0 l/m 15,5 km/h (3 Bft) SW 225 0 min 0,000 mm 0,0 UV-I 70 W/m 16,8 C 16,2 C 25,7 km/h (4 Bft) 95,74 %
22.07.2018 18:58 19,2 C 22,8 C 20,0 C 86 % 1011,9 hPa 0,0 l/m 16,3 km/h (3 Bft) SW 228 0 min 0,000 mm 0,0 UV-I 70 W/m 16,8 C 16,0 C 22,5 km/h (4 Bft) 91,49 %
22.07.2018 19:00 19,2 C 22,8 C 20,0 C 86 % 1011,9 hPa 0,0 l/m 17,0 km/h (3 Bft) W-SW 252 0 min 0,077 mm 0,0 UV-I 69 W/m 16,8 C 15,8 C 25,7 km/h (4 Bft) 95,74 %
22.07.2018 19:02 19,2 C 22,8 C 20,0 C 86 % 1011,8 hPa 0,0 l/m 14,4 km/h (3 Bft) SW 222 0 min 0,000 mm 0,0 UV-I 68 W/m 16,8 C 16,4 C 24,1 km/h (4 Bft) 91,49 %
22.07.2018 19:04 19,2 C 22,8 C 19,4 C 86 % 1011,9 hPa 0,0 l/m 14,3 km/h (3 Bft) SW 229 0 min 0,000 mm 0,0 UV-I 66 W/m 16,8 C 16,5 C 20,9 km/h (4 Bft) 95,74 %
22.07.2018 19:06 19,2 C 22,8 C 19,4 C 85 % 1011,9 hPa 0,0 l/m 17,9 km/h (3 Bft) S-SW 209 0 min 0,000 mm 0,0 UV-I 62 W/m 16,6 C 15,6 C 29,0 km/h (5 Bft) 93,62 %
22.07.2018 19:08 19,2 C 22,8 C 19,4 C 85 % 1011,9 hPa 0,0 l/m 19,0 km/h (3 Bft) W-SW 243 0 min 0,000 mm 0,0 UV-I 60 W/m 16,6 C 15,4 C 29,0 km/h (5 Bft) 100,00 %
22.07.2018 19:10 19,2 C 22,8 C 19,4 C 85 % 1011,9 hPa 0,0 l/m 15,6 km/h (3 Bft) W-SW 245 0 min 0,000 mm 0,0 UV-I 57 W/m 16,6 C 16,1 C 24,1 km/h (4 Bft) 96,00 %
22.07.2018 19:12 19,2 C 22,8 C 19,4 C 85 % 1011,9 hPa 0,0 l/m 17,7 km/h (3 Bft) S-SW 206 0 min 0,000 mm 0,0 UV-I 55 W/m 16,6 C 15,6 C 24,1 km/h (4 Bft) 98,00 %
22.07.2018 19:14 19,1 C 22,8 C 19,4 C 85 % 1012,0 hPa 0,0 l/m 12,9 km/h (3 Bft) W-SW 246 0 min 0,000 mm 0,0 UV-I 53 W/m 16,5 C 16,7 C 22,5 km/h (4 Bft) 97,87 %
22.07.2018 19:16 19,1 C 22,8 C 19,4 C 85 % 1012,0 hPa 0,0 l/m 19,4 km/h (3 Bft) W-SW 244 0 min 0,000 mm 0,0 UV-I 51 W/m 16,5 C 15,2 C 30,6 km/h (5 Bft) 100,00 %
22.07.2018 19:19 19,1 C 22,8 C 19,4 C 85 % 1012,0 hPa 0,0 l/m 17,7 km/h (3 Bft) SW 236 0 min 0,000 mm 0,0 UV-I 50 W/m 16,5 C 15,5 C 25,7 km/h (4 Bft) 97,18 %
22.07.2018 19:20 19,1 C 22,8 C 19,4 C 85 % 1012,0 hPa 0,0 l/m 20,1 km/h (4 Bft) W-SW 258 0 min 0,000 mm 0,0 UV-I 48 W/m 16,5 C 15,0 C 25,7 km/h (4 Bft) 91,30 %
22.07.2018 19:22 19,1 C 22,8 C 19,4 C 85 % 1012,0 hPa 0,0 l/m 17,1 km/h (3 Bft) W 265 0 min 0,000 mm 0,0 UV-I 47 W/m 16,5 C 15,7 C 33,8 km/h (5 Bft) 97,22 %
22.07.2018 19:24 19,1 C 22,8 C 18,9 C 85 % 1012,0 hPa 0,0 l/m 15,9 km/h (3 Bft) W-SW 250 0 min 0,000 mm 0,0 UV-I 46 W/m 16,5 C 15,9 C 25,7 km/h (4 Bft) 100,00 %
22.07.2018 19:26 19,0 C 22,8 C 18,9 C 85 % 1012,0 hPa 0,0 l/m 17,4 km/h (3 Bft) W-SW 256 0 min 0,000 mm 0,0 UV-I 46 W/m 16,4 C 15,5 C 29,0 km/h (5 Bft) 97,87 %
22.07.2018 19:29 18,9 C 22,8 C 18,9 C 84 % 1011,9 hPa 0,0 l/m 18,2 km/h (3 Bft) W-SW 246 0 min 0,000 mm 0,0 UV-I 46 W/m 16,1 C 15,2 C 29,0 km/h (5 Bft) 97,14 %
22.07.2018 19:30 18,9 C 22,8 C 18,9 C 84 % 1011,9 hPa 0,0 l/m 19,3 km/h (3 Bft) W-SW 240 0 min 0,000 mm 0,0 UV-I 46 W/m 16,1 C 14,9 C 25,7 km/h (4 Bft) 100,00 %
22.07.2018 19:32 18,9 C 22,8 C 18,9 C 84 % 1011,9 hPa 0,0 l/m 17,5 km/h (3 Bft) SW 225 0 min 0,000 mm 0,0 UV-I 46 W/m 16,1 C 15,3 C 27,4 km/h (4 Bft) 97,87 %
22.07.2018 19:34 18,8 C 22,8 C 18,9 C 84 % 1011,9 hPa 0,0 l/m 15,0 km/h (3 Bft) SW 223 0 min 0,000 mm 0,0 UV-I 46 W/m 16,0 C 15,8 C 24,1 km/h (4 Bft) 100,00 %
22.07.2018 19:36 18,8 C 22,8 C 18,9 C 85 % 1011,9 hPa 0,0 l/m 15,8 km/h (3 Bft) W-SW 238 0 min 0,000 mm 0,0 UV-I 46 W/m 16,2 C 15,6 C 22,5 km/h (4 Bft) 97,87 %
22.07.2018 19:38 18,8 C 22,8 C 18,9 C 84 % 1012,0 hPa 0,0 l/m 18,1 km/h (3 Bft) W 259 0 min 0,000 mm 0,0 UV-I 44 W/m 16,0 C 15,1 C 27,4 km/h (4 Bft) 100,00 %
22.07.2018 19:40 18,8 C 22,8 C 18,9 C 85 % 1012,0 hPa 0,0 l/m 15,6 km/h (3 Bft) SW 232 0 min 0,000 mm 0,0 UV-I 43 W/m 16,2 C 15,6 C 22,5 km/h (4 Bft) 100,00 %
22.07.2018 19:42 18,7 C 22,8 C 18,9 C 85 % 1012,0 hPa 0,0 l/m 12,4 km/h (3 Bft) W-SW 246 0 min 0,000 mm 0,0 UV-I 41 W/m 16,1 C 16,4 C 19,3 km/h (3 Bft) 100,00 %
22.07.2018 19:44 18,7 C 22,8 C 18,9 C 85 % 1012,1 hPa 0,0 l/m 16,4 km/h (3 Bft) SW 227 0 min 0,000 mm 0,0 UV-I 39 W/m 16,1 C 15,3 C 25,7 km/h (4 Bft) 100,00 %
22.07.2018 19:46 18,7 C 22,8 C 18,9 C 85 % 1012,1 hPa 0,0 l/m 16,8 km/h (3 Bft) W-SW 249 0 min 0,000 mm 0,0 UV-I 39 W/m 16,1 C 15,2 C 25,7 km/h (4 Bft) 100,00 %
22.07.2018 19:48 18,7 C 22,8 C 18,9 C 85 % 1012,1 hPa 0,0 l/m 15,2 km/h (3 Bft) SW 228 0 min 0,000 mm 0,0 UV-I 37 W/m 16,1 C 15,6 C 25,7 km/h (4 Bft) 100,00 %
22.07.2018 19:50 18,6 C 22,8 C 18,9 C 85 % 1012,0 hPa 0,0 l/m 13,9 km/h (3 Bft) SW 217 0 min 0,000 mm 0,0 UV-I 37 W/m 16,0 C 15,9 C 24,1 km/h (4 Bft) 100,00 %
22.07.2018 19:52 18,6 C 22,8 C 18,9 C 85 % 1012,1 hPa 0,0 l/m 12,6 km/h (3 Bft) W 263 0 min 0,000 mm 0,0 UV-I 37 W/m 16,0 C 16,2 C 20,9 km/h (4 Bft) 97,87 %
22.07.2018 19:54 18,6 C 22,8 C 18,9 C 85 % 1012,0 hPa 0,0 l/m 14,3 km/h (3 Bft) SW 225 0 min 0,000 mm 0,0 UV-I 37 W/m 16,0 C 15,7 C 22,5 km/h (4 Bft) 97,87 %
22.07.2018 19:56 18,6 C 22,8 C 18,9 C 85 % 1012,1 hPa 0,0 l/m 17,0 km/h (3 Bft) W-SW 240 0 min 0,000 mm 0,0 UV-I 35 W/m 16,0 C 15,1 C 27,4 km/h (4 Bft) 97,87 %
22.07.2018 19:58 18,6 C 22,8 C 18,9 C 85 % 1012,1 hPa 0,0 l/m 15,8 km/h (3 Bft) W 262 0 min 0,000 mm 0,0 UV-I 34 W/m 16,0 C 15,3 C 25,7 km/h (4 Bft) 97,87 %
22.07.2018 20:00 18,6 C 22,8 C 18,9 C 85 % 1012,1 hPa 0,0 l/m 18,3 km/h (3 Bft) W 271 0 min 0,050 mm 0,0 UV-I 33 W/m 16,0 C 14,8 C 25,7 km/h (4 Bft) 97,87 %
22.07.2018 20:02 18,6 C 22,8 C 18,9 C 85 % 1012,1 hPa 0,0 l/m 14,6 km/h (3 Bft) W-SW 249 0 min 0,000 mm 0,0 UV-I 32 W/m 16,0 C 15,7 C 24,1 km/h (4 Bft) 100,00 %
22.07.2018 20:04 18,6 C 22,8 C 18,9 C 85 % 1012,1 hPa 0,0 l/m 13,2 km/h (3 Bft) W 271 0 min 0,000 mm 0,0 UV-I 32 W/m 16,0 C 16,1 C 17,7 km/h (3 Bft) 97,87 %
22.07.2018 20:06 18,5 C 22,8 C 18,3 C 85 % 1012,1 hPa 0,0 l/m 12,9 km/h (3 Bft) SW 229 0 min 0,000 mm 0,0 UV-I 31 W/m 15,9 C 16,0 C 19,3 km/h (3 Bft) 100,00 %
22.07.2018 20:09 18,5 C 22,8 C 18,3 C 85 % 1012,1 hPa 0,0 l/m 11,7 km/h (2 Bft) W-SW 244 0 min 0,000 mm 0,0 UV-I 30 W/m 15,9 C 16,4 C 20,9 km/h (4 Bft) 98,57 %
22.07.2018 20:10 18,5 C 22,8 C 18,3 C 85 % 1012,1 hPa 0,0 l/m 16,2 km/h (3 Bft) W 259 0 min 0,000 mm 0,0 UV-I 30 W/m 15,9 C 15,1 C 20,9 km/h (4 Bft) 95,83 %
22.07.2018 20:12 18,5 C 22,8 C 18,3 C 85 % 1012,1 hPa 0,0 l/m 12,6 km/h (3 Bft) W 261 0 min 0,000 mm 0,0 UV-I 28 W/m 15,9 C 16,1 C 19,3 km/h (3 Bft) 98,00 %
22.07.2018 20:14 18,4 C 22,8 C 18,3 C 85 % 1012,1 hPa 0,0 l/m 13,2 km/h (3 Bft) W 261 0 min 0,000 mm 0,0 UV-I 29 W/m 15,8 C 15,8 C 20,9 km/h (4 Bft) 97,87 %
22.07.2018 20:16 18,4 C 22,8 C 18,3 C 85 % 1012,1 hPa 0,0 l/m 13,2 km/h (3 Bft) W-SW 253 0 min 0,000 mm 0,0 UV-I 33 W/m 15,8 C 15,8 C 20,9 km/h (4 Bft) 95,74 %
22.07.2018 20:19 18,4 C 22,8 C 18,3 C 85 % 1012,2 hPa 0,0 l/m 12,8 km/h (3 Bft) W 268 0 min 0,000 mm 0,0 UV-I 32 W/m 15,8 C 15,9 C 22,5 km/h (4 Bft) 95,71 %
22.07.2018 20:20 18,4 C 22,8 C 18,3 C 85 % 1012,2 hPa 0,0 l/m 9,0 km/h (2 Bft) SW 220 0 min 0,000 mm 0,0 UV-I 34 W/m 15,8 C 17,3 C 16,1 km/h (3 Bft) 100,00 %
22.07.2018 20:22 18,4 C 22,8 C 18,3 C 85 % 1012,2 hPa 0,0 l/m 10,7 km/h (2 Bft) W 275 2 min 0,000 mm 0,0 UV-I 35 W/m 15,8 C 16,6 C 17,7 km/h (3 Bft) 92,11 %
22.07.2018 20:24 18,4 C 22,8 C 18,3 C 84 % 1012,3 hPa 0,0 l/m 13,0 km/h (3 Bft) SW 232 2 min 0,000 mm 0,0 UV-I 33 W/m 15,6 C 15,9 C 17,7 km/h (3 Bft) 95,74 %
22.07.2018 20:26 18,4 C 22,8 C 18,3 C 85 % 1012,3 hPa 0,0 l/m 14,5 km/h (3 Bft) W-SW 238 2 min 0,000 mm 0,0 UV-I 32 W/m 15,8 C 15,4 C 20,9 km/h (4 Bft) 95,74 %
22.07.2018 20:29 18,4 C 22,8 C 18,3 C 85 % 1012,3 hPa 0,0 l/m 13,9 km/h (3 Bft) W-SW 257 3 min 0,000 mm 0,0 UV-I 31 W/m 15,8 C 15,6 C 20,9 km/h (4 Bft) 95,95 %
22.07.2018 20:30 18,4 C 22,8 C 18,3 C 84 % 1012,3 hPa 0,0 l/m 11,2 km/h (2 Bft) W 264 1 min 0,000 mm 0,0 UV-I 28 W/m 15,6 C 16,5 C 14,5 km/h (3 Bft) 91,30 %
22.07.2018 20:32 18,4 C 22,8 C 18,3 C 85 % 1012,4 hPa 0,0 l/m 10,2 km/h (2 Bft) W-SW 250 2 min 0,000 mm 0,0 UV-I 27 W/m 15,8 C 16,8 C 14,5 km/h (3 Bft) 96,00 %
22.07.2018 20:34 18,3 C 22,8 C 18,3 C 85 % 1012,4 hPa 0,0 l/m 12,2 km/h (2 Bft) SW 217 2 min 0,000 mm 0,0 UV-I 25 W/m 15,7 C 16,0 C 20,9 km/h (4 Bft) 97,87 %
22.07.2018 20:36 18,3 C 22,8 C 18,3 C 85 % 1012,4 hPa 0,0 l/m 13,8 km/h (3 Bft) SW 223 2 min 0,000 mm 0,0 UV-I 22 W/m 15,7 C 15,5 C 20,9 km/h (4 Bft) 95,74 %
22.07.2018 20:39 18,3 C 22,8 C 18,3 C 85 % 1012,4 hPa 0,0 l/m 12,1 km/h (2 Bft) SW 220 3 min 0,000 mm 0,0 UV-I 19 W/m 15,7 C 16,0 C 24,1 km/h (4 Bft) 94,37 %
22.07.2018 20:40 18,3 C 22,8 C 18,3 C 85 % 1012,4 hPa 0,0 l/m 16,2 km/h (3 Bft) W-SW 247 1 min 0,000 mm 0,0 UV-I 18 W/m 15,7 C 14,9 C 20,9 km/h (4 Bft) 91,30 %
22.07.2018 20:42 18,3 C 22,8 C 18,3 C 85 % 1012,3 hPa 0,0 l/m 15,6 km/h (3 Bft) W 275 0 min 0,000 mm 0,0 UV-I 17 W/m 15,7 C 15,0 C 25,7 km/h (4 Bft) 93,75 %
22.07.2018 20:44 18,3 C 22,8 C 17,8 C 85 % 1012,3 hPa 0,0 l/m 13,8 km/h (3 Bft) W 277 0 min 0,000 mm 0,0 UV-I 14 W/m 15,7 C 15,5 C 19,3 km/h (3 Bft) 92,11 %
22.07.2018 20:46 18,2 C 22,8 C 17,8 C 85 % 1012,4 hPa 0,0 l/m 17,0 km/h (3 Bft) W 276 0 min 0,000 mm 0,0 UV-I 14 W/m 15,6 C 14,6 C 25,7 km/h (4 Bft) 95,74 %
22.07.2018 20:48 18,2 C 22,8 C 17,8 C 85 % 1012,4 hPa 0,0 l/m 12,6 km/h (3 Bft) W-SW 244 0 min 0,000 mm 0,0 UV-I 13 W/m 15,6 C 15,8 C 19,3 km/h (3 Bft) 95,74 %
22.07.2018 20:50 18,2 C 22,8 C 17,8 C 85 % 1012,4 hPa 0,0 l/m 14,1 km/h (3 Bft) W-SW 252 0 min 0,000 mm 0,0 UV-I 12 W/m 15,6 C 15,3 C 20,9 km/h (4 Bft) 93,62 %
22.07.2018 20:52 18,2 C 22,8 C 17,8 C 85 % 1012,3 hPa 0,0 l/m 13,9 km/h (3 Bft) W-SW 248 0 min 0,000 mm 0,0 UV-I 11 W/m 15,6 C 15,4 C 22,5 km/h (4 Bft) 93,62 %
22.07.2018 20:54 18,2 C 22,8 C 17,8 C 85 % 1012,4 hPa 0,0 l/m 15,5 km/h (3 Bft) W-SW 252 0 min 0,000 mm 0,0 UV-I 9 W/m 15,6 C 14,9 C 24,1 km/h (4 Bft) 93,62 %
22.07.2018 20:56 18,2 C 22,8 C 17,8 C 85 % 1012,4 hPa 0,0 l/m 14,6 km/h (3 Bft) W 272 0 min 0,000 mm 0,0 UV-I 7 W/m 15,6 C 15,2 C 20,9 km/h (4 Bft) 95,74 %
22.07.2018 20:59 18,1 C 22,8 C 17,8 C 85 % 1012,5 hPa 0,0 l/m 14,7 km/h (3 Bft) W-SW 238 0 min 0,000 mm 0,0 UV-I 5 W/m 15,5 C 15,0 C 24,1 km/h (4 Bft) 97,18 %
22.07.2018 21:00 18,1 C 22,8 C 17,8 C 85 % 1012,5 hPa 0,0 l/m 14,8 km/h (3 Bft) W-SW 239 0 min 0,000 mm 0,0 UV-I 5 W/m 15,5 C 15,0 C 24,1 km/h (4 Bft) 95,65 %
22.07.2018 21:02 18,1 C 22,8 C 17,8 C 85 % 1012,5 hPa 0,0 l/m 20,2 km/h (4 Bft) W 270 0 min 0,051 mm 0,0 UV-I 5 W/m 15,5 C 13,7 C 29,0 km/h (5 Bft) 95,74 %
22.07.2018 21:04 18,1 C 22,8 C 17,8 C 85 % 1012,5 hPa 0,0 l/m 15,4 km/h (3 Bft) SW 227 0 min 0,000 mm 0,0 UV-I 5 W/m 15,5 C 14,8 C 22,5 km/h (4 Bft) 93,62 %
22.07.2018 21:06 18,1 C 22,8 C 17,8 C 85 % 1012,5 hPa 0,0 l/m 15,3 km/h (3 Bft) SW 228 0 min 0,000 mm 0,0 UV-I 1 W/m 15,5 C 14,9 C 24,1 km/h (4 Bft) 95,74 %
22.07.2018 21:08 18,0 C 22,8 C 17,2 C 85 % 1012,5 hPa 0,0 l/m 11,3 km/h (2 Bft) W-SW 246 0 min 0,000 mm 0,0 UV-I 0 W/m 15,4 C 16,0 C 17,7 km/h (3 Bft) 95,74 %
22.07.2018 21:10 17,9 C 22,8 C 17,2 C 85 % 1012,6 hPa 0,0 l/m 13,7 km/h (3 Bft) W-SW 246 0 min 0,000 mm 0,0 UV-I 0 W/m 15,3 C 15,1 C 20,9 km/h (4 Bft) 93,62 %
22.07.2018 21:12 17,9 C 22,8 C 17,2 C 86 % 1012,6 hPa 0,0 l/m 13,7 km/h (3 Bft) SW 232 0 min 0,000 mm 0,0 UV-I 0 W/m 15,5 C 15,1 C 17,7 km/h (3 Bft) 94,00 %
22.07.2018 21:14 17,9 C 22,8 C 17,2 C 86 % 1012,6 hPa 0,0 l/m 12,9 km/h (3 Bft) W-SW 243 0 min 0,000 mm 0,0 UV-I 0 W/m 15,5 C 15,3 C 20,9 km/h (4 Bft) 98,00 %
22.07.2018 21:16 17,9 C 22,8 C 17,2 C 86 % 1012,6 hPa 0,0 l/m 13,1 km/h (3 Bft) SW 233 0 min 0,000 mm 0,0 UV-I 0 W/m 15,5 C 15,3 C 17,7 km/h (3 Bft) 95,74 %
22.07.2018 21:19 17,9 C 22,8 C 17,2 C 86 % 1012,7 hPa 0,0 l/m 12,9 km/h (3 Bft) W-SW 246 0 min 0,000 mm 0,0 UV-I 0 W/m 15,5 C 15,3 C 20,9 km/h (4 Bft) 95,95 %
22.07.2018 21:20 17,8 C 22,8 C 17,2 C 86 % 1012,7 hPa 0,0 l/m 14,1 km/h (3 Bft) SW 229 0 min 0,000 mm 0,0 UV-I 0 W/m 15,4 C 14,8 C 22,5 km/h (4 Bft) 91,67 %
22.07.2018 21:22 17,8 C 22,8 C 17,2 C 86 % 1012,7 hPa 0,0 l/m 15,6 km/h (3 Bft) W-SW 252 0 min 0,000 mm 0,0 UV-I 0 W/m 15,4 C 14,4 C 20,9 km/h (4 Bft) 95,74 %
22.07.2018 21:24 17,8 C 22,8 C 17,2 C 86 % 1012,7 hPa 0,0 l/m 14,4 km/h (3 Bft) W-SW 239 0 min 0,000 mm 0,0 UV-I 0 W/m 15,4 C 14,8 C 19,3 km/h (3 Bft) 97,87 %
22.07.2018 21:26 17,8 C 22,8 C 17,2 C 86 % 1012,7 hPa 0,0 l/m 17,0 km/h (3 Bft) W 276 0 min 0,000 mm 0,0 UV-I 0 W/m 15,4 C 14,1 C 24,1 km/h (4 Bft) 98,00 %
22.07.2018 21:28 17,8 C 22,8 C 17,2 C 86 % 1012,8 hPa 0,0 l/m 13,5 km/h (3 Bft) W-NW 287 0 min 0,000 mm 0,0 UV-I 0 W/m 15,4 C 15,0 C 20,9 km/h (4 Bft) 96,00 %
22.07.2018 21:30 17,8 C 22,8 C 17,2 C 86 % 1012,8 hPa 0,0 l/m 13,6 km/h (3 Bft) W-SW 257 0 min 0,000 mm 0,0 UV-I 0 W/m 15,4 C 15,0 C 20,9 km/h (4 Bft) 100,00 %
22.07.2018 21:32 17,8 C 22,8 C 17,2 C 86 % 1012,9 hPa 0,0 l/m 15,5 km/h (3 Bft) W-SW 244 0 min 0,000 mm 0,0 UV-I 0 W/m 15,4 C 14,4 C 22,5 km/h (4 Bft) 100,00 %
22.07.2018 21:34 17,8 C 22,8 C 17,2 C 86 % 1012,9 hPa 0,0 l/m 15,2 km/h (3 Bft) W-SW 257 0 min 0,000 mm 0,0 UV-I 0 W/m 15,4 C 14,5 C 20,9 km/h (4 Bft) 100,00 %
22.07.2018 21:36 17,8 C 22,8 C 17,2 C 86 % 1012,9 hPa 0,0 l/m 11,6 km/h (2 Bft) W-SW 249 0 min 0,000 mm 0,0 UV-I 0 W/m 15,4 C 15,6 C 17,7 km/h (3 Bft) 96,00 %
22.07.2018 21:38 17,7 C 22,8 C 17,2 C 86 % 1012,9 hPa 0,0 l/m 12,9 km/h (3 Bft) W-SW 241 0 min 0,000 mm 0,0 UV-I 0 W/m 15,3 C 15,1 C 24,1 km/h (4 Bft) 95,74 %
22.07.2018 21:40 17,7 C 22,8 C 17,2 C 86 % 1012,9 hPa 0,0 l/m 13,7 km/h (3 Bft) W-SW 248 0 min 0,000 mm 0,0 UV-I 0 W/m 15,3 C 14,8 C 19,3 km/h (3 Bft) 95,74 %
22.07.2018 21:42 17,7 C 22,8 C 17,2 C 86 % 1013,0 hPa 0,0 l/m 17,0 km/h (3 Bft) W 271 0 min 0,000 mm 0,0 UV-I 0 W/m 15,3 C 13,9 C 25,7 km/h (4 Bft) 97,87 %
22.07.2018 21:44 17,7 C 22,8 C 17,2 C 86 % 1013,0 hPa 0,0 l/m 12,3 km/h (3 Bft) W-SW 252 0 min 0,000 mm 0,0 UV-I 0 W/m 15,3 C 15,3 C 17,7 km/h (3 Bft) 98,00 %
22.07.2018 21:46 17,7 C 22,8 C 16,7 C 86 % 1013,0 hPa 0,0 l/m 13,4 km/h (3 Bft) SW 226 0 min 0,000 mm 0,0 UV-I 0 W/m 15,3 C 14,9 C 19,3 km/h (3 Bft) 97,87 %
22.07.2018 21:48 17,7 C 22,8 C 16,7 C 87 % 1013,0 hPa 0,0 l/m 13,9 km/h (3 Bft) W 267 0 min 0,000 mm 0,0 UV-I 0 W/m 15,5 C 14,8 C 20,9 km/h (4 Bft) 97,87 %
22.07.2018 21:50 17,6 C 22,2 C 16,7 C 87 % 1013,0 hPa 0,0 l/m 12,6 km/h (3 Bft) W 265 0 min 0,000 mm 0,0 UV-I 0 W/m 15,4 C 15,1 C 19,3 km/h (3 Bft) 95,74 %
22.07.2018 21:52 17,6 C 22,8 C 16,7 C 87 % 1013,0 hPa 0,0 l/m 11,1 km/h (2 Bft) W 271 0 min 0,000 mm 0,0 UV-I 0 W/m 15,4 C 15,6 C 17,7 km/h (3 Bft) 97,87 %
22.07.2018 21:54 17,6 C 22,8 C 16,7 C 87 % 1013,0 hPa 0,0 l/m 16,1 km/h (3 Bft) W-NW 283 0 min 0,000 mm 0,0 UV-I 0 W/m 15,4 C 14,0 C 20,9 km/h (4 Bft) 97,44 %
22.07.2018 21:56 17,6 C 22,2 C 16,7 C 87 % 1013,1 hPa 0,0 l/m 11,1 km/h (2 Bft) W 259 0 min 0,000 mm 0,0 UV-I 0 W/m 15,4 C 15,6 C 16,1 km/h (3 Bft) 96,49 %
22.07.2018 21:59 17,5 C 22,2 C 16,7 C 87 % 1013,1 hPa 0,0 l/m 10,7 km/h (2 Bft) W 270 0 min 0,000 mm 0,0 UV-I 0 W/m 15,3 C 15,6 C 16,1 km/h (3 Bft) 94,59 %
22.07.2018 22:00 17,5 C 22,2 C 16,7 C 87 % 1013,1 hPa 0,0 l/m 9,9 km/h (2 Bft) W-NW 288 0 min 0,000 mm 0,0 UV-I 0 W/m 15,3 C 15,9 C 14,5 km/h (3 Bft) 91,67 %
22.07.2018 22:02 17,4 C 22,2 C 16,7 C 87 % 1013,1 hPa 0,0 l/m 12,8 km/h (3 Bft) W 269 0 min 0,026 mm 0,0 UV-I 0 W/m 15,2 C 14,8 C 19,3 km/h (3 Bft) 100,00 %
22.07.2018 22:04 17,4 C 22,2 C 16,7 C 88 % 1013,1 hPa 0,0 l/m 10,7 km/h (2 Bft) W 265 0 min 0,000 mm 0,0 UV-I 0 W/m 15,4 C 15,5 C 14,5 km/h (3 Bft) 100,00 %
22.07.2018 22:06 17,4 C 22,2 C 16,7 C 88 % 1013,1 hPa 0,0 l/m 9,2 km/h (2 Bft) W 269 0 min 0,000 mm 0,0 UV-I 0 W/m 15,4 C 16,1 C 12,9 km/h (3 Bft) 97,87 %
22.07.2018 22:08 17,3 C 22,2 C 16,7 C 88 % 1013,1 hPa 0,0 l/m 11,4 km/h (2 Bft) W 267 0 min 0,000 mm 0,0 UV-I 0 W/m 15,3 C 15,1 C 14,5 km/h (3 Bft) 100,00 %
22.07.2018 22:10 17,3 C 22,2 C 16,7 C 88 % 1013,1 hPa 0,0 l/m 11,3 km/h (2 Bft) W 272 0 min 0,000 mm 0,0 UV-I 0 W/m 15,3 C 15,2 C 16,1 km/h (3 Bft) 97,87 %
22.07.2018 22:12 17,3 C 22,2 C 16,1 C 88 % 1013,1 hPa 0,0 l/m 10,9 km/h (2 Bft) W-SW 254 0 min 0,000 mm 0,0 UV-I 0 W/m 15,3 C 15,3 C 17,7 km/h (3 Bft) 95,74 %
22.07.2018 22:14 17,2 C 22,2 C 16,7 C 88 % 1013,1 hPa 0,0 l/m 10,4 km/h (2 Bft) W-SW 249 0 min 0,000 mm 0,0 UV-I 0 W/m 15,2 C 15,4 C 17,7 km/h (3 Bft) 100,00 %
22.07.2018 22:16 17,2 C 22,2 C 16,7 C 88 % 1013,1 hPa 0,0 l/m 12,0 km/h (2 Bft) SW 236 0 min 0,000 mm 0,0 UV-I 0 W/m 15,2 C 14,8 C 19,3 km/h (3 Bft) 97,87 %
22.07.2018 22:18 17,2 C 22,2 C 16,7 C 88 % 1013,1 hPa 0,0 l/m 13,6 km/h (3 Bft) W-SW 255 0 min 0,000 mm 0,0 UV-I 0 W/m 15,2 C 14,3 C 22,5 km/h (4 Bft) 100,00 %
22.07.2018 22:20 17,2 C 22,2 C 16,1 C 89 % 1013,1 hPa 0,0 l/m 13,8 km/h (3 Bft) SW 231 0 min 0,000 mm 0,0 UV-I 0 W/m 15,4 C 14,2 C 20,9 km/h (4 Bft) 100,00 %
22.07.2018 22:22 17,2 C 22,2 C 16,1 C 88 % 1013,1 hPa 0,0 l/m 13,3 km/h (3 Bft) W-SW 246 0 min 0,000 mm 0,0 UV-I 0 W/m 15,2 C 14,4 C 19,3 km/h (3 Bft) 100,00 %
22.07.2018 22:24 17,2 C 22,2 C 16,1 C 88 % 1013,1 hPa 0,0 l/m 11,1 km/h (2 Bft) W 274 0 min 0,000 mm 0,0 UV-I 0 W/m 15,2 C 15,1 C 19,3 km/h (3 Bft) 100,00 %
22.07.2018 22:26 17,2 C 22,2 C 16,7 C 89 % 1013,1 hPa 0,0 l/m 13,8 km/h (3 Bft) W 259 0 min 0,000 mm 0,0 UV-I 0 W/m 15,4 C 14,2 C 22,5 km/h (4 Bft) 98,00 %
22.07.2018 22:28 17,2 C 22,2 C 16,7 C 88 % 1013,0 hPa 0,0 l/m 14,4 km/h (3 Bft) W-SW 255 0 min 0,000 mm 0,0 UV-I 0 W/m 15,2 C 14,0 C 19,3 km/h (3 Bft) 100,00 %
22.07.2018 22:30 17,2 C 22,2 C 16,7 C 89 % 1013,0 hPa 0,0 l/m 16,5 km/h (3 Bft) W-SW 254 0 min 0,000 mm 0,0 UV-I 0 W/m 15,4 C 13,4 C 25,7 km/h (4 Bft) 100,00 %
22.07.2018 22:32 17,2 C 22,2 C 16,7 C 88 % 1013,0 hPa 0,0 l/m 15,6 km/h (3 Bft) W 263 0 min 0,000 mm 0,0 UV-I 0 W/m 15,2 C 13,7 C 20,9 km/h (4 Bft) 100,00 %
22.07.2018 22:34 17,2 C 22,2 C 16,7 C 88 % 1013,0 hPa 0,0 l/m 14,6 km/h (3 Bft) W 278 0 min 0,000 mm 0,0 UV-I 0 W/m 15,2 C 14,0 C 25,7 km/h (4 Bft) 95,83 %
22.07.2018 22:36 17,2 C 22,2 C 16,7 C 88 % 1013,1 hPa 0,0 l/m 16,7 km/h (3 Bft) W-NW 290 0 min 0,000 mm 0,0 UV-I 0 W/m 15,2 C 13,4 C 22,5 km/h (4 Bft) 95,74 %
22.07.2018 22:38 17,3 C 22,2 C 16,7 C 88 % 1013,1 hPa 0,0 l/m 17,8 km/h (3 Bft) W-SW 249 0 min 0,000 mm 0,0 UV-I 0 W/m 15,3 C 13,2 C 25,7 km/h (4 Bft) 97,37 %
22.07.2018 22:40 17,3 C 22,2 C 16,7 C 88 % 1013,1 hPa 0,0 l/m 16,4 km/h (3 Bft) SW 231 0 min 0,000 mm 0,0 UV-I 0 W/m 15,3 C 13,6 C 27,4 km/h (4 Bft) 97,87 %
22.07.2018 22:42 17,3 C 22,2 C 16,7 C 88 % 1013,0 hPa 0,0 l/m 17,3 km/h (3 Bft) W 271 0 min 0,000 mm 0,0 UV-I 0 W/m 15,3 C 13,4 C 25,7 km/h (4 Bft) 96,00 %
22.07.2018 22:44 17,3 C 22,2 C 16,7 C 88 % 1013,1 hPa 0,0 l/m 15,9 km/h (3 Bft) W 259 0 min 0,000 mm 0,0 UV-I 0 W/m 15,3 C 13,7 C 24,1 km/h (4 Bft) 98,11 %
22.07.2018 22:46 17,3 C 22,2 C 16,7 C 88 % 1013,0 hPa 0,0 l/m 15,2 km/h (3 Bft) W 269 0 min 0,000 mm 0,0 UV-I 0 W/m 15,3 C 13,9 C 20,9 km/h (4 Bft) 97,37 %
22.07.2018 22:48 17,3 C 22,2 C 16,7 C 88 % 1013,0 hPa 0,0 l/m 16,6 km/h (3 Bft) W-SW 258 0 min 0,000 mm 0,0 UV-I 0 W/m 15,3 C 13,5 C 25,7 km/h (4 Bft) 95,74 %
22.07.2018 22:50 17,2 C 22,2 C 16,7 C 88 % 1013,1 hPa 0,0 l/m 16,0 km/h (3 Bft) W 265 0 min 0,000 mm 0,0 UV-I 0 W/m 15,2 C 13,6 C 24,1 km/h (4 Bft) 97,87 %
22.07.2018 22:52 17,2 C 22,2 C 16,7 C 88 % 1013,1 hPa 0,0 l/m 15,5 km/h (3 Bft) W-SW 252 0 min 0,000 mm 0,0 UV-I 0 W/m 15,2 C 13,7 C 24,1 km/h (4 Bft) 98,00 %
22.07.2018 22:54 17,2 C 22,2 C 16,7 C 88 % 1013,1 hPa 0,0 l/m 16,9 km/h (3 Bft) W 271 0 min 0,000 mm 0,0 UV-I 0 W/m 15,2 C 13,3 C 22,5 km/h (4 Bft) 94,00 %
22.07.2018 22:56 17,2 C 22,2 C 16,7 C 88 % 1013,1 hPa 0,0 l/m 15,0 km/h (3 Bft) SW 229 0 min 0,000 mm 0,0 UV-I 0 W/m 15,2 C 13,9 C 22,5 km/h (4 Bft) 98,00 %
22.07.2018 22:58 17,2 C 22,2 C 16,7 C 88 % 1013,2 hPa 0,0 l/m 14,8 km/h (3 Bft) SW 227 0 min 0,000 mm 0,0 UV-I 0 W/m 15,2 C 13,9 C 19,3 km/h (3 Bft) 97,56 %
22.07.2018 23:00 17,2 C 22,2 C 16,7 C 88 % 1013,2 hPa 0,0 l/m 13,9 km/h (3 Bft) SW 232 0 min 0,000 mm 0,0 UV-I 0 W/m 15,2 C 14,2 C 19,3 km/h (3 Bft) 98,00 %
22.07.2018 23:02 17,2 C 22,2 C 16,7 C 88 % 1013,2 hPa 0,0 l/m 15,7 km/h (3 Bft) SW 226 0 min 0,025 mm 0,0 UV-I 0 W/m 15,2 C 13,7 C 24,1 km/h (4 Bft) 95,74 %
22.07.2018 23:04 17,2 C 22,2 C 16,7 C 88 % 1013,2 hPa 0,0 l/m 13,1 km/h (3 Bft) W-SW 252 0 min 0,000 mm 0,0 UV-I 0 W/m 15,2 C 14,4 C 20,9 km/h (4 Bft) 94,44 %
22.07.2018 23:06 17,1 C 22,2 C 16,1 C 88 % 1013,2 hPa 0,0 l/m 11,9 km/h (2 Bft) W 266 0 min 0,000 mm 0,0 UV-I 0 W/m 15,1 C 14,7 C 16,1 km/h (3 Bft) 96,00 %
22.07.2018 23:08 17,1 C 22,2 C 16,1 C 88 % 1013,1 hPa 0,0 l/m 12,7 km/h (3 Bft) W 264 0 min 0,000 mm 0,0 UV-I 0 W/m 15,1 C 14,5 C 17,7 km/h (3 Bft) 95,74 %
22.07.2018 23:10 17,0 C 22,2 C 16,1 C 88 % 1013,2 hPa 0,0 l/m 12,2 km/h (2 Bft) SW 234 0 min 0,000 mm 0,0 UV-I 0 W/m 15,0 C 14,5 C 16,1 km/h (3 Bft) 93,62 %
22.07.2018 23:12 17,0 C 22,2 C 16,1 C 88 % 1013,3 hPa 0,0 l/m 10,8 km/h (2 Bft) W-SW 251 0 min 0,000 mm 0,0 UV-I 0 W/m 15,0 C 15,0 C 14,5 km/h (3 Bft) 96,00 %
22.07.2018 23:14 16,9 C 22,2 C 16,1 C 89 % 1013,3 hPa 0,0 l/m 11,0 km/h (2 Bft) W-SW 258 0 min 0,000 mm 0,0 UV-I 0 W/m 15,1 C 14,8 C 20,9 km/h (4 Bft) 95,74 %
22.07.2018 23:16 16,9 C 22,2 C 16,1 C 89 % 1013,2 hPa 0,0 l/m 11,6 km/h (2 Bft) W-SW 252 0 min 0,000 mm 0,0 UV-I 0 W/m 15,1 C 14,6 C 17,7 km/h (3 Bft) 97,87 %
22.07.2018 23:18 16,9 C 22,2 C 16,1 C 89 % 1013,2 hPa 0,0 l/m 10,2 km/h (2 Bft) W 261 0 min 0,000 mm 0,0 UV-I 0 W/m 15,1 C 15,1 C 16,1 km/h (3 Bft) 93,62 %
22.07.2018 23:20 16,9 C 22,2 C 16,1 C 89 % 1013,2 hPa 0,0 l/m 11,8 km/h (2 Bft) W-SW 257 0 min 0,000 mm 0,0 UV-I 0 W/m 15,1 C 14,5 C 17,7 km/h (3 Bft) 93,62 %
22.07.2018 23:22 16,9 C 22,2 C 16,1 C 89 % 1013,2 hPa 0,0 l/m 10,6 km/h (2 Bft) SW 232 0 min 0,000 mm 0,0 UV-I 0 W/m 15,1 C 15,0 C 17,7 km/h (3 Bft) 95,74 %
22.07.2018 23:24 16,8 C 22,2 C 16,1 C 89 % 1013,2 hPa 0,0 l/m 12,5 km/h (3 Bft) W-SW 240 0 min 0,000 mm 0,0 UV-I 0 W/m 15,0 C 14,2 C 19,3 km/h (3 Bft) 95,74 %
22.07.2018 23:26 16,8 C 22,2 C 16,1 C 89 % 1013,2 hPa 0,0 l/m 11,8 km/h (2 Bft) W-SW 245 0 min 0,000 mm 0,0 UV-I 0 W/m 15,0 C 14,4 C 17,7 km/h (3 Bft) 97,87 %
22.07.2018 23:28 16,8 C 22,2 C 16,1 C 89 % 1013,2 hPa 0,0 l/m 12,4 km/h (3 Bft) W-SW 252 0 min 0,000 mm 0,0 UV-I 0 W/m 15,0 C 14,2 C 20,9 km/h (4 Bft) 97,87 %
22.07.2018 23:30 16,8 C 22,2 C 16,1 C 89 % 1013,2 hPa 0,0 l/m 10,7 km/h (2 Bft) W-SW 250 0 min 0,000 mm 0,0 UV-I 0 W/m 15,0 C 14,8 C 16,1 km/h (3 Bft) 97,87 %
22.07.2018 23:32 16,7 C 22,2 C 16,1 C 89 % 1013,2 hPa 0,0 l/m 11,2 km/h (2 Bft) W-SW 238 0 min 0,000 mm 0,0 UV-I 0 W/m 14,9 C 14,5 C 16,1 km/h (3 Bft) 100,00 %
22.07.2018 23:34 16,7 C 22,2 C 16,1 C 90 % 1013,2 hPa 0,0 l/m 10,7 km/h (2 Bft) SW 235 0 min 0,000 mm 0,0 UV-I 0 W/m 15,0 C 14,7 C 16,1 km/h (3 Bft) 100,00 %
22.07.2018 23:36 16,6 C 22,2 C 16,1 C 90 % 1013,2 hPa 0,0 l/m 11,1 km/h (2 Bft) W 261 0 min 0,000 mm 0,0 UV-I 0 W/m 15,0 C 14,4 C 14,5 km/h (3 Bft) 100,00 %
22.07.2018 23:39 16,6 C 22,2 C 16,1 C 90 % 1013,3 hPa 0,0 l/m 11,2 km/h (2 Bft) W-NW 284 0 min 0,000 mm 0,0 UV-I 0 W/m 15,0 C 14,4 C 17,7 km/h (3 Bft) 98,59 %
22.07.2018 23:40 16,6 C 22,2 C 16,1 C 90 % 1013,3 hPa 0,0 l/m 9,8 km/h (2 Bft) W 265 0 min 0,000 mm 0,0 UV-I 0 W/m 15,0 C 15,0 C 12,9 km/h (3 Bft) 100,00 %
22.07.2018 23:42 16,6 C 22,2 C 16,1 C 90 % 1013,4 hPa 0,0 l/m 10,0 km/h (2 Bft) W-SW 256 0 min 0,000 mm 0,0 UV-I 0 W/m 15,0 C 14,9 C 14,5 km/h (3 Bft) 100,00 %
22.07.2018 23:44 16,6 C 22,2 C 16,1 C 90 % 1013,4 hPa 0,0 l/m 10,7 km/h (2 Bft) W-SW 255 0 min 0,000 mm 0,0 UV-I 0 W/m 15,0 C 14,6 C 17,7 km/h (3 Bft) 100,00 %
22.07.2018 23:46 16,6 C 22,2 C 16,1 C 90 % 1013,4 hPa 0,0 l/m 10,1 km/h (2 Bft) SW 216 0 min 0,000 mm 0,0 UV-I 0 W/m 15,0 C 14,8 C 14,5 km/h (3 Bft) 100,00 %
22.07.2018 23:48 16,6 C 22,2 C 16,1 C 90 % 1013,4 hPa 0,0 l/m 10,9 km/h (2 Bft) W-NW 292 0 min 0,000 mm 0,0 UV-I 0 W/m 15,0 C 14,5 C 14,5 km/h (3 Bft) 98,00 %
22.07.2018 23:50 16,6 C 22,2 C 16,1 C 90 % 1013,4 hPa 0,0 l/m 11,1 km/h (2 Bft) W 270 0 min 0,000 mm 0,0 UV-I 0 W/m 15,0 C 14,4 C 16,1 km/h (3 Bft) 100,00 %
22.07.2018 23:52 16,6 C 22,2 C 16,1 C 90 % 1013,5 hPa 0,0 l/m 12,3 km/h (3 Bft) W 261 0 min 0,000 mm 0,0 UV-I 0 W/m 15,0 C 14,0 C 16,1 km/h (3 Bft) 100,00 %
22.07.2018 23:54 16,6 C 22,2 C 16,1 C 90 % 1013,5 hPa 0,0 l/m 12,8 km/h (3 Bft) W 261 0 min 0,000 mm 0,0 UV-I 0 W/m 15,0 C 13,8 C 17,7 km/h (3 Bft) 100,00 %
22.07.2018 23:56 16,7 C 22,2 C 16,1 C 90 % 1013,4 hPa 0,0 l/m 10,7 km/h (2 Bft) W-SW 244 0 min 0,000 mm 0,0 UV-I 0 W/m 15,0 C 14,7 C 14,5 km/h (3 Bft) 100,00 %
22.07.2018 23:58 16,7 C 22,2 C 16,1 C 90 % 1013,4 hPa 0,0 l/m 12,7 km/h (3 Bft) W 278 0 min 0,000 mm 0,0 UV-I 0 W/m 15,0 C 14,0 C 19,3 km/h (3 Bft) 100,00 %
_ Min-Zeit 23:36 21:50 22:12 15:50 06:39 - 14:14 - - - - - - 23:32 02:08 09:56 12:57
Minimum _ 16,6 C 22,2 C 16,1 C 77 % 1009,2 hPa - 3,6 km/h (1 Bft) - - - - - - 14,9 C 12,5 C 4,8 km/h (1 Bft) 82,61 %
_ Max-Zeit 15:12 00:00 15:42 09:53 23:52 07:55 02:08 - - 20:29 15:00 14:20 14:30 14:19 15:49 02:08 00:05
Maximum _ 20,7 C 23,9 C 24,4 C 96 % 1013,5 hPa 0,2 l/m 25,5 km/h
W-SW (4 Bft)
- - 3 min 0,204 mm 2,9 UV-I 461 W/m 18,5 C 20,7 C 37,0 km/h
SW (5 Bft)
100,00 %
Durchschnitt _ 18,2 C 22,9 C 18,8 C 88 % 1010,9 hPa #8,4 l/m 12,3 km/h (3 Bft) W-SW - #22 min. #1,524 mm 1,3 UV-I 126 W/m 16,2 C 16,0 C 18,1 km/h (3 Bft) 97,28 %